Site Date LOGGERID PROGID SNOWDEP_MED_0_0_01 SNOWDEP_QUAL_0_0_01 WSPD_PRO_MEAN_1000_0_01 WMAG_PRO_MEAN_1000_0_01 WDIR_PRO_MEAN_1000_0_01 WDIR_PRO_STDDEV_1000_0_01 DEWPT_MEAN_150_0_04 DEWPT_MEAN_450_0_01 AIRTEMP_MEAN_150_0_04 AIRTEMP_MEAN_250_0_03 AIRTEMP_MEAN_350_0_02 AIRTEMP_MEAN_450_0_01 RELHUM_MEAN_150_0_04 RELHUM_MEAN_450_0_01 WSPD_PRO_MAX_1000_0_01 AIRTEMP_MAX_150_0_04 AIRTEMP_MAX_250_0_03 AIRTEMP_MAX_350_0_02 AIRTEMP_MAX_450_0_01 AIRTEMP_MIN_150_0_04 AIRTEMP_MIN_250_0_03 AIRTEMP_MIN_350_0_02 AIRTEMP_MIN_450_0_01 DEWPT_MAX_150_0_04 DEWPT_MAX_450_0_01 DEWPT_MIN_150_0_04 DEWPT_MIN_450_0_01 SATVP_MEAN_150_0_04 VAP_MEAN_150_0_04 VPD_MEAN_150_0_04 SATVP_MEAN_450_0_01 VAP_MEAN_450_0_01 VPD_MEAN_450_0_01
PRIMET_226 2021-06-14 22:35:00 226 3904.0 0.00 194 0.000 0.000     12.690 12.500 12.72 13.130 13.000 12.540 99.900 99.800 0.000 12.74 13.150 13.030 12.570 12.70 13.100 12.970 12.500 12.720 12.540 12.670 12.470 14.704 14.675 0.015 14.532 14.494 0.029
PRIMET_226 2021-06-14 22:30:00 226 3904.0 0.00 189 0.000 0.000     12.630 12.440 12.66 13.070 12.950 12.490 99.800 99.700 0.000 12.70 13.100 12.990 12.520 12.64 13.040 12.920 12.470 12.670 12.480 12.600 12.410 14.647 14.618 0.029 14.484 14.437 0.043
PRIMET_226 2021-06-14 22:25:00 226 3904.0 0.00 190 0.000 0.000     12.610 12.410 12.65 13.040 12.920 12.480 99.700 99.600 0.000 12.68 13.050 12.930 12.490 12.64 13.030 12.910 12.460 12.640 12.430 12.590 12.390 14.637 14.599 0.044 14.475 14.408 0.058
PRIMET_226 2021-06-14 22:20:00 226 3904.0 0.00 190 0.000 0.000     12.660 12.460 12.70 13.090 12.960 12.530 99.700 99.600 0.000 12.74 13.140 13.010 12.560 12.68 13.050 12.930 12.490 12.700 12.500 12.630 12.420 14.685 14.647 0.044 14.522 14.456 0.058
PRIMET_226 2021-06-14 22:15:00 226 3904.0 0.00 180 0.000 0.000     12.710 12.520 12.75 13.150 13.020 12.570 99.700 99.700 0.000 12.77 13.170 13.030 12.580 12.73 13.130 13.000 12.550 12.730 12.540 12.690 12.500 14.733 14.695 0.044 14.560 14.513 0.044
PRIMET_226 2021-06-14 22:10:00 226 3904.0 0.00 188 0.000 0.000     12.680 12.510 12.73 13.150 13.010 12.560 99.700 99.700 0.000 12.77 13.180 13.040 12.580 12.70 13.120 13.000 12.540 12.730 12.540 12.650 12.490 14.714 14.666 0.044 14.551 14.503 0.044
PRIMET_226 2021-06-14 22:05:00 226 3904.0 0.00 194 0.000 0.000     12.630 12.470 12.69 13.100 12.970 12.520 99.600 99.700 0.000 12.71 13.130 13.000 12.540 12.67 13.080 12.940 12.490 12.660 12.490 12.600 12.430 14.675 14.618 0.059 14.513 14.465 0.044
PRIMET_226 2021-06-14 22:00:00 226 3904.0 0.00 189 0.000 0.000     12.610 12.430 12.68 13.070 12.940 12.490 99.500 99.600 0.000 12.69 13.090 12.950 12.510 12.68 13.070 12.930 12.470 12.620 12.440 12.600 12.410 14.666 14.599 0.073 14.484 14.427 0.058
PRIMET_226 2021-06-14 21:55:00 226 3904.0 0.00 185 0.000 0.000     12.600 12.430 12.69 13.080 12.940 12.500 99.400 99.500 0.000 12.71 13.090 12.950 12.520 12.68 13.060 12.920 12.490 12.630 12.450 12.580 12.410 14.675 14.589 0.088 14.494 14.427 0.072
PRIMET_226 2021-06-14 21:50:00 226 3904.0 0.00 184 0.000 0.000     12.610 12.430 12.71 13.090 12.940 12.510 99.300 99.500 0.000 12.72 13.110 12.960 12.530 12.70 13.060 12.920 12.490 12.620 12.440 12.600 12.410 14.695 14.599 0.103 14.503 14.427 0.073
PRIMET_226 2021-06-14 21:45:00 226 3904.0 0.00 194 0.178 0.177 51.190 4.460 12.610 12.420 12.72 13.110 12.950 12.520 99.300 99.400 0.490 12.74 13.120 12.970 12.540 12.71 13.090 12.940 12.510 12.620 12.440 12.590 12.410 14.704 14.599 0.103 14.513 14.418 0.087
PRIMET_226 2021-06-14 21:40:00 226 3904.0 0.00 190 0.000 0.000     12.630 12.450 12.75 13.140 12.990 12.560 99.200 99.300 0.000 12.77 13.160 13.010 12.580 12.73 13.100 12.960 12.530 12.650 12.470 12.610 12.430 14.733 14.618 0.118 14.551 14.446 0.102
PRIMET_226 2021-06-14 21:35:00 226 3904.0 0.00 177 0.000 0.000     12.640 12.460 12.76 13.160 13.020 12.560 99.200 99.300 0.000 12.78 13.180 13.030 12.580 12.74 13.150 13.000 12.540 12.660 12.480 12.610 12.440 14.743 14.627 0.118 14.551 14.456 0.102
PRIMET_226 2021-06-14 21:30:00 226 3904.0 0.00 186 0.000 0.000     12.570 12.390 12.72 13.110 12.970 12.510 99.000 99.300 0.000 12.74 13.140 13.010 12.530 12.69 13.090 12.940 12.480 12.610 12.430 12.530 12.350 14.704 14.560 0.147 14.503 14.389 0.102
PRIMET_226 2021-06-14 21:25:00 226 3904.0 0.00 190 0.000 0.000     12.540 12.360 12.70 13.090 12.940 12.490 99.000 99.100 0.000 12.73 13.100 12.960 12.510 12.69 13.090 12.930 12.480 12.570 12.370 12.520 12.350 14.685 14.532 0.147 14.484 14.361 0.130
PRIMET_226 2021-06-14 21:20:00 226 3904.0 0.00 190 0.251 0.251 71.380 0.117 12.610 12.420 12.77 13.140 13.000 12.560 99.000 99.100 0.771 12.80 13.200 13.070 12.600 12.72 13.100 12.950 12.510 12.650 12.480 12.560 12.370 14.753 14.599 0.148 14.551 14.418 0.131
PRIMET_226 2021-06-14 21:15:00 226 3904.0 0.00 192 0.030 0.030 17.950 0.034 12.620 12.470 12.77 13.180 13.040 12.570 99.000 99.300 0.353 12.80 13.200 13.070 12.590 12.74 13.150 13.010 12.540 12.650 12.480 12.580 12.430 14.753 14.608 0.148 14.560 14.465 0.102
PRIMET_226 2021-06-14 21:10:00 226 3904.0 0.00 190 0.044 0.044 51.740 0.069 12.560 12.420 12.72 13.120 12.990 12.540 98.900 99.200 0.287 12.75 13.150 13.010 12.570 12.71 13.090 12.970 12.510 12.590 12.450 12.540 12.390 14.704 14.551 0.162 14.532 14.418 0.116
PRIMET_226 2021-06-14 21:05:00 226 3904.0 0.00 194 0.068 0.068 51.880 0.025 12.550 12.420 12.73 13.130 13.000 12.550 98.800 99.100 0.399 12.75 13.140 13.010 12.570 12.72 13.120 12.990 12.540 12.570 12.440 12.510 12.400 14.714 14.541 0.177 14.541 14.418 0.131
PRIMET_226 2021-06-14 21:00:00 226 3904.0 0.00 192 0.462 0.430 25.900 19.120 12.480 12.380 12.73 13.100 12.960 12.560 98.400 98.800 0.830 12.78 13.130 12.990 12.620 12.71 13.080 12.940 12.520 12.510 12.440 12.450 12.330 14.714 14.475 0.235 14.551 14.380 0.175
PRIMET_226 2021-06-14 20:55:00 226 3904.0 0.00 180 0.095 0.095 45.290 0.000 12.570 12.480 12.84 13.200 13.070 12.660 98.300 98.800 0.536 12.87 13.250 13.100 12.690 12.80 13.130 13.000 12.630 12.590 12.500 12.530 12.450 14.820 14.560 0.252 14.647 14.475 0.176
PRIMET_226 2021-06-14 20:50:00 226 3904.0 0.00 190 0.337 0.336 32.800 3.206 12.670 12.530 12.92 13.280 13.130 12.740 98.400 98.600 1.124 13.00 13.370 13.220 12.820 12.86 13.230 13.090 12.680 12.810 12.660 12.580 12.470 14.898 14.656 0.238 14.724 14.522 0.206
PRIMET_226 2021-06-14 20:45:00 226 3904.0 0.00 194 0.381 0.356 352.700 19.740 12.830 12.690 13.02 13.410 13.260 12.850 98.800 99.000 0.601 13.05 13.430 13.290 12.880 12.99 13.380 13.230 12.800 12.860 12.730 12.800 12.640 14.996 14.811 0.180 14.830 14.675 0.148
PRIMET_226 2021-06-14 20:40:00 226 3904.0 0.00 203 0.000 0.000     12.860 12.730 13.07 13.450 13.310 12.930 98.600 98.700 0.000 13.12 13.510 13.370 12.990 13.02 13.400 13.260 12.860 12.920 12.790 12.790 12.680 15.045 14.840 0.211 14.908 14.714 0.194
PRIMET_226 2021-06-14 20:35:00 226 3904.0 0.00 195 0.183 0.183 34.370 0.061 13.020 12.880 13.20 13.570 13.440 13.050 98.800 98.900 0.431 13.25 13.630 13.490 13.110 13.12 13.500 13.380 12.990 13.070 12.950 12.920 12.780 15.173 14.996 0.182 15.025 14.859 0.165
PRIMET_226 2021-06-14 20:30:00 226 3904.0 0.00 197 0.000 0.000     13.140 13.000 13.32 13.680 13.540 13.170 98.800 98.900 0.000 13.40 13.760 13.620 13.250 13.26 13.640 13.490 13.100 13.230 13.090 13.070 12.940 15.293 15.114 0.184 15.144 14.976 0.167
PRIMET_226 2021-06-14 20:25:00 226 3904.0 0.00 280 0.036 0.036 34.130 0.096 13.280 13.150 13.44 13.820 13.690 13.300 99.000 99.000 0.274 13.47 13.860 13.720 13.330 13.39 13.770 13.640 13.270 13.310 13.190 13.230 13.110 15.413 15.253 0.154 15.273 15.124 0.153
PRIMET_226 2021-06-14 20:20:00 226 3904.0 0.00 254 0.210 0.210 35.850 2.582 13.280 13.200 13.46 13.870 13.730 13.330 98.800 99.200 0.679 13.49 13.890 13.750 13.350 13.45 13.840 13.710 13.290 13.320 13.230 13.260 13.160 15.433 15.253 0.185 15.303 15.173 0.122
PRIMET_226 2021-06-14 20:15:00 226 3904.0 0.00 379 0.000 0.000     13.270 13.200 13.47 13.840 13.690 13.330 98.700 99.200 0.000 13.52 13.860 13.710 13.380 13.45 13.820 13.680 13.300 13.310 13.270 13.250 13.170 15.443 15.243 0.201 15.303 15.173 0.122
PRIMET_226 2021-06-14 20:10:00 226 3904.0 0.00 433 0.000 0.000     13.310 13.290 13.54 13.890 13.760 13.410 98.500 99.200 0.000 13.58 13.910 13.770 13.460 13.51 13.870 13.730 13.380 13.330 13.320 13.290 13.270 15.514 15.283 0.233 15.383 15.263 0.123
PRIMET_226 2021-06-14 20:05:00 226 3904.0 0.00 258 0.000 0.000     13.360 13.330 13.62 13.950 13.810 13.480 98.300 99.000 0.000 13.67 13.990 13.840 13.520 13.56 13.910 13.780 13.450 13.390 13.350 13.310 13.310 15.595 15.333 0.265 15.453 15.303 0.155
PRIMET_226 2021-06-14 20:00:00 226 3904.0 0.00 299 0.000 0.000     13.400 13.410 13.70 14.050 13.900 13.580 98.100 98.900 0.000 13.71 14.080 13.940 13.600 13.67 14.000 13.840 13.530 13.420 13.430 13.390 13.360 15.676 15.373 0.298 15.554 15.383 0.171
PRIMET_226 2021-06-14 19:55:00 226 3904.0 0.00 190 0.000 0.000     13.380 13.410 13.73 14.070 13.950 13.620 97.800 98.700 0.000 13.76 14.110 13.970 13.670 13.70 14.040 13.930 13.590 13.400 13.450 13.370 13.390 15.707 15.353 0.346 15.595 15.383 0.203
PRIMET_226 2021-06-14 19:50:00 226 3904.0 0.00 292 0.000 0.000     13.420 13.460 13.80 14.160 14.030 13.700 97.500 98.500 0.000 13.85 14.210 14.070 13.740 13.75 14.110 13.980 13.650 13.450 13.490 13.390 13.430 15.778 15.393 0.394 15.676 15.433 0.235
PRIMET_226 2021-06-14 19:45:00 226 3904.0 0.00 444 0.000 0.000     13.480 13.510 13.91 14.270 14.130 13.780 97.200 98.300 0.000 13.94 14.310 14.170 13.810 13.86 14.210 14.080 13.730 13.510 13.530 13.450 13.480 15.892 15.453 0.445 15.758 15.483 0.268
PRIMET_226 2021-06-14 19:40:00 226 3904.0 0.00 253 0.000 0.000     13.520 13.540 14.02 14.350 14.220 13.870 96.800 97.900 0.000 14.11 14.430 14.280 13.920 13.95 14.310 14.170 13.810 13.580 13.570 13.480 13.510 16.005 15.494 0.512 15.850 15.514 0.333
PRIMET_226 2021-06-14 19:35:00 226 3904.0 0.00 218 0.000 0.000     13.640 13.600 14.20 14.530 14.360 14.010 96.400 97.400 0.000 14.29 14.620 14.430 14.080 14.13 14.450 14.290 13.930 13.700 13.650 13.590 13.570 16.193 15.615 0.583 15.995 15.574 0.416
PRIMET_226 2021-06-14 19:30:00 226 3904.0 0.00 421 0.038 0.038 40.230 0.000 13.750 13.730 14.37 14.690 14.520 14.170 96.100 97.200 0.346 14.47 14.780 14.620 14.250 14.29 14.610 14.430 14.090 13.830 13.810 13.700 13.660 16.372 15.727 0.639 16.162 15.707 0.453
PRIMET_226 2021-06-14 19:25:00 226 3904.0 0.00 485 0.000 0.000     13.840 13.790 14.46 14.830 14.660 14.250 96.000 97.100 0.000 14.48 14.870 14.700 14.280 14.45 14.790 14.610 14.230 13.870 13.850 13.800 13.730 16.468 15.819 0.659 16.246 15.768 0.471
PRIMET_226 2021-06-14 19:20:00 226 3904.0 0.00 196 0.000 0.000     13.830 13.750 14.49 14.810 14.620 14.280 95.800 96.600 0.000 14.54 14.830 14.650 14.330 14.47 14.800 14.600 14.240 13.850 13.800 13.810 13.710 16.500 15.809 0.693 16.277 15.727 0.553
PRIMET_226 2021-06-14 19:15:00 226 3904.0 0.00 391 0.000 0.000     13.940 13.870 14.60 14.950 14.770 14.390 95.800 96.700 0.000 14.63 15.000 14.820 14.400 14.55 14.830 14.650 14.350 13.990 13.890 13.850 13.820 16.618 15.923 0.698 16.394 15.850 0.541
PRIMET_226 2021-06-14 19:10:00 226 3904.0 0.00 258 0.053 0.053 39.830 0.127 13.840 13.820 14.60 14.940 14.760 14.400 95.200 96.300 0.268 14.62 14.980 14.790 14.420 14.58 14.900 14.730 14.380 13.940 13.860 13.760 13.770 16.618 15.819 0.798 16.404 15.799 0.607
PRIMET_226 2021-06-14 19:05:00 226 3904.0 0.00 208 0.357 0.357 39.950 0.198 13.940 13.870 14.71 15.020 14.820 14.450 95.100 96.300 0.679 14.76 15.130 14.900 14.510 14.64 14.920 14.750 14.390 14.020 13.930 13.810 13.800 16.736 15.923 0.820 16.457 15.850 0.609
PRIMET_226 2021-06-14 19:00:00 226 3904.0 0.00 436 0.285 0.284 42.980 4.699 13.990 13.930 14.74 15.120 14.900 14.510 95.200 96.300 0.666 14.76 15.140 14.930 14.520 14.73 15.090 14.870 14.490 14.020 13.970 13.960 13.900 16.769 15.974 0.805 16.521 15.912 0.611
PRIMET_226 2021-06-14 18:55:00 226 3904.0 0.00 281 0.000 0.000     13.950 13.950 14.73 15.060 14.860 14.520 95.100 96.300 0.000 14.77 15.100 14.880 14.570 14.69 15.040 14.840 14.490 14.000 14.000 13.910 13.910 16.758 15.933 0.821 16.532 15.933 0.612
PRIMET_226 2021-06-14 18:50:00 226 3904.0 0.00 238 0.000 0.000     13.990 13.960 14.87 15.160 14.940 14.630 94.500 95.800 0.000 14.92 15.250 15.010 14.660 14.78 15.050 14.860 14.580 14.030 14.000 13.920 13.920 16.910 15.974 0.930 16.650 15.943 0.699
PRIMET_226 2021-06-14 18:45:00 226 3904.0 0.00 416 0.000 0.000     14.030 14.000 14.99 15.280 15.040 14.740 93.900 95.400 0.000 15.10 15.370 15.100 14.830 14.90 15.240 14.990 14.660 14.180 14.100 13.940 13.950 17.041 16.016 1.039 16.769 15.985 0.771
PRIMET_226 2021-06-14 18:40:00 226 3904.0 0.00 194 0.000 0.000     14.190 14.080 15.12 15.470 15.250 14.840 94.100 95.200 0.000 15.16 15.520 15.300 14.860 15.08 15.380 15.140 14.780 14.220 14.140 14.150 13.930 17.184 16.183 1.014 16.877 16.068 0.810
PRIMET_226 2021-06-14 18:35:00 226 3904.0 0.00 190 0.000 0.000     14.210 14.070 15.06 15.430 15.220 14.810 94.700 95.300 0.000 15.09 15.460 15.240 14.840 15.01 15.370 15.210 14.800 14.280 14.160 14.130 13.950 17.118 16.204 0.907 16.844 16.057 0.792
PRIMET_226 2021-06-14 18:30:00 226 3904.0 0.00 328 0.000 0.000     14.080 14.020 15.05 15.320 15.140 14.800 93.900 95.100 0.000 15.12 15.380 15.180 14.840 14.98 15.270 15.100 14.750 14.100 14.070 14.030 13.940 17.107 16.068 1.044 16.834 16.005 0.825
PRIMET_226 2021-06-14 18:25:00 226 3904.0 0.00 421 0.000 0.000     14.050 13.990 15.18 15.490 15.290 14.890 93.000 94.400 0.000 15.21 15.570 15.380 14.910 15.13 15.390 15.190 14.830 14.110 14.050 13.970 13.910 17.250 16.037 1.208 16.932 15.974 0.948
PRIMET_226 2021-06-14 18:20:00 226 3904.0 0.00 235 0.000 0.000     14.070 13.850 15.26 15.610 15.350 14.900 92.600 93.500 0.000 15.31 15.690 15.400 14.930 15.20 15.540 15.310 14.870 14.230 13.990 13.960 13.780 17.339 16.057 1.283 16.942 15.830 1.101
PRIMET_226 2021-06-14 18:15:00 226 3904.0 0.00 304 0.000 0.000     14.330 14.210 15.30 15.660 15.400 14.990 94.000 95.100 0.000 15.32 15.690 15.430 15.030 15.28 15.610 15.360 14.940 14.420 14.340 14.190 14.030 17.384 16.330 1.043 17.041 16.204 0.835
PRIMET_226 2021-06-14 18:10:00 226 3904.0 0.00 195 0.000 0.000     14.330 14.280 15.24 15.560 15.330 14.960 94.300 95.700 0.000 15.28 15.590 15.350 14.990 15.19 15.530 15.300 14.910 14.410 14.310 14.290 14.250 17.317 16.330 0.987 17.008 16.277 0.731
PRIMET_226 2021-06-14 18:05:00 226 3904.0 0.00 215 0.000 0.000     14.210 14.020 15.15 15.470 15.260 14.850 94.100 94.800 0.000 15.21 15.550 15.340 14.900 15.11 15.430 15.210 14.810 14.320 14.230 14.130 13.910 17.217 16.204 1.016 16.888 16.005 0.878
PRIMET_226 2021-06-14 18:00:00 226 3904.0 0.00 196 0.000 0.000     14.270 14.080 15.17 15.470 15.230 14.880 94.400 95.000 0.000 15.21 15.530 15.300 14.950 15.11 15.410 15.160 14.810 14.350 14.280 14.130 13.840 17.239 16.267 0.965 16.921 16.068 0.846
PRIMET_226 2021-06-14 17:55:00 226 3904.0 0.00 212 0.000 0.000     14.280 14.240 15.31 15.560 15.340 15.020 93.600 95.000 0.000 15.45 15.650 15.430 15.110 15.21 15.520 15.300 14.950 14.340 14.290 14.240 14.200 17.395 16.277 1.113 17.074 16.235 0.854
PRIMET_226 2021-06-14 17:50:00 226 3904.0 0.00 210 0.000 0.000     14.300 14.210 15.63 15.840 15.600 15.210 91.800 93.800 0.000 15.75 16.020 15.770 15.280 15.47 15.670 15.430 15.130 14.410 14.270 14.250 14.190 17.756 16.298 1.456 17.284 16.204 1.072
PRIMET_226 2021-06-14 17:45:00 226 3904.0 0.00 196 0.000 0.000     14.320 14.060 15.76 16.070 15.810 15.270 91.200 92.500 0.000 15.77 16.090 15.840 15.290 15.74 16.020 15.760 15.240 14.440 14.270 14.160 13.840 17.904 16.320 1.576 17.351 16.047 1.301
PRIMET_226 2021-06-14 17:40:00 226 3904.0 0.00 186 0.000 0.000     14.330 13.920 15.77 16.060 15.800 15.310 91.200 91.400 0.000 15.80 16.110 15.860 15.350 15.76 16.020 15.760 15.240 14.430 14.080 14.190 13.820 17.916 16.330 1.577 17.395 15.902 1.496
PRIMET_226 2021-06-14 17:35:00 226 3904.0 0.00 195 0.000 0.000     14.400 14.090 15.80 16.140 15.870 15.360 91.400 92.200 0.000 15.83 16.180 15.900 15.400 15.78 16.110 15.830 15.340 14.490 14.250 14.210 13.930 17.950 16.404 1.544 17.451 16.078 1.361
PRIMET_226 2021-06-14 17:30:00 226 3904.0 0.00 192 0.000 0.000     14.440 14.300 15.76 16.100 15.850 15.390 91.800 93.200 0.000 15.79 16.160 15.910 15.420 15.74 16.030 15.790 15.360 14.530 14.390 14.320 14.180 17.904 16.447 1.468 17.485 16.298 1.189
PRIMET_226 2021-06-14 17:25:00 226 3904.0 0.00 202 0.000 0.000     14.280 14.010 15.77 16.090 15.860 15.350 90.900 91.700 0.000 15.79 16.130 15.900 15.380 15.74 16.030 15.780 15.320 14.400 14.230 14.150 13.670 17.916 16.277 1.630 17.440 15.995 1.448
PRIMET_226 2021-06-14 17:20:00 226 3904.0 0.00 252 0.000 0.000     14.190 14.030 15.87 16.130 15.870 15.350 89.800 91.900 0.000 15.90 16.210 15.960 15.400 15.81 16.050 15.810 15.240 14.270 14.130 14.080 13.830 18.031 16.183 1.839 17.440 16.016 1.413
PRIMET_226 2021-06-14 17:15:00 226 3904.0 0.00 214 0.000 0.000     14.250 13.900 15.69 15.920 15.660 15.090 91.100 92.600 0.000 15.80 16.050 15.800 15.230 15.57 15.820 15.550 15.000 14.330 14.030 14.170 13.780 17.824 16.246 1.586 17.151 15.881 1.269
PRIMET_226 2021-06-14 17:10:00 226 3904.0 0.00 203 0.000 0.000     14.210 13.860 15.43 15.760 15.490 14.970 92.500 93.100 0.000 15.56 15.830 15.560 15.000 15.27 15.640 15.410 14.930 14.280 13.940 14.140 13.780 17.530 16.204 1.315 17.019 15.840 1.174
PRIMET_226 2021-06-14 17:05:00 226 3904.0 0.00 198 0.000 0.000     13.770 13.710 15.02 15.430 15.230 14.810 92.200 93.100 0.000 15.24 15.640 15.400 14.940 14.83 15.220 15.030 14.650 14.160 13.950 13.550 13.540 17.074 15.748 1.332 16.844 15.686 1.162
PRIMET_226 2021-06-14 17:00:00 226 3904.0 0.00 198 0.000 0.000     13.540 13.570 14.75 15.090 14.900 14.530 92.500 93.900 0.000 14.83 15.220 15.030 14.640 14.71 15.030 14.840 14.450 13.660 13.680 13.490 13.470 16.779 15.514 1.258 16.543 15.544 1.009
PRIMET_226 2021-06-14 16:55:00 226 3904.0 0.00 250 0.000 0.000     13.400 13.390 14.68 15.010 14.810 14.430 92.100 93.500 0.000 14.70 15.040 14.840 14.450 14.66 14.980 14.800 14.410 13.560 13.460 13.290 13.360 16.704 15.373 1.320 16.436 15.363 1.068
PRIMET_226 2021-06-14 16:50:00 226 3904.0 0.00 202 0.000 0.000     13.330 13.280 14.69 15.000 14.810 14.440 91.600 92.700 0.000 14.71 15.030 14.830 14.490 14.65 14.970 14.780 14.390 13.430 13.360 13.180 13.200 16.715 15.303 1.404 16.447 15.253 1.201
PRIMET_226 2021-06-14 16:45:00 226 3904.0 0.00 220 0.000 0.000     13.400 13.300 14.77 15.120 14.910 14.500 91.500 92.500 0.000 14.80 15.190 14.990 14.520 14.73 15.030 14.840 14.480 13.590 13.360 13.200 13.230 16.801 15.373 1.428 16.511 15.273 1.238
PRIMET_226 2021-06-14 16:40:00 226 3904.0 0.00 195 0.141 0.141 45.510 0.287 13.320 13.340 14.68 15.030 14.860 14.420 91.600 93.200 0.523 14.71 15.110 14.910 14.460 14.65 14.980 14.810 14.400 13.470 13.420 13.020 13.210 16.704 15.293 1.403 16.426 15.313 1.117
PRIMET_226 2021-06-14 16:35:00 226 3904.0 0.00 195 0.092 0.092 48.730 0.766 13.350 13.270 14.67 15.030 14.840 14.390 91.800 93.000 0.451 14.69 15.070 14.880 14.410 14.62 14.980 14.790 14.350 13.540 13.430 12.990 13.010 16.693 15.323 1.369 16.394 15.243 1.148
PRIMET_226 2021-06-14 16:30:00 226 3904.0 0.00 186 0.365 0.365 49.030 0.088 13.170 13.140 14.63 14.930 14.770 14.350 91.000 92.500 0.536 14.69 15.000 14.820 14.390 14.58 14.900 14.730 14.320 13.340 13.310 13.090 13.030 16.650 15.144 1.498 16.351 15.114 1.226
PRIMET_226 2021-06-14 16:25:00 226 3904.0 0.00 212 0.138 0.138 49.110 0.000 13.360 13.220 14.78 15.060 14.880 14.480 91.200 92.200 0.497 14.86 15.160 14.970 14.550 14.71 14.980 14.800 14.400 13.450 13.300 13.200 13.130 16.812 15.333 1.479 16.489 15.193 1.286
PRIMET_226 2021-06-14 16:20:00 226 3904.0 0.00 197 0.000 0.000     13.220 13.060 14.87 15.230 15.040 14.570 89.900 90.600 0.000 14.92 15.290 15.100 14.610 14.82 15.180 14.980 14.530 13.460 13.370 12.770 12.540 16.910 15.193 1.708 16.586 15.035 1.559
PRIMET_226 2021-06-14 16:15:00 226 3904.0 0.00 195 0.000 0.000     13.380 13.240 14.91 15.250 15.020 14.580 90.600 91.700 0.000 14.97 15.300 15.070 14.620 14.83 15.190 15.000 14.540 13.710 13.590 12.820 12.640 16.953 15.353 1.594 16.596 15.213 1.377
PRIMET_226 2021-06-14 16:10:00 226 3904.0 0.00 224 0.000 0.000     13.510 13.420 15.01 15.270 15.050 14.620 90.800 92.500 0.000 15.08 15.350 15.120 14.640 14.93 15.240 15.020 14.590 13.600 13.500 13.430 13.350 17.063 15.483 1.570 16.639 15.393 1.248
PRIMET_226 2021-06-14 16:05:00 226 3904.0 0.00 197 0.000 0.000     13.320 13.110 15.04 15.370 15.130 14.570 89.400 90.900 0.000 15.09 15.420 15.190 14.650 15.00 15.320 15.060 14.510 13.530 13.450 13.120 12.790 17.096 15.293 1.812 16.586 15.085 1.509
PRIMET_226 2021-06-14 16:00:00 226 3904.0 0.00 187 0.121 0.120 39.480 1.146 13.350 13.090 15.02 15.340 15.090 14.550 89.700 90.900 0.784 15.04 15.370 15.140 14.600 15.00 15.310 15.060 14.510 13.480 13.340 13.060 12.810 17.074 15.323 1.759 16.564 15.065 1.507
PRIMET_226 2021-06-14 15:55:00 226 3904.0 0.00 197 0.240 0.240 45.290 0.978 12.910 12.790 14.95 15.280 15.090 14.550 87.600 89.200 0.640 15.02 15.370 15.180 14.620 14.86 15.170 14.970 14.460 13.440 13.290 12.430 12.240 16.997 14.889 2.108 16.564 14.772 1.789
PRIMET_226 2021-06-14 15:50:00 226 3904.0 0.00 188 0.000 0.000     12.850 12.550 14.87 15.150 14.950 14.460 87.700 88.300 0.000 14.90 15.220 15.030 14.530 14.83 15.100 14.910 14.420 13.140 12.820 12.420 12.190 16.910 14.830 2.080 16.468 14.541 1.927
PRIMET_226 2021-06-14 15:45:00 226 3904.0 0.00 272 0.000 0.000     12.690 12.320 14.99 15.260 15.050 14.550 86.100 86.400 0.000 15.09 15.370 15.150 14.590 14.88 15.180 14.980 14.520 13.060 12.720 12.410 11.870 17.041 14.675 2.369 16.564 14.323 2.253
PRIMET_226 2021-06-14 15:40:00 226 3904.0 0.00 198 0.016 0.016 327.700 0.000 12.670 12.220 15.06 15.290 15.060 14.550 85.600 85.900 0.248 15.09 15.350 15.130 14.570 15.04 15.240 15.000 14.540 12.840 12.440 12.410 11.990 17.118 14.656 2.465 16.564 14.229 2.336
PRIMET_226 2021-06-14 15:35:00 226 3904.0 0.00 217 0.057 0.057 327.700 0.000 12.590 12.280 15.14 15.330 15.100 14.600 84.800 86.000 0.444 15.19 15.380 15.160 14.640 15.07 15.230 14.980 14.540 12.980 12.620 12.040 11.840 17.206 14.579 2.615 16.618 14.286 2.326
PRIMET_226 2021-06-14 15:30:00 226 3904.0 0.00 222 0.239 0.239 327.500 0.084 12.740 12.100 15.12 15.240 15.010 14.560 85.700 85.200 0.510 15.17 15.280 15.070 14.620 15.07 15.170 14.940 14.530 13.030 12.620 12.410 11.460 17.184 14.724 2.457 16.575 14.117 2.453
PRIMET_226 2021-06-14 15:25:00 226 3904.0 0.00 228 0.247 0.245 325.100 4.922 12.890 12.130 15.26 15.400 15.150 14.710 85.800 84.500 0.634 15.31 15.480 15.240 14.770 15.18 15.280 15.050 14.610 13.140 12.690 12.630 11.840 17.339 14.869 2.462 16.736 14.145 2.594
PRIMET_226 2021-06-14 15:20:00 226 3904.0 0.00 211 0.255 0.255 306.400 1.613 12.820 12.430 15.39 15.520 15.280 14.890 84.600 85.200 0.503 15.54 15.660 15.420 15.010 15.29 15.400 15.150 14.760 13.060 12.920 12.490 11.900 17.485 14.801 2.693 16.932 14.427 2.506
PRIMET_226 2021-06-14 15:15:00 226 3904.0 0.00 197 0.149 0.149 304.400 0.036 12.860 12.320 15.58 15.690 15.460 15.120 83.900 83.400 0.470 15.74 15.830 15.610 15.280 15.51 15.640 15.400 15.000 13.120 12.810 12.530 11.760 17.699 14.840 2.850 17.184 14.323 2.853
PRIMET_226 2021-06-14 15:10:00 226 3904.0 0.00 222 0.000 0.000     13.280 12.750 15.91 16.140 15.880 15.520 84.300 83.500 0.000 16.05 16.360 16.100 15.690 15.77 15.870 15.640 15.310 13.520 13.070 12.910 12.350 18.077 15.253 2.838 17.631 14.733 2.909
PRIMET_226 2021-06-14 15:05:00 226 3904.0 0.00 229 0.026 0.026 0.047 0.027 13.940 13.500 16.15 16.490 16.180 15.760 86.800 86.500 0.203 16.18 16.550 16.240 15.800 16.08 16.380 16.100 15.690 14.530 14.320 13.240 12.720 18.356 15.923 2.423 17.904 15.473 2.417
PRIMET_226 2021-06-14 15:00:00 226 3904.0 0.00 208 0.000 0.000     14.210 14.040 16.08 16.420 16.150 15.770 88.700 89.400 0.000 16.13 16.490 16.190 15.800 16.03 16.340 16.090 15.730 14.510 14.190 13.910 13.890 18.274 16.204 2.065 17.916 16.026 1.899
PRIMET_226 2021-06-14 14:55:00 226 3904.0 0.00 201 0.000 0.000     13.840 13.760 16.04 16.290 16.050 15.710 86.800 88.200 0.000 16.10 16.370 16.110 15.730 15.99 16.240 16.010 15.680 14.110 13.920 13.720 13.640 18.228 15.819 2.406 17.847 15.737 2.106
PRIMET_226 2021-06-14 14:50:00 226 3904.0 0.00 191 0.000 0.000     13.780 13.680 16.06 16.370 16.080 15.580 86.300 88.400 0.000 16.14 16.490 16.190 15.700 15.91 16.230 15.910 15.390 14.090 13.930 13.450 13.470 18.251 15.758 2.500 17.699 15.656 2.053
PRIMET_226 2021-06-14 14:45:00 226 3904.0 0.00 195 0.000 0.000     13.810 13.520 15.94 16.140 15.840 15.460 87.100 88.200 0.000 16.06 16.210 15.900 15.570 15.89 16.080 15.780 15.350 14.070 13.840 13.520 13.120 18.112 15.789 2.336 17.563 15.494 2.072
PRIMET_226 2021-06-14 14:40:00 226 3904.0 0.00 192 0.192 0.189 21.930 6.075 13.690 13.420 16.02 16.210 15.910 15.480 86.000 87.600 0.751 16.11 16.320 16.040 15.580 15.95 16.120 15.820 15.420 13.920 13.810 13.270 12.910 18.204 15.666 2.549 17.586 15.393 2.181
PRIMET_226 2021-06-14 14:35:00 226 3904.0 0.00 0 0.077 0.076 23.640 2.811 13.610 13.280 16.10 16.220 15.940 15.440 85.200 87.000 0.568 16.15 16.270 15.990 15.460 16.02 16.160 15.890 15.400 13.780 13.540 13.440 13.020 18.298 15.585 2.708 17.541 15.253 2.280
PRIMET_226 2021-06-14 14:30:00 226 3904.0 0.00 187 0.000 0.000     13.620 13.310 16.17 16.270 15.970 15.480 84.900 86.900 0.000 16.19 16.320 16.020 15.510 16.13 16.230 15.920 15.460 13.960 13.550 13.260 12.850 18.379 15.595 2.775 17.586 15.283 2.304
PRIMET_226 2021-06-14 14:25:00 226 3904.0 0.00 328 0.536 0.532 317.100 7.119 13.950 13.310 16.26 16.380 16.090 15.690 86.200 85.800 0.921 16.40 16.640 16.360 15.870 16.19 16.290 15.970 15.510 14.120 13.750 13.750 13.000 18.485 15.933 2.551 17.824 15.283 2.531
PRIMET_226 2021-06-14 14:20:00 226 3904.0 0.00 186 0.220 0.174 268.900 30.800 13.880 13.430 16.46 16.640 16.380 15.900 84.700 85.300 0.823 16.50 16.780 16.540 16.000 16.41 16.540 16.280 15.850 14.500 14.310 13.220 12.880 18.722 15.861 2.864 18.065 15.403 2.656
PRIMET_226 2021-06-14 14:15:00 226 3904.0 0.00 193 0.030 0.030 227.700 0.000 14.220 14.020 16.55 16.760 16.490 15.970 86.100 88.200 0.320 16.68 16.840 16.570 16.060 16.48 16.680 16.420 15.920 14.440 14.260 13.900 13.820 18.830 16.214 2.617 18.146 16.005 2.141
PRIMET_226 2021-06-14 14:10:00 226 3904.0 0.00 196 0.022 0.022 303.900 0.116 14.340 14.060 16.71 16.810 16.530 15.990 86.000 88.300 0.307 16.74 16.860 16.610 16.050 16.66 16.750 16.460 15.920 14.950 14.280 13.900 13.820 19.022 16.341 2.663 18.170 16.047 2.126
PRIMET_226 2021-06-14 14:05:00 226 3904.0 0.00 263 0.059 0.059 304.100 0.043 14.450 14.050 16.75 16.800 16.520 16.020 86.300 88.100 0.503 16.84 16.920 16.620 16.080 16.68 16.720 16.450 15.950 14.860 14.280 14.000 13.850 19.071 16.457 2.613 18.204 16.037 2.166
PRIMET_226 2021-06-14 14:00:00 226 3904.0 0.00 257 0.278 0.207 283.900 34.350 14.610 14.090 16.68 16.700 16.390 15.850 87.600 89.200 0.771 16.75 16.780 16.500 15.930 16.60 16.610 16.290 15.770 14.980 14.370 14.250 13.760 18.986 16.628 2.354 18.008 16.078 1.945
PRIMET_226 2021-06-14 13:55:00 226 3904.0 0.00 189 0.184 0.117 328.200 32.920 14.270 13.950 16.54 16.590 16.300 15.770 86.400 89.000 0.621 16.60 16.700 16.430 15.880 16.43 16.460 16.190 15.680 14.500 14.230 13.890 13.760 18.818 16.267 2.559 17.916 15.933 1.971
PRIMET_226 2021-06-14 13:50:00 226 3904.0 0.00 198 0.059 0.059 278.500 0.349 14.330 13.980 16.42 16.440 16.120 15.570 87.500 90.300 0.320 16.49 16.520 16.200 15.660 16.37 16.380 16.020 15.480 14.610 14.210 13.880 13.690 18.675 16.330 2.334 17.688 15.964 1.716
PRIMET_226 2021-06-14 13:45:00 226 3904.0 0.00 193 0.285 0.282 303.600 6.100 14.510 14.080 16.40 16.400 16.110 15.590 88.600 90.700 0.608 16.43 16.470 16.220 15.690 16.37 16.340 16.000 15.470 14.660 14.220 14.220 13.960 18.651 16.521 2.126 17.710 16.068 1.647
PRIMET_226 2021-06-14 13:40:00 226 3904.0 0.00 194 0.073 0.072 196.000 1.505 14.400 13.970 16.46 16.490 16.220 15.680 87.600 89.500 0.529 16.53 16.610 16.360 15.730 16.43 16.420 16.160 15.630 14.600 14.290 14.200 13.710 18.722 16.404 2.322 17.813 15.954 1.870
PRIMET_226 2021-06-14 13:35:00 226 3904.0 0.00 188 0.000 0.000     14.340 14.040 16.56 16.670 16.400 15.770 86.700 89.500 0.000 16.59 16.730 16.440 15.820 16.52 16.590 16.340 15.720 14.710 14.380 13.960 13.600 18.842 16.341 2.506 17.916 16.026 1.881
PRIMET_226 2021-06-14 13:30:00 226 3904.0 0.00 300 0.097 0.097 302.600 1.368 14.540 14.090 16.51 16.470 16.150 15.570 88.100 90.900 0.732 16.56 16.670 16.370 15.710 16.43 16.320 15.980 15.520 14.750 14.360 14.320 13.900 18.782 16.553 2.235 17.688 16.078 1.610
PRIMET_226 2021-06-14 13:25:00 226 3904.0 0.00 191 0.582 0.557 301.400 16.870 14.270 13.780 16.65 16.510 16.200 15.710 85.900 88.300 0.758 16.81 16.820 16.510 15.990 16.46 16.320 16.000 15.540 14.610 14.130 13.850 13.460 18.950 16.267 2.672 17.847 15.758 2.088
PRIMET_226 2021-06-14 13:20:00 226 3904.0 0.00 332 0.569 0.536 257.400 16.370 13.790 13.140 16.87 16.860 16.580 15.990 82.100 83.300 1.751 16.91 16.960 16.730 16.120 16.82 16.700 16.380 15.800 14.500 13.890 12.020 11.650 19.216 15.768 3.440 18.170 15.114 3.034
PRIMET_226 2021-06-14 13:15:00 226 3904.0 0.00 0 0.506 0.489 282.700 14.870 14.750 14.150 16.72 16.700 16.350 15.820 88.100 89.800 0.875 16.84 16.870 16.530 15.910 16.61 16.550 16.230 15.760 15.170 14.540 14.250 13.710 19.034 16.779 2.265 17.973 16.141 1.833
PRIMET_226 2021-06-14 13:10:00 226 3904.0 0.00 183 0.451 0.391 277.900 27.130 14.560 14.090 16.70 16.650 16.360 15.920 87.200 88.900 0.869 16.76 16.740 16.440 16.030 16.66 16.560 16.290 15.820 14.870 14.370 14.290 13.770 19.010 16.575 2.433 18.088 16.078 2.008
PRIMET_226 2021-06-14 13:05:00 226 3904.0 0.00 368 0.581 0.304 295.100 55.890 14.730 14.430 16.73 16.820 16.520 16.270 88.000 88.900 0.875 16.84 16.890 16.630 16.490 16.66 16.690 16.380 16.060 15.060 15.200 14.420 13.930 19.046 16.758 2.286 18.497 16.436 2.053
PRIMET_226 2021-06-14 13:00:00 226 3904.0 0.00 286 0.105 0.105 184.300 1.276 15.210 15.090 16.96 17.030 16.740 16.610 89.500 90.800 0.588 17.05 17.110 16.840 16.700 16.88 16.920 16.630 16.480 15.480 15.300 14.870 14.700 19.326 17.284 2.029 18.902 17.151 1.739
PRIMET_226 2021-06-14 12:55:00 226 3904.0 0.00 192 0.336 0.314 94.000 18.190 14.920 14.650 17.30 17.380 17.090 16.890 86.000 86.700 0.895 17.46 17.620 17.290 16.960 17.07 17.070 16.820 16.720 15.520 15.370 12.970 13.020 19.747 16.964 2.765 19.241 16.671 2.559
PRIMET_226 2021-06-14 12:50:00 226 3904.0 0.00 282 0.299 0.258 97.100 22.170 15.370 15.030 17.74 17.760 17.430 17.240 86.100 86.900 0.980 17.93 17.990 17.630 17.380 17.52 17.540 17.180 16.990 15.870 15.600 13.320 12.540 20.303 17.462 2.822 19.672 17.085 2.577
PRIMET_226 2021-06-14 12:45:00 226 3904.0 0.00 244 0.587 0.571 66.090 13.380 15.570 15.230 18.10 18.120 17.720 17.540 85.200 86.400 0.882 18.17 18.280 17.910 17.620 18.00 17.880 17.500 17.380 16.100 15.950 15.250 12.780 20.768 17.688 3.074 20.048 17.306 2.727
PRIMET_226 2021-06-14 12:40:00 226 3904.0 0.00 320 0.248 0.180 173.000 34.290 15.170 14.870 18.06 18.060 17.710 17.470 83.200 84.800 0.843 18.16 18.190 17.880 17.600 18.00 17.910 17.560 17.380 15.680 15.560 14.790 13.860 20.716 17.239 3.480 19.960 16.910 3.034
PRIMET_226 2021-06-14 12:35:00 226 3904.0 0.00 266 0.373 0.220 128.400 43.450 15.140 14.590 18.29 18.300 18.010 17.670 81.900 82.200 1.150 18.38 18.520 18.250 17.750 18.17 18.160 17.850 17.600 15.940 15.400 13.740 12.970 21.017 17.206 3.804 20.213 16.607 3.598
PRIMET_226 2021-06-14 12:30:00 226 3904.0 0.00 0 0.277 0.197 205.600 32.240 14.260 13.790 18.31 18.360 18.110 17.600 77.420 78.490 1.150 18.48 18.480 18.200 17.650 18.24 18.240 17.990 17.530 15.920 15.450 12.420 12.730 21.043 16.256 4.752 20.124 15.768 4.329
PRIMET_226 2021-06-14 12:25:00 226 3904.0 0.00 0 0.471 0.293 277.700 49.800 15.270 14.540 18.20 18.170 17.800 17.320 83.100 83.800 0.712 18.45 18.430 18.120 17.510 18.04 18.030 17.650 17.260 16.140 15.790 13.740 12.950 20.899 17.351 3.532 19.772 16.553 3.203
PRIMET_226 2021-06-14 12:20:00 226 3904.0 0.00 0 0.528 0.501 260.000 18.000 14.130 13.630 18.03 18.040 17.740 17.340 78.020 78.900 0.830 18.27 18.290 17.920 17.470 17.90 17.900 17.630 17.280 15.120 14.600 12.900 12.470 20.677 16.120 4.545 19.797 15.605 4.177
PRIMET_226 2021-06-14 12:15:00 226 3904.0 0.00 226 0.444 0.415 222.700 20.100 14.410 13.810 18.43 18.500 18.110 17.610 77.490 78.480 0.817 18.58 18.680 18.310 17.760 18.29 18.270 17.950 17.470 15.480 15.060 13.070 12.640 21.202 16.415 4.773 20.137 15.789 4.334
PRIMET_226 2021-06-14 12:10:00 226 3904.0 0.00 235 0.119 0.083 314.500 39.860 14.890 14.250 17.98 18.190 17.860 17.310 82.100 82.300 0.457 18.30 18.520 18.130 17.510 17.58 17.700 17.460 17.050 15.520 14.820 13.860 13.580 20.612 16.932 3.690 19.759 16.246 3.497
PRIMET_226 2021-06-14 12:05:00 226 3904.0 0.00 242 0.080 0.080 337.700 1.099 13.890 13.610 17.56 17.690 17.390 16.880 79.170 81.200 0.595 17.66 17.820 17.540 17.010 17.39 17.610 17.280 16.700 15.360 15.130 12.540 12.720 20.074 15.871 4.181 19.229 15.585 3.615
PRIMET_226 2021-06-14 12:00:00 226 3904.0 0.00 351 0.260 0.239 12.610 16.120 15.190 14.590 17.00 17.070 16.800 16.320 89.100 89.500 0.862 17.37 17.550 17.240 16.630 16.79 16.760 16.490 16.120 15.780 15.150 14.630 14.180 19.375 17.262 2.112 18.556 16.607 1.948
PRIMET_226 2021-06-14 11:55:00 226 3904.0 0.00 220 0.373 0.322 344.400 26.860 15.010 14.480 16.80 16.840 16.610 16.120 89.200 90.000 1.052 16.87 16.910 16.650 16.150 16.70 16.780 16.550 16.090 15.380 14.710 14.740 14.120 19.131 17.063 2.066 18.321 16.489 1.832
PRIMET_226 2021-06-14 11:50:00 226 3904.0 0.00 187 0.011 0.011 335.000 0.014 14.770 14.340 16.61 16.800 16.480 16.050 88.900 89.500 0.216 16.67 16.860 16.550 16.080 16.57 16.710 16.430 16.040 15.130 14.470 14.420 14.230 18.902 16.801 2.098 18.239 16.341 1.915
PRIMET_226 2021-06-14 11:45:00 226 3904.0 0.00 0 0.000 0.000     14.730 14.620 16.85 17.000 16.650 16.110 87.300 90.900 0.000 16.98 17.150 16.800 16.180 16.60 16.720 16.440 16.000 15.230 15.010 14.160 14.230 19.192 16.758 2.437 18.309 16.639 1.666
PRIMET_226 2021-06-14 11:40:00 226 3904.0 0.00 0 0.147 0.141 68.980 12.300 15.080 14.620 16.71 16.780 16.360 15.770 90.100 92.900 0.425 16.85 17.000 16.620 15.980 16.58 16.570 16.070 15.600 15.440 15.030 14.770 14.140 19.022 17.140 1.883 17.916 16.639 1.272
PRIMET_226 2021-06-14 11:35:00 226 3904.0 0.00 292 0.268 0.266 298.200 6.247 14.900 14.310 16.51 16.490 16.070 15.580 90.300 92.200 0.451 16.61 16.630 16.170 15.620 16.37 16.280 15.920 15.530 15.240 14.620 14.530 13.990 18.782 16.942 1.822 17.699 16.309 1.381
PRIMET_226 2021-06-14 11:30:00 226 3904.0 0.00 246 0.567 0.506 298.700 26.540 14.770 14.320 16.65 16.550 16.200 15.790 88.700 91.000 0.830 16.85 16.700 16.370 16.020 16.41 16.250 15.930 15.590 15.160 14.560 14.230 14.020 18.950 16.801 2.141 17.939 16.320 1.614
PRIMET_226 2021-06-14 11:25:00 226 3904.0 0.00 301 0.525 0.402 272.800 39.260 14.730 14.310 16.93 16.960 16.630 16.180 86.900 88.700 0.915 17.00 17.150 16.870 16.350 16.86 16.770 16.420 16.020 15.210 14.680 13.730 13.220 19.290 16.758 2.527 18.391 16.309 2.078
PRIMET_226 2021-06-14 11:20:00 226 3904.0 0.00 349 0.276 0.105 120.600 45.130 13.400 13.230 16.92 16.900 16.670 16.290 79.800 82.100 1.032 16.97 17.050 16.820 16.360 16.83 16.810 16.590 16.210 14.530 14.430 12.290 12.170 19.277 15.373 3.894 18.521 15.203 3.315
PRIMET_226 2021-06-14 11:15:00 226 3904.0 0.00 398 0.557 0.461 35.280 32.790 13.750 13.350 16.74 16.730 16.480 16.020 82.600 84.200 0.967 16.93 17.060 16.850 16.280 16.62 16.560 16.320 15.880 15.050 14.700 11.900 11.850 19.058 15.727 3.316 18.204 15.323 2.876
PRIMET_226 2021-06-14 11:10:00 226 3904.0 0.00 243 0.164 0.155 314.700 15.030 14.510 13.870 16.82 16.690 16.350 15.810 86.300 88.300 0.621 16.91 16.890 16.500 15.910 16.69 16.550 16.240 15.720 14.810 14.400 14.260 13.550 19.155 16.521 2.624 17.962 15.850 2.102
PRIMET_226 2021-06-14 11:05:00 226 3904.0 0.00 0 0.295 0.231 233.900 32.700 14.050 13.410 16.37 16.390 16.040 15.540 86.200 87.100 1.379 16.64 16.700 16.380 15.800 16.23 16.150 15.820 15.390 15.000 13.940 13.490 13.030 18.615 16.037 2.569 17.654 15.383 2.277
PRIMET_226 2021-06-14 11:00:00 226 3904.0 0.00 227 0.402 0.218 284.700 51.990 14.700 13.960 16.02 16.020 15.710 15.190 91.900 92.400 0.967 16.26 16.320 15.930 15.390 15.80 15.820 15.540 15.080 15.020 14.560 14.120 13.220 18.204 16.725 1.475 17.262 15.943 1.312
PRIMET_226 2021-06-14 10:55:00 226 3904.0 0.00 225 0.524 0.330 282.400 46.810 13.630 13.280 15.71 15.830 15.610 15.150 87.400 88.600 1.104 15.81 15.920 15.680 15.190 15.61 15.750 15.540 15.110 14.250 13.750 13.040 12.910 17.847 15.605 2.249 17.217 15.253 1.963
PRIMET_226 2021-06-14 10:50:00 226 3904.0 0.00 243 0.369 0.219 258.000 47.700 13.960 13.600 15.53 15.750 15.530 15.070 90.400 90.900 1.228 15.71 15.970 15.730 15.210 15.24 15.380 15.180 14.780 14.360 14.040 13.050 12.960 17.642 15.943 1.694 17.129 15.574 1.559
PRIMET_226 2021-06-14 10:45:00 226 3904.0 0.00 0 0.470 0.400 222.500 27.170 14.190 13.860 15.17 15.350 15.140 14.700 93.900 94.700 1.196 15.29 15.520 15.290 14.800 15.00 15.260 15.030 14.560 14.480 14.160 13.370 13.020 17.239 16.183 1.052 16.725 15.840 0.886
PRIMET_226 2021-06-14 10:40:00 226 3904.0 0.00 294 0.012 0.012 217.900 0.009 13.620 13.310 14.78 15.020 14.820 14.390 92.800 93.200 0.242 14.98 15.260 15.020 14.530 14.65 14.870 14.670 14.270 14.120 13.790 13.280 13.100 16.812 15.595 1.210 16.394 15.283 1.115
PRIMET_226 2021-06-14 10:35:00 226 3904.0 0.00 272 0.286 0.188 269.300 39.730 13.430 13.070 14.61 14.780 14.610 14.210 92.600 92.800 0.653 14.66 14.870 14.690 14.250 14.56 14.710 14.550 14.170 13.680 13.240 13.050 12.780 16.628 15.403 1.231 16.204 15.045 1.167
PRIMET_226 2021-06-14 10:30:00 226 3904.0 0.00 302 0.567 0.185 251.900 59.470 12.980 12.750 14.74 14.860 14.670 14.310 89.200 90.300 1.209 14.96 15.080 14.850 14.470 14.61 14.730 14.560 14.210 13.500 13.170 12.540 12.390 16.769 14.957 1.811 16.309 14.733 1.582
PRIMET_226 2021-06-14 10:25:00 226 3904.0 0.00 368 0.624 0.483 216.100 38.490 13.680 13.330 15.07 15.210 14.960 14.580 91.400 92.300 1.058 15.18 15.320 15.060 14.670 14.97 15.090 14.880 14.490 14.450 13.960 13.040 12.870 17.129 15.656 1.473 16.596 15.303 1.278
PRIMET_226 2021-06-14 10:20:00 226 3904.0 0.00 205 0.471 0.420 252.200 23.740 14.210 13.880 15.18 15.370 15.110 14.680 93.900 94.900 1.176 15.25 15.520 15.280 14.790 15.11 15.230 14.960 14.560 14.460 14.000 14.040 13.780 17.250 16.204 1.052 16.704 15.861 0.852
PRIMET_226 2021-06-14 10:15:00 226 3904.0 0.00 341 0.369 0.326 215.100 25.370 13.990 13.800 15.26 15.510 15.270 14.820 92.100 93.600 0.732 15.39 15.690 15.420 14.930 15.16 15.350 15.150 14.720 14.350 14.100 13.670 13.450 17.339 15.974 1.370 16.855 15.778 1.079
PRIMET_226 2021-06-14 10:10:00 226 3904.0 0.00 394 0.036 0.032 147.500 8.530 14.410 14.220 15.36 15.670 15.400 14.900 94.100 95.700 0.359 15.41 15.750 15.450 14.950 15.31 15.600 15.300 14.810 14.550 14.360 14.270 14.090 17.451 16.415 1.030 16.942 16.214 0.729
PRIMET_226 2021-06-14 10:05:00 226 3904.0 0.00 185 0.000 0.000     14.310 13.990 15.14 15.470 15.170 14.650 94.800 95.800 0.000 15.32 15.600 15.320 14.810 14.93 15.330 15.030 14.480 14.500 14.150 14.080 13.740 17.206 16.309 0.895 16.671 15.974 0.700
PRIMET_226 2021-06-14 10:00:00 226 3904.0 0.00 325 0.107 0.107 353.700 0.092 13.820 13.380 14.85 15.140 14.890 14.390 93.600 93.700 0.464 14.91 15.280 14.980 14.440 14.76 15.040 14.810 14.330 14.030 13.670 13.390 13.180 16.888 15.799 1.081 16.394 15.353 1.033
PRIMET_226 2021-06-14 09:55:00 226 3904.0 0.00 211 0.338 0.255 218.500 36.980 13.420 13.280 14.78 15.000 14.800 14.350 91.600 93.300 0.686 14.85 15.120 14.880 14.390 14.73 14.930 14.740 14.290 13.620 13.430 13.330 13.200 16.812 15.393 1.412 16.351 15.253 1.096
PRIMET_226 2021-06-14 09:50:00 226 3904.0 0.00 234 0.384 0.262 142.300 43.210 13.620 13.360 14.82 15.040 14.810 14.390 92.500 93.600 0.836 14.88 15.130 14.900 14.430 14.70 14.930 14.720 14.310 14.040 13.660 13.160 13.080 16.855 15.595 1.264 16.394 15.333 1.049
PRIMET_226 2021-06-14 09:45:00 226 3904.0 0.00 211 0.190 0.187 153.800 6.793 13.780 13.550 14.53 14.790 14.540 14.110 95.300 96.500 0.608 14.70 14.960 14.750 14.290 14.46 14.700 14.440 14.020 13.980 13.720 13.560 13.330 16.543 15.758 0.778 16.099 15.524 0.563
PRIMET_226 2021-06-14 09:40:00 226 3904.0 0.00 208 0.237 0.180 38.960 34.370 13.660 13.400 14.28 14.600 14.330 13.810 96.100 97.400 0.614 14.43 14.880 14.630 13.970 14.19 14.450 14.200 13.680 13.880 13.630 13.490 13.170 16.277 15.635 0.635 15.789 15.373 0.411
PRIMET_226 2021-06-14 09:35:00 226 3904.0 0.00 190 0.554 0.550 35.900 7.104 13.480 13.150 14.02 14.270 14.020 13.530 96.600 97.600 0.954 14.18 14.460 14.190 13.680 13.92 14.130 13.920 13.470 13.720 13.400 13.330 13.020 16.005 15.453 0.544 15.504 15.124 0.372
PRIMET_226 2021-06-14 09:30:00 226 3904.0 0.00 370 0.000 0.000     13.500 13.130 13.85 14.110 13.890 13.380 97.700 98.400 0.000 13.97 14.260 14.060 13.490 13.74 13.980 13.780 13.300 13.600 13.260 13.410 13.070 15.830 15.473 0.364 15.353 15.104 0.246
PRIMET_226 2021-06-14 09:25:00 226 3904.0 0.00 200 0.000 0.000     13.350 13.030 13.65 13.910 13.700 13.240 98.000 98.700 0.000 13.73 13.980 13.770 13.290 13.55 13.810 13.620 13.170 13.420 13.090 13.200 12.950 15.625 15.323 0.313 15.213 15.006 0.198
PRIMET_226 2021-06-14 09:20:00 226 3904.0 0.00 258 0.000 0.000     13.150 12.960 13.51 13.780 13.600 13.160 97.700 98.700 0.000 13.53 13.820 13.650 13.190 13.49 13.720 13.570 13.130 13.200 13.010 13.090 12.920 15.483 15.124 0.356 15.134 14.937 0.197
PRIMET_226 2021-06-14 09:15:00 226 3904.0 0.00 214 0.285 0.285 211.800 2.353 13.040 12.900 13.48 13.730 13.560 13.130 97.200 98.500 0.627 13.51 13.790 13.610 13.140 13.46 13.680 13.530 13.110 13.150 12.920 12.960 12.870 15.453 15.016 0.433 15.104 14.879 0.227
PRIMET_226 2021-06-14 09:10:00 226 3904.0 0.00 244 0.342 0.327 267.800 17.180 13.210 12.920 13.59 13.770 13.590 13.150 97.500 98.500 0.738 13.64 13.860 13.660 13.180 13.52 13.690 13.520 13.130 13.310 12.970 13.040 12.870 15.564 15.183 0.389 15.124 14.898 0.227
PRIMET_226 2021-06-14 09:05:00 226 3904.0 0.00 220 0.417 0.381 275.100 21.490 13.150 12.870 13.56 13.800 13.600 13.170 97.400 98.100 0.941 13.61 13.820 13.630 13.200 13.53 13.760 13.560 13.140 13.270 12.920 13.060 12.800 15.534 15.124 0.404 15.144 14.850 0.288
PRIMET_226 2021-06-14 09:00:00 226 3904.0 0.00 229 0.186 0.181 248.100 10.390 13.070 12.830 13.57 13.780 13.600 13.170 96.800 97.800 0.503 13.63 13.830 13.630 13.190 13.53 13.750 13.570 13.140 13.130 12.880 13.010 12.750 15.544 15.045 0.497 15.144 14.811 0.333
PRIMET_226 2021-06-14 08:55:00 226 3904.0 0.00 229 0.345 0.325 262.800 18.230 13.050 12.790 13.66 13.870 13.690 13.290 96.100 96.700 0.843 13.76 14.020 13.830 13.440 13.62 13.780 13.610 13.180 13.130 12.920 12.990 12.730 15.635 15.025 0.610 15.263 14.772 0.504
PRIMET_226 2021-06-14 08:50:00 226 3904.0 0.00 278 0.600 0.529 238.900 24.230 13.220 12.960 13.84 14.040 13.850 13.450 96.000 96.900 1.568 13.95 14.170 13.940 13.520 13.76 13.940 13.750 13.390 13.420 13.120 13.040 12.790 15.819 15.193 0.633 15.423 14.937 0.478
PRIMET_226 2021-06-14 08:45:00 226 3904.0 0.00 0 0.745 0.716 240.300 15.840 13.510 13.320 14.14 14.330 14.140 13.760 96.000 97.200 1.927 14.26 14.460 14.280 13.870 14.00 14.110 13.910 13.560 13.580 13.430 13.410 13.100 16.130 15.483 0.645 15.737 15.293 0.441
PRIMET_226 2021-06-14 08:40:00 226 3904.0 0.00 292 0.295 0.291 205.200 7.851 13.630 13.410 14.39 14.620 14.400 13.960 95.200 96.500 0.588 14.47 14.700 14.470 14.010 14.28 14.470 14.300 13.900 13.670 13.480 13.560 13.340 16.394 15.605 0.787 15.943 15.383 0.558
PRIMET_226 2021-06-14 08:35:00 226 3904.0 0.00 225 0.139 0.137 254.800 7.022 13.600 13.280 14.56 14.750 14.540 14.100 94.000 94.800 0.549 14.61 14.800 14.610 14.170 14.47 14.670 14.460 14.010 13.700 13.360 13.510 13.080 16.575 15.574 0.994 16.089 15.253 0.837
PRIMET_226 2021-06-14 08:30:00 226 3904.0 0.00 270 0.476 0.372 339.400 36.000 13.290 12.930 14.54 14.770 14.570 14.150 92.200 92.400 1.052 14.59 14.860 14.650 14.200 14.49 14.700 14.510 14.110 13.550 13.250 13.040 12.640 16.553 15.263 1.291 16.141 14.908 1.227
PRIMET_226 2021-06-14 08:25:00 226 3904.0 0.00 220 0.145 0.093 306.200 30.850 13.830 13.540 14.69 14.950 14.710 14.260 94.600 95.400 0.634 14.78 15.070 14.850 14.340 14.57 14.810 14.590 14.180 14.060 13.760 13.440 13.160 16.715 15.809 0.903 16.256 15.514 0.748
PRIMET_226 2021-06-14 08:20:00 226 3904.0 0.00 200 0.257 0.087 273.000 48.860 13.410 13.130 14.45 14.700 14.490 14.050 93.500 94.200 0.889 14.62 14.930 14.710 14.250 14.31 14.530 14.320 13.920 13.930 13.790 12.870 12.550 16.457 15.383 1.070 16.037 15.104 0.930
PRIMET_226 2021-06-14 08:15:00 226 3904.0 0.00 279 0.689 0.569 241.000 32.160 13.280 12.980 14.29 14.570 14.350 13.880 93.700 94.300 1.620 14.36 14.640 14.420 13.950 14.24 14.460 14.230 13.820 13.680 13.330 12.840 12.580 16.288 15.253 1.026 15.861 14.957 0.904
PRIMET_226 2021-06-14 08:10:00 226 3904.0 0.00 194 0.422 0.132 127.200 61.920 13.340 13.100 14.33 14.530 14.330 13.890 93.800 95.000 0.960 14.40 14.620 14.430 13.930 14.26 14.460 14.260 13.830 13.460 13.260 13.170 13.000 16.330 15.313 1.012 15.871 15.075 0.794
PRIMET_226 2021-06-14 08:05:00 226 3904.0 0.00 332 0.190 0.161 256.500 25.520 13.730 13.340 14.55 14.670 14.440 13.990 94.800 95.900 0.712 14.63 14.770 14.550 14.100 14.39 14.550 14.330 13.920 13.950 13.520 13.120 13.010 16.564 15.707 0.861 15.974 15.313 0.655
PRIMET_226 2021-06-14 08:00:00 226 3904.0 0.00 232 0.796 0.713 235.100 26.240 14.060 13.560 14.72 14.880 14.650 14.200 95.800 95.900 1.189 14.77 14.950 14.740 14.290 14.64 14.790 14.550 14.080 14.200 13.700 13.870 13.470 16.747 16.047 0.703 16.193 15.534 0.664
PRIMET_226 2021-06-14 07:55:00 226 3904.0 0.00 319 0.476 0.361 225.500 36.810 14.090 13.770 14.64 14.860 14.650 14.210 96.500 97.200 1.267 14.76 15.020 14.820 14.350 14.53 14.740 14.520 14.090 14.260 13.940 13.960 13.550 16.661 16.078 0.583 16.204 15.748 0.454
PRIMET_226 2021-06-14 07:50:00 226 3904.0 0.00 256 0.432 0.411 239.100 16.320 14.010 13.720 14.46 14.700 14.490 14.050 97.100 97.900 0.804 14.52 14.780 14.580 14.090 14.40 14.640 14.450 13.980 14.090 13.800 13.890 13.600 16.468 15.995 0.478 16.037 15.697 0.337
PRIMET_226 2021-06-14 07:45:00 226 3904.0 0.00 0 0.413 0.387 247.300 16.450 14.150 13.860 14.50 14.780 14.570 14.130 97.700 98.300 1.483 14.57 14.940 14.740 14.250 14.42 14.640 14.400 13.960 14.280 14.060 14.000 13.560 16.511 16.141 0.380 16.120 15.840 0.274
PRIMET_226 2021-06-14 07:40:00 226 3904.0 0.00 210 0.000 0.000     14.250 13.930 14.47 14.770 14.610 14.120 98.500 98.800 0.000 14.55 14.850 14.710 14.210 14.38 14.640 14.470 13.980 14.290 14.020 14.180 13.820 16.479 16.246 0.247 16.110 15.912 0.193
PRIMET_226 2021-06-14 07:35:00 226 3904.0 0.00 209 0.000 0.000     14.180 13.680 14.24 14.480 14.280 13.820 99.600 99.100 0.000 14.36 14.640 14.450 13.970 14.12 14.340 14.120 13.690 14.280 13.820 14.070 13.520 16.235 16.172 0.065 15.799 15.656 0.142
PRIMET_226 2021-06-14 07:30:00 226 3904.0 0.00 334 0.090 0.088 357.600 9.660 13.980 13.560 14.01 14.330 14.110 13.670 99.800 99.300 0.425 14.10 14.380 14.160 13.700 13.91 14.270 14.060 13.560 14.050 13.620 13.890 13.470 15.995 15.964 0.032 15.646 15.534 0.110
PRIMET_226 2021-06-14 07:25:00 226 3904.0 0.00 245 0.225 0.219 340.200 8.130 13.790 13.480 13.80 14.110 13.950 13.540 100.000 99.600 0.699 13.87 14.200 14.010 13.560 13.74 14.040 13.900 13.520 13.850 13.520 13.740 13.450 15.778 15.768 0.000 15.514 15.453 0.062
PRIMET_226 2021-06-14 07:20:00 226 3904.0 0.00 252 0.055 0.055 26.760 0.061 13.640 13.340 13.64 13.930 13.780 13.380 100.000 99.700 0.444 13.73 14.030 13.920 13.520 13.51 13.780 13.620 13.260 13.730 13.480 13.510 13.210 15.615 15.615 -0.000 15.353 15.313 0.046
PRIMET_226 2021-06-14 07:15:00 226 3904.0 0.00 262 0.304 0.302 357.800 5.075 13.400 13.130 13.41 13.750 13.590 13.200 99.900 99.500 0.791 13.48 13.790 13.630 13.260 13.34 13.720 13.540 13.180 13.470 13.210 13.330 13.100 15.383 15.373 0.015 15.173 15.104 0.076
PRIMET_226 2021-06-14 07:10:00 226 3904.0 0.00 273 0.218 0.181 36.230 22.340 13.400 13.150 13.40 13.760 13.610 13.190 100.000 99.700 1.150 13.47 13.810 13.650 13.220 13.34 13.710 13.550 13.140 13.470 13.190 13.330 13.100 15.373 15.373 0.000 15.164 15.124 0.045
PRIMET_226 2021-06-14 07:05:00 226 3904.0 0.00 237 0.399 0.347 199.000 26.290 13.460 13.190 13.46 13.810 13.640 13.220 100.000 99.800 1.163 13.51 13.830 13.670 13.270 13.41 13.750 13.590 13.180 13.510 13.260 13.410 13.150 15.433 15.433 0.000 15.193 15.164 0.030
PRIMET_226 2021-06-14 07:00:00 226 3904.0 0.00 364 0.201 0.190 221.300 11.690 13.630 13.370 13.63 14.000 13.830 13.370 100.000 100.000 0.634 13.69 14.090 13.910 13.420 13.52 13.850 13.690 13.280 13.690 13.420 13.520 13.270 15.605 15.605 0.000 15.343 15.343 -0.000
PRIMET_226 2021-06-14 06:55:00 226 3904.0 0.00 297 0.050 0.050 345.400 1.298 13.610 13.390 13.61 14.040 13.880 13.390 100.000 100.000 0.529 13.65 14.060 13.900 13.410 13.57 14.010 13.840 13.360 13.650 13.410 13.570 13.360 15.585 15.585 0.000 15.363 15.363 0.000
PRIMET_226 2021-06-14 06:50:00 226 3904.0 0.00 339 0.188 0.187 143.600 3.122 13.620 13.410 13.62 14.060 13.890 13.410 100.000 100.000 0.719 13.65 14.110 13.950 13.440 13.59 14.010 13.830 13.370 13.650 13.440 13.590 13.370 15.595 15.595 0.000 15.383 15.383 -0.000
PRIMET_226 2021-06-14 06:45:00 226 3904.0 0.00 406 0.145 0.142 179.400 6.412 13.700 13.450 13.70 14.090 13.910 13.450 100.000 100.000 1.222 13.74 14.150 13.950 13.490 13.62 13.980 13.800 13.380 13.740 13.490 13.620 13.380 15.676 15.676 0.000 15.423 15.423 0.000
PRIMET_226 2021-06-14 06:40:00 226 3904.0 0.00 229 0.000 0.000     13.690 13.450 13.69 14.090 13.910 13.450 100.000 100.000 0.000 13.70 14.100 13.930 13.460 13.68 14.070 13.900 13.440 13.700 13.460 13.680 13.440 15.666 15.666 0.000 15.423 15.423 0.000
PRIMET_226 2021-06-14 06:35:00 226 3904.0 0.00 222 0.000 0.000     13.630 13.410 13.63 14.040 13.870 13.410 100.000 100.000 0.000 13.68 14.080 13.920 13.460 13.61 14.010 13.840 13.370 13.680 13.460 13.610 13.370 15.605 15.605 0.000 15.383 15.383 -0.000
PRIMET_226 2021-06-14 06:30:00 226 3904.0 0.00 306 0.000 0.000     13.560 13.320 13.56 13.950 13.770 13.320 100.000 100.000 0.000 13.61 14.000 13.830 13.370 13.50 13.910 13.730 13.290 13.610 13.370 13.500 13.290 15.534 15.534 0.000 15.293 15.293 0.000
PRIMET_226 2021-06-14 06:25:00 226 3904.0 0.00 241 0.000 0.000     13.490 13.270 13.49 13.900 13.730 13.270 100.000 100.000 0.000 13.52 13.920 13.760 13.300 13.46 13.860 13.690 13.240 13.520 13.300 13.460 13.240 15.463 15.463 0.000 15.243 15.243 0.000
PRIMET_226 2021-06-14 06:20:00 226 3904.0 0.00 237 0.000 0.000     13.440 13.220 13.44 13.840 13.670 13.220 100.000 100.000 0.000 13.46 13.870 13.690 13.240 13.42 13.820 13.650 13.200 13.460 13.240 13.420 13.200 15.413 15.413 0.000 15.193 15.193 0.000
PRIMET_226 2021-06-14 06:15:00 226 3904.0 0.00 211 0.000 0.000     13.430 13.210 13.43 13.830 13.670 13.210 100.000 100.000 0.000 13.45 13.850 13.680 13.220 13.42 13.820 13.650 13.190 13.450 13.220 13.420 13.190 15.403 15.403 0.000 15.183 15.183 0.000
PRIMET_226 2021-06-14 06:10:00 226 3904.0 0.00 235 0.062 0.062 75.220 0.721 13.410 13.200 13.41 13.800 13.650 13.200 100.000 100.000 0.399 13.43 13.830 13.670 13.210 13.39 13.770 13.630 13.180 13.430 13.210 13.390 13.180 15.383 15.383 -0.000 15.173 15.173 0.000
PRIMET_226 2021-06-14 06:05:00 226 3904.0 0.00 328 0.000 0.000     13.370 13.150 13.37 13.760 13.610 13.150 100.000 100.000 0.000 13.41 13.800 13.630 13.190 13.32 13.700 13.560 13.110 13.410 13.190 13.320 13.110 15.343 15.343 -0.000 15.124 15.124 0.000
PRIMET_226 2021-06-14 06:00:00 226 3904.0 0.00 381 0.000 0.000     13.330 13.120 13.33 13.740 13.570 13.120 100.000 100.000 0.000 13.35 13.770 13.600 13.140 13.31 13.710 13.560 13.090 13.350 13.140 13.310 13.090 15.303 15.303 0.000 15.094 15.094 0.000
PRIMET_226 2021-06-14 05:55:00 226 3904.0 0.00 276 0.000 0.000     13.320 13.090 13.32 13.720 13.550 13.090 100.000 100.000 0.000 13.34 13.740 13.570 13.110 13.31 13.710 13.540 13.080 13.340 13.110 13.310 13.080 15.293 15.293 0.000 15.065 15.065 0.000
PRIMET_226 2021-06-14 05:50:00 226 3904.0 0.00 243 0.000 0.000     13.320 13.080 13.32 13.720 13.550 13.080 100.000 100.000 0.000 13.34 13.740 13.570 13.100 13.30 13.700 13.520 13.070 13.340 13.100 13.300 13.070 15.293 15.293 0.000 15.055 15.055 0.000
PRIMET_226 2021-06-14 05:45:00 226 3904.0 0.00 290 0.000 0.000     13.290 13.060 13.29 13.690 13.530 13.060 100.000 100.000 0.000 13.31 13.710 13.540 13.080 13.28 13.690 13.520 13.050 13.310 13.080 13.280 13.050 15.263 15.263 0.000 15.035 15.035 0.000
PRIMET_226 2021-06-14 05:40:00 226 3904.0 0.00 253 0.000 0.000     13.290 13.070 13.29 13.700 13.540 13.070 100.000 100.000 0.000 13.31 13.710 13.550 13.080 13.28 13.690 13.520 13.050 13.310 13.080 13.280 13.050 15.263 15.263 0.000 15.045 15.045 0.000
PRIMET_226 2021-06-14 05:35:00 226 3904.0 0.00 360 0.000 0.000     13.330 13.060 13.33 13.690 13.530 13.060 100.000 100.000 0.000 13.34 13.700 13.540 13.070 13.30 13.670 13.510 13.030 13.340 13.070 13.300 13.030 15.303 15.303 0.000 15.035 15.035 0.000
PRIMET_226 2021-06-14 05:30:00 226 3904.0 0.00 279 0.000 0.000     13.280 13.030 13.28 13.660 13.510 13.030 100.000 100.000 0.000 13.32 13.690 13.530 13.060 13.22 13.620 13.470 13.000 13.320 13.060 13.220 13.000 15.253 15.253 0.000 15.006 15.006 0.000
PRIMET_226 2021-06-14 05:25:00 226 3904.0 0.00 245 0.000 0.000     13.170 12.960 13.17 13.570 13.430 12.960 100.000 100.000 0.000 13.21 13.620 13.470 13.000 13.13 13.520 13.380 12.920 13.210 13.000 13.130 12.920 15.144 15.144 0.000 14.937 14.937 -0.000
PRIMET_226 2021-06-14 05:20:00 226 3904.0 0.00 233 0.000 0.000     13.140 12.930 13.14 13.530 13.380 12.930 100.000 100.000 0.000 13.16 13.540 13.390 12.950 13.10 13.510 13.350 12.890 13.160 12.950 13.100 12.890 15.114 15.114 0.000 14.908 14.908 0.000
PRIMET_226 2021-06-14 05:15:00 226 3904.0 0.00 228 0.000 0.000     13.080 12.870 13.08 13.480 13.310 12.870 100.000 100.000 0.000 13.10 13.510 13.350 12.890 13.07 13.460 13.290 12.850 13.100 12.890 13.070 12.850 15.055 15.055 0.000 14.850 14.850 0.000
PRIMET_226 2021-06-14 05:10:00 226 3904.0 0.00 350 0.000 0.000     13.070 12.870 13.07 13.470 13.320 12.870 100.000 100.000 0.000 13.09 13.480 13.330 12.890 13.05 13.460 13.310 12.860 13.090 12.890 13.050 12.860 15.045 15.045 0.000 14.850 14.850 0.000
PRIMET_226 2021-06-14 05:05:00 226 3904.0 0.00 256 0.000 0.000     13.060 12.860 13.06 13.450 13.310 12.860 100.000 100.000 0.000 13.08 13.460 13.320 12.880 13.04 13.440 13.300 12.850 13.080 12.880 13.040 12.850 15.035 15.035 0.000 14.840 14.840 0.000
PRIMET_226 2021-06-14 05:00:00 226 3904.0 0.00 297 0.000 0.000     13.040 12.850 13.04 13.430 13.290 12.850 100.000 100.000 0.000 13.05 13.440 13.300 12.870 13.02 13.420 13.280 12.830 13.050 12.870 13.020 12.830 15.016 15.016 0.000 14.830 14.830 0.000
PRIMET_226 2021-06-14 04:55:00 226 3904.0 0.00 295 0.000 0.000     13.030 12.840 13.03 13.420 13.280 12.840 100.000 100.000 0.000 13.05 13.430 13.290 12.840 13.02 13.410 13.270 12.820 13.050 12.840 13.020 12.820 15.006 15.006 0.000 14.820 14.820 0.000
PRIMET_226 2021-06-14 04:50:00 226 3904.0 0.00 296 0.000 0.000     13.020 12.830 13.02 13.420 13.280 12.830 100.000 100.000 0.000 13.05 13.430 13.290 12.850 13.01 13.400 13.260 12.820 13.050 12.850 13.010 12.820 14.996 14.996 0.000 14.811 14.811 0.000
PRIMET_226 2021-06-14 04:45:00 226 3904.0 0.00 317 0.000 0.000     13.030 12.840 13.03 13.410 13.270 12.840 100.000 100.000 0.000 13.04 13.420 13.290 12.850 13.01 13.400 13.260 12.830 13.040 12.850 13.010 12.830 15.006 15.006 0.000 14.820 14.820 0.000
PRIMET_226 2021-06-14 04:40:00 226 3904.0 0.00 341 0.000 0.000     13.030 12.850 13.03 13.420 13.280 12.850 100.000 100.000 0.000 13.05 13.440 13.290 12.870 13.02 13.410 13.260 12.830 13.050 12.870 13.020 12.830 15.006 15.006 0.000 14.830 14.830 0.000
PRIMET_226 2021-06-14 04:35:00 226 3904.0 0.00 269 0.000 0.000     13.060 12.870 13.06 13.440 13.310 12.870 100.000 100.000 0.000 13.07 13.460 13.330 12.890 13.05 13.420 13.290 12.860 13.070 12.890 13.050 12.860 15.035 15.035 0.000 14.850 14.850 0.000
PRIMET_226 2021-06-14 04:30:00 226 3904.0 0.00 240 0.000 0.000     13.050 12.850 13.05 13.440 13.290 12.850 100.000 100.000 0.000 13.07 13.460 13.320 12.870 13.03 13.410 13.270 12.830 13.070 12.870 13.030 12.830 15.025 15.025 0.000 14.830 14.830 0.000
PRIMET_226 2021-06-14 04:25:00 226 3904.0 0.00 248 0.000 0.000     13.020 12.840 13.02 13.410 13.270 12.840 100.000 100.000 0.000 13.03 13.430 13.280 12.850 13.01 13.400 13.260 12.820 13.030 12.850 13.010 12.820 14.996 14.996 0.000 14.820 14.820 0.000
PRIMET_226 2021-06-14 04:20:00 226 3904.0 0.00 248 0.000 0.000     13.030 12.850 13.03 13.420 13.280 12.850 100.000 100.000 0.000 13.04 13.430 13.290 12.860 13.01 13.410 13.270 12.830 13.040 12.860 13.010 12.830 15.006 15.006 0.000 14.830 14.830 0.000
PRIMET_226 2021-06-14 04:15:00 226 3904.0 0.00 228 0.000 0.000     13.030 12.850 13.03 13.420 13.280 12.850 100.000 100.000 0.000 13.04 13.430 13.290 12.870 13.02 13.410 13.270 12.840 13.040 12.870 13.020 12.840 15.006 15.006 0.000 14.830 14.830 0.000
PRIMET_226 2021-06-14 04:10:00 226 3904.0 0.00 214 0.000 0.000     13.030 12.860 13.03 13.420 13.290 12.860 100.000 100.000 0.000 13.04 13.430 13.290 12.870 13.02 13.410 13.280 12.840 13.040 12.870 13.020 12.840 15.006 15.006 0.000 14.840 14.840 0.000
PRIMET_226 2021-06-14 04:05:00 226 3904.0 0.00 244 0.000 0.000     13.020 12.850 13.02 13.420 13.280 12.850 100.000 100.000 0.000 13.04 13.430 13.290 12.870 13.01 13.410 13.270 12.840 13.040 12.870 13.010 12.840 14.996 14.996 0.000 14.830 14.830 0.000
PRIMET_226 2021-06-14 04:00:00 226 3904.0 0.00 247 0.000 0.000     13.030 12.840 13.03 13.410 13.270 12.840 100.000 100.000 0.000 13.04 13.420 13.290 12.860 13.02 13.400 13.260 12.830 13.040 12.860 13.020 12.830 15.006 15.006 0.000 14.820 14.820 0.000
PRIMET_226 2021-06-14 03:55:00 226 3904.0 0.00 238 0.000 0.000     13.030 12.850 13.03 13.420 13.290 12.850 100.000 100.000 0.000 13.05 13.430 13.300 12.870 13.02 13.410 13.270 12.840 13.050 12.870 13.020 12.840 15.006 15.006 0.000 14.830 14.830 0.000
PRIMET_226 2021-06-14 03:50:00 226 3904.0 0.00 211 0.000 0.000     13.050 12.860 13.05 13.430 13.290 12.860 100.000 100.000 0.000 13.07 13.440 13.300 12.880 13.04 13.420 13.280 12.840 13.070 12.880 13.040 12.840 15.025 15.025 0.000 14.840 14.840 0.000
PRIMET_226 2021-06-14 03:45:00 226 3904.0 0.00 212 0.000 0.000     13.080 12.900 13.08 13.450 13.310 12.900 100.000 100.000 0.000 13.10 13.480 13.330 12.930 13.06 13.430 13.290 12.870 13.100 12.930 13.060 12.870 15.055 15.055 0.000 14.879 14.879 0.000
PRIMET_226 2021-06-14 03:40:00 226 3904.0 0.00 304 0.000 0.000     13.100 12.930 13.10 13.500 13.360 12.930 100.000 100.000 0.000 13.11 13.510 13.380 12.950 13.08 13.480 13.330 12.920 13.110 12.950 13.080 12.920 15.075 15.075 0.000 14.908 14.908 0.000
PRIMET_226 2021-06-14 03:35:00 226 3904.0 0.00 270 0.000 0.000     13.080 12.900 13.08 13.470 13.340 12.900 100.000 100.000 0.000 13.09 13.480 13.350 12.920 13.06 13.460 13.330 12.870 13.090 12.920 13.060 12.870 15.055 15.055 0.000 14.879 14.879 0.000
PRIMET_226 2021-06-14 03:30:00 226 3904.0 0.00 240 0.000 0.000     13.090 12.890 13.09 13.480 13.330 12.890 100.000 100.000 0.000 13.10 13.490 13.340 12.900 13.07 13.460 13.330 12.890 13.100 12.900 13.070 12.890 15.065 15.065 0.000 14.869 14.869 -0.000
PRIMET_226 2021-06-14 03:25:00 226 3904.0 0.00 308 0.000 0.000     13.080 12.880 13.08 13.460 13.320 12.880 100.000 100.000 0.000 13.09 13.480 13.340 12.900 13.07 13.450 13.310 12.870 13.090 12.900 13.070 12.870 15.055 15.055 0.000 14.859 14.859 0.000
PRIMET_226 2021-06-14 03:20:00 226 3904.0 0.00 256 0.000 0.000     13.090 12.890 13.09 13.460 13.320 12.890 100.000 100.000 0.000 13.11 13.480 13.330 12.910 13.06 13.440 13.310 12.880 13.110 12.910 13.060 12.880 15.065 15.065 0.000 14.869 14.869 -0.000
PRIMET_226 2021-06-14 03:15:00 226 3904.0 0.00 218 0.000 0.000     13.100 12.900 13.10 13.490 13.330 12.900 100.000 100.000 0.000 13.12 13.500 13.350 12.920 13.09 13.480 13.320 12.890 13.120 12.920 13.090 12.890 15.075 15.075 0.000 14.879 14.879 0.000
PRIMET_226 2021-06-14 03:10:00 226 3904.0 0.00 191 0.000 0.000     13.110 12.910 13.11 13.490 13.340 12.910 100.000 100.000 0.000 13.12 13.490 13.350 12.930 13.10 13.480 13.320 12.890 13.120 12.930 13.100 12.890 15.085 15.085 -0.000 14.889 14.889 0.000
PRIMET_226 2021-06-14 03:05:00 226 3904.0 0.00 197 0.000 0.000     13.170 12.980 13.17 13.530 13.380 12.980 100.000 100.000 0.000 13.23 13.600 13.450 13.030 13.11 13.490 13.320 12.920 13.230 13.030 13.110 12.920 15.144 15.144 0.000 14.957 14.957 0.000
PRIMET_226 2021-06-14 03:00:00 226 3904.0 0.00 241 0.000 0.000     13.220 13.010 13.22 13.610 13.460 13.010 100.000 100.000 0.000 13.24 13.620 13.470 13.030 13.19 13.590 13.440 12.990 13.240 13.030 13.190 12.990 15.193 15.193 0.000 14.986 14.986 0.000
PRIMET_226 2021-06-14 02:55:00 226 3904.0 0.00 257 0.061 0.061 187.500 2.382 13.170 12.970 13.17 13.560 13.420 12.970 100.000 100.000 0.412 13.19 13.590 13.460 13.000 13.15 13.530 13.380 12.940 13.190 13.000 13.150 12.940 15.144 15.144 0.000 14.947 14.947 -0.000
PRIMET_226 2021-06-14 02:50:00 226 3904.0 0.00 239 0.366 0.211 59.860 47.120 13.180 12.980 13.18 13.560 13.410 12.980 100.000 100.000 0.693 13.21 13.580 13.440 13.010 13.16 13.530 13.380 12.960 13.210 13.010 13.160 12.960 15.154 15.154 0.000 14.957 14.957 0.000
PRIMET_226 2021-06-14 02:45:00 226 3904.0 0.00 281 0.095 0.095 15.730 1.265 13.190 12.980 13.19 13.570 13.420 12.980 100.000 100.000 0.581 13.20 13.600 13.450 13.000 13.16 13.550 13.400 12.970 13.200 13.000 13.160 12.970 15.164 15.164 -0.000 14.957 14.957 0.000
PRIMET_226 2021-06-14 02:40:00 226 3904.0 0.00 252 0.000 0.000     13.220 13.010 13.22 13.590 13.440 13.010 100.000 100.000 0.000 13.25 13.610 13.460 13.030 13.20 13.560 13.410 12.980 13.250 13.030 13.200 12.980 15.193 15.193 0.000 14.986 14.986 0.000
PRIMET_226 2021-06-14 02:35:00 226 3904.0 0.00 265 0.000 0.000     13.240 13.020 13.24 13.620 13.460 13.020 100.000 100.000 0.000 13.25 13.650 13.490 13.040 13.23 13.590 13.440 13.000 13.250 13.040 13.230 13.000 15.213 15.213 0.000 14.996 14.996 0.000
PRIMET_226 2021-06-14 02:30:00 226 3904.0 0.00 313 0.000 0.000     13.190 12.990 13.19 13.580 13.430 12.990 100.000 100.000 0.000 13.23 13.620 13.460 13.020 13.16 13.540 13.400 12.970 13.230 13.020 13.160 12.970 15.164 15.164 -0.000 14.967 14.967 0.000
PRIMET_226 2021-06-14 02:25:00 226 3904.0 0.00 320 0.000 0.000     13.180 12.980 13.18 13.560 13.410 12.980 100.000 100.000 0.000 13.19 13.580 13.420 13.000 13.17 13.540 13.390 12.960 13.190 13.000 13.170 12.960 15.154 15.154 0.000 14.957 14.957 0.000
PRIMET_226 2021-06-14 02:20:00 226 3904.0 0.00 272 0.115 0.115 40.810 0.000 13.210 13.010 13.21 13.600 13.440 13.010 100.000 100.000 0.529 13.25 13.620 13.480 13.040 13.19 13.560 13.420 12.970 13.250 13.040 13.190 12.970 15.183 15.183 0.000 14.986 14.986 0.000
PRIMET_226 2021-06-14 02:15:00 226 3904.0 0.00 270 0.000 0.000     13.230 13.020 13.23 13.610 13.460 13.020 100.000 100.000 0.000 13.25 13.630 13.490 13.040 13.22 13.590 13.440 13.000 13.250 13.040 13.220 13.000 15.203 15.203 0.000 14.996 14.996 0.000
PRIMET_226 2021-06-14 02:10:00 226 3904.0 0.00 253 0.000 0.000     13.230 13.010 13.23 13.610 13.460 13.010 100.000 100.000 0.000 13.25 13.630 13.470 13.030 13.22 13.600 13.440 12.990 13.250 13.030 13.220 12.990 15.203 15.203 0.000 14.986 14.986 0.000
PRIMET_226 2021-06-14 02:05:00 226 3904.0 0.00 430 0.000 0.000     13.230 13.020 13.23 13.610 13.460 13.020 100.000 100.000 0.000 13.24 13.630 13.470 13.040 13.22 13.600 13.450 13.010 13.240 13.040 13.220 13.010 15.203 15.203 0.000 14.996 14.996 0.000
PRIMET_226 2021-06-14 02:00:00 226 3904.0 0.00 416 0.000 0.000     13.240 13.020 13.24 13.610 13.460 13.020 100.000 100.000 0.000 13.26 13.640 13.490 13.040 13.23 13.590 13.430 13.010 13.260 13.040 13.230 13.010 15.213 15.213 0.000 14.996 14.996 0.000
PRIMET_226 2021-06-14 01:55:00 226 3904.0 0.00 485 0.000 0.000     13.280 13.060 13.28 13.650 13.500 13.060 100.000 100.000 0.000 13.30 13.670 13.530 13.090 13.25 13.610 13.450 13.020 13.300 13.090 13.250 13.020 15.253 15.253 0.000 15.035 15.035 0.000
PRIMET_226 2021-06-14 01:50:00 226 3904.0 0.00 227 0.160 0.160 38.820 0.475 13.290 13.090 13.29 13.670 13.530 13.090 100.000 100.000 0.738 13.32 13.700 13.550 13.120 13.26 13.660 13.510 13.070 13.320 13.120 13.260 13.070 15.263 15.263 0.000 15.065 15.065 0.000
PRIMET_226 2021-06-14 01:45:00 226 3904.0 0.00 463 0.029 0.029 39.360 0.501 13.320 13.130 13.32 13.710 13.560 13.130 100.000 100.000 0.562 13.34 13.720 13.570 13.140 13.30 13.690 13.540 13.110 13.340 13.140 13.300 13.110 15.293 15.293 0.000 15.104 15.104 0.000
PRIMET_226 2021-06-14 01:40:00 226 3904.0 0.00 268 0.000 0.000     13.310 13.110 13.31 13.700 13.560 13.110 100.000 100.000 0.000 13.33 13.720 13.570 13.130 13.27 13.680 13.530 13.070 13.330 13.130 13.270 13.070 15.283 15.283 0.000 15.085 15.085 -0.000
PRIMET_226 2021-06-14 01:35:00 226 3904.0 0.00 245 0.000 0.000     13.300 13.070 13.30 13.660 13.510 13.070 100.000 100.000 0.000 13.33 13.680 13.530 13.090 13.28 13.650 13.490 13.050 13.330 13.090 13.280 13.050 15.273 15.273 0.000 15.045 15.045 0.000
PRIMET_226 2021-06-14 01:30:00 226 3904.0 0.00 197 0.000 0.000     13.360 13.130 13.36 13.710 13.560 13.130 100.000 100.000 0.000 13.38 13.760 13.610 13.180 13.33 13.670 13.510 13.080 13.380 13.180 13.330 13.080 15.333 15.333 0.000 15.104 15.104 0.000
PRIMET_226 2021-06-14 01:25:00 226 3904.0 0.00 198 0.000 0.000     13.360 13.160 13.36 13.740 13.600 13.160 100.000 100.000 0.000 13.37 13.770 13.630 13.180 13.34 13.720 13.580 13.150 13.370 13.180 13.340 13.150 15.333 15.333 0.000 15.134 15.134 0.000
PRIMET_226 2021-06-14 01:20:00 226 3904.0 0.00 221 0.129 0.128 16.390 4.876 13.310 13.130 13.31 13.720 13.570 13.130 100.000 100.000 0.510 13.35 13.760 13.620 13.160 13.28 13.680 13.530 13.090 13.350 13.160 13.280 13.090 15.283 15.283 0.000 15.104 15.104 0.000
PRIMET_226 2021-06-14 01:15:00 226 3904.0 0.00 208 0.269 0.124 151.300 47.920 13.310 13.120 13.31 13.690 13.550 13.120 100.000 100.000 0.797 13.33 13.720 13.580 13.140 13.29 13.680 13.530 13.100 13.330 13.140 13.290 13.100 15.283 15.283 0.000 15.094 15.094 0.000
PRIMET_226 2021-06-14 01:10:00 226 3904.0 0.00 233 0.327 0.326 23.670 2.186 13.310 13.120 13.31 13.700 13.560 13.120 100.000 100.000 1.202 13.32 13.720 13.570 13.130 13.29 13.690 13.540 13.120 13.320 13.130 13.290 13.120 15.283 15.283 0.000 15.094 15.094 0.000
PRIMET_226 2021-06-14 01:05:00 226 3904.0 0.00 451 0.000 0.000     13.320 13.120 13.32 13.710 13.560 13.120 100.000 100.000 0.000 13.33 13.720 13.570 13.130 13.29 13.690 13.550 13.110 13.330 13.130 13.290 13.110 15.293 15.293 0.000 15.094 15.094 0.000
PRIMET_226 2021-06-14 01:00:00 226 3904.0 0.00 234 0.000 0.000     13.300 13.110 13.30 13.690 13.550 13.110 100.000 100.000 0.000 13.31 13.700 13.570 13.120 13.29 13.680 13.540 13.100 13.310 13.120 13.290 13.100 15.273 15.273 0.000 15.085 15.085 -0.000
PRIMET_226 2021-06-14 00:55:00 226 3904.0 0.00 233 0.000 0.000     13.290 13.100 13.29 13.680 13.550 13.100 100.000 100.000 0.000 13.32 13.690 13.560 13.120 13.28 13.670 13.540 13.080 13.320 13.120 13.280 13.080 15.263 15.263 0.000 15.075 15.075 0.000
PRIMET_226 2021-06-14 00:50:00 226 3904.0 0.00 241 0.000 0.000     13.280 13.100 13.28 13.680 13.540 13.100 100.000 100.000 0.000 13.30 13.690 13.560 13.120 13.27 13.670 13.530 13.090 13.300 13.120 13.270 13.090 15.253 15.253 0.000 15.075 15.075 0.000
PRIMET_226 2021-06-14 00:45:00 226 3904.0 0.00 241 0.000 0.000     13.280 13.100 13.28 13.680 13.540 13.100 100.000 100.000 0.000 13.31 13.700 13.570 13.110 13.27 13.670 13.530 13.090 13.310 13.110 13.270 13.090 15.253 15.253 0.000 15.075 15.075 0.000
PRIMET_226 2021-06-14 00:40:00 226 3904.0 0.00 241 0.382 0.380 34.510 4.956 13.290 13.100 13.29 13.680 13.530 13.100 100.000 100.000 0.849 13.31 13.690 13.550 13.110 13.28 13.670 13.520 13.070 13.310 13.110 13.280 13.070 15.263 15.263 0.000 15.075 15.075 0.000
PRIMET_226 2021-06-14 00:35:00 226 3904.0 0.00 254 0.308 0.308 48.990 0.824 13.330 13.150 13.33 13.710 13.570 13.150 100.000 100.000 0.934 13.35 13.740 13.600 13.190 13.29 13.670 13.530 13.110 13.350 13.190 13.290 13.110 15.303 15.303 0.000 15.124 15.124 0.000
PRIMET_226 2021-06-14 00:30:00 226 3904.0 0.00 272 0.000 0.000     13.310 13.140 13.31 13.710 13.580 13.140 100.000 100.000 0.000 13.34 13.740 13.620 13.180 13.28 13.680 13.540 13.110 13.340 13.180 13.280 13.110 15.283 15.283 0.000 15.114 15.114 0.000
PRIMET_226 2021-06-14 00:25:00 226 3904.0 0.00 245 0.000 0.000     13.280 13.100 13.28 13.670 13.530 13.100 100.000 100.000 0.000 13.30 13.680 13.550 13.120 13.27 13.660 13.520 13.090 13.300 13.120 13.270 13.090 15.253 15.253 0.000 15.075 15.075 0.000
PRIMET_226 2021-06-14 00:20:00 226 3904.0 0.00 255 0.344 0.344 53.550 2.672 13.320 13.130 13.32 13.700 13.570 13.130 100.000 100.000 0.797 13.34 13.720 13.590 13.150 13.30 13.660 13.540 13.110 13.340 13.150 13.300 13.110 15.293 15.293 0.000 15.104 15.104 0.000
PRIMET_226 2021-06-14 00:15:00 226 3904.0 0.00 244 0.000 0.000     13.270 13.080 13.27 13.670 13.530 13.080 100.000 100.000 0.000 13.32 13.710 13.570 13.120 13.22 13.610 13.480 13.040 13.320 13.120 13.220 13.040 15.243 15.243 0.000 15.055 15.055 0.000
PRIMET_226 2021-06-14 00:10:00 226 3904.0 0.00 256 0.000 0.000     13.240 13.050 13.24 13.610 13.470 13.050 100.000 100.000 0.000 13.26 13.620 13.480 13.070 13.22 13.590 13.460 13.040 13.260 13.070 13.220 13.040 15.213 15.213 0.000 15.025 15.025 0.000
PRIMET_226 2021-06-14 00:05:00 226 3904.0 0.00 275 0.000 0.000     13.250 13.070 13.25 13.640 13.490 13.070 100.000 100.000 0.000 13.26 13.650 13.510 13.090 13.24 13.620 13.480 13.060 13.260 13.090 13.240 13.060 15.223 15.223 0.000 15.045 15.045 0.000
PRIMET_226 2021-06-14 00:00:00 226 3904.0 0.00 282 0.000 0.000     13.270 13.090 13.27 13.650 13.510 13.090 100.000 100.000 0.000 13.28 13.670 13.530 13.110 13.25 13.630 13.500 13.080 13.280 13.110 13.250 13.080 15.243 15.243 0.000 15.065 15.065 0.000
PRIMET_226 2021-06-13 23:55:00 226 3904.0 0.00 278 0.000 0.000     13.290 13.110 13.29 13.670 13.530 13.110 100.000 100.000 0.000 13.31 13.700 13.550 13.150 13.27 13.650 13.520 13.090 13.310 13.150 13.270 13.090 15.263 15.263 0.000 15.085 15.085 -0.000
PRIMET_226 2021-06-13 23:50:00 226 3904.0 0.00 319 0.000 0.000     13.300 13.120 13.30 13.700 13.550 13.120 100.000 100.000 0.000 13.32 13.720 13.570 13.150 13.28 13.680 13.530 13.100 13.320 13.150 13.280 13.100 15.273 15.273 0.000 15.094 15.094 0.000
PRIMET_226 2021-06-13 23:45:00 226 3904.0 0.00 322 0.000 0.000     13.300 13.110 13.30 13.690 13.530 13.110 100.000 100.000 0.000 13.32 13.710 13.560 13.140 13.28 13.670 13.520 13.090 13.320 13.140 13.280 13.090 15.273 15.273 0.000 15.085 15.085 -0.000
PRIMET_226 2021-06-13 23:40:00 226 3904.0 0.00 269 0.295 0.291 49.250 8.050 13.340 13.150 13.34 13.730 13.580 13.150 100.000 100.000 0.784 13.36 13.750 13.610 13.170 13.32 13.700 13.550 13.130 13.360 13.170 13.320 13.130 15.313 15.313 0.000 15.124 15.124 0.000
PRIMET_226 2021-06-13 23:35:00 226 3904.0 0.00 214 0.400 0.399 39.680 2.547 13.350 13.160 13.35 13.750 13.600 13.160 100.000 100.000 0.542 13.36 13.750 13.610 13.170 13.34 13.740 13.590 13.140 13.360 13.170 13.340 13.140 15.323 15.323 0.000 15.134 15.134 0.000
PRIMET_226 2021-06-13 23:30:00 226 3904.0 0.00 215 0.263 0.263 39.600 0.157 13.350 13.160 13.35 13.740 13.590 13.160 100.000 100.000 0.679 13.37 13.750 13.600 13.170 13.34 13.730 13.590 13.130 13.370 13.170 13.340 13.130 15.323 15.323 0.000 15.134 15.134 0.000
PRIMET_226 2021-06-13 23:25:00 226 3904.0 0.00 237 0.000 0.000     13.390 13.180 13.39 13.770 13.610 13.180 100.000 100.000 0.000 13.42 13.790 13.650 13.210 13.36 13.730 13.580 13.140 13.420 13.210 13.360 13.140 15.363 15.363 0.000 15.154 15.154 0.000
PRIMET_226 2021-06-13 23:20:00 226 3904.0 0.00 216 0.000 0.000     13.420 13.220 13.42 13.800 13.650 13.220 100.000 100.000 0.000 13.43 13.810 13.660 13.230 13.40 13.790 13.640 13.190 13.430 13.230 13.400 13.190 15.393 15.393 0.000 15.193 15.193 0.000
PRIMET_226 2021-06-13 23:15:00 226 3904.0 0.00 238 0.000 0.000     13.420 13.230 13.42 13.820 13.670 13.230 100.000 100.000 0.000 13.44 13.830 13.690 13.250 13.39 13.800 13.640 13.210 13.440 13.250 13.390 13.210 15.393 15.393 0.000 15.203 15.203 0.000
PRIMET_226 2021-06-13 23:10:00 226 3904.0 0.00 225 0.269 0.269 39.970 0.233 13.420 13.220 13.42 13.820 13.650 13.220 100.000 100.000 0.764 13.43 13.830 13.680 13.240 13.40 13.800 13.630 13.190 13.430 13.240 13.400 13.190 15.393 15.393 0.000 15.193 15.193 0.000
PRIMET_226 2021-06-13 23:05:00 226 3904.0 0.00 237 0.057 0.057 40.360 0.000 13.460 13.270 13.46 13.850 13.690 13.270 100.000 100.000 0.751 13.49 13.880 13.730 13.300 13.43 13.810 13.660 13.220 13.490 13.300 13.430 13.220 15.433 15.433 0.000 15.243 15.243 0.000
PRIMET_226 2021-06-13 23:00:00 226 3904.0 0.00 242 0.000 0.000     13.500 13.310 13.50 13.890 13.740 13.310 100.000 100.000 0.000 13.51 13.900 13.750 13.320 13.48 13.870 13.730 13.290 13.510 13.320 13.480 13.290 15.473 15.473 0.000 15.283 15.283 0.000
PRIMET_226 2021-06-13 22:55:00 226 3904.0 0.00 232 0.315 0.311 44.650 9.120 13.540 13.320 13.54 13.910 13.750 13.320 100.000 100.000 0.666 13.59 13.950 13.780 13.370 13.50 13.890 13.730 13.280 13.590 13.370 13.500 13.280 15.514 15.514 0.000 15.293 15.293 0.000
PRIMET_226 2021-06-13 22:50:00 226 3904.0 0.00 270 0.044 0.044 38.150 0.130 13.610 13.400 13.61 14.000 13.840 13.400 100.000 100.000 0.444 13.63 14.020 13.860 13.420 13.57 13.960 13.790 13.380 13.630 13.420 13.570 13.380 15.585 15.585 0.000 15.373 15.373 0.000
PRIMET_226 2021-06-13 22:45:00 226 3904.0 0.00 257 0.254 0.252 29.840 5.554 13.580 13.380 13.58 13.970 13.820 13.380 100.000 100.000 0.764 13.59 13.990 13.830 13.390 13.56 13.950 13.810 13.350 13.590 13.390 13.560 13.350 15.554 15.554 0.000 15.353 15.353 0.000
PRIMET_226 2021-06-13 22:40:00 226 3904.0 0.00 334 0.000 0.000     13.580 13.370 13.58 13.970 13.820 13.370 100.000 100.000 0.000 13.60 13.980 13.830 13.380 13.56 13.950 13.800 13.360 13.600 13.380 13.560 13.360 15.554 15.554 0.000 15.343 15.343 -0.000
PRIMET_226 2021-06-13 22:35:00 226 3904.0 0.00 211 0.000 0.000     13.590 13.390 13.59 13.980 13.820 13.390 100.000 100.000 0.000 13.60 13.990 13.840 13.410 13.57 13.970 13.810 13.360 13.600 13.410 13.570 13.360 15.564 15.564 -0.000 15.363 15.363 0.000
PRIMET_226 2021-06-13 22:30:00 226 3904.0 0.00 288 0.000 0.000     13.600 13.410 13.60 13.990 13.850 13.410 100.000 100.000 0.000 13.62 14.000 13.860 13.430 13.59 13.990 13.840 13.400 13.620 13.430 13.590 13.400 15.574 15.574 0.000 15.383 15.383 -0.000
PRIMET_226 2021-06-13 22:25:00 226 3904.0 0.00 186 0.000 0.000     13.610 13.400 13.61 13.990 13.840 13.400 100.000 100.000 0.000 13.62 14.000 13.860 13.410 13.59 13.980 13.830 13.370 13.620 13.410 13.590 13.370 15.585 15.585 0.000 15.373 15.373 0.000
PRIMET_226 2021-06-13 22:20:00 226 3904.0 0.00 277 0.243 0.236 25.730 12.430 13.570 13.370 13.57 13.960 13.810 13.370 100.000 100.000 0.412 13.61 13.980 13.830 13.410 13.55 13.950 13.790 13.350 13.610 13.410 13.550 13.350 15.544 15.544 -0.000 15.343 15.343 -0.000
PRIMET_226 2021-06-13 22:15:00 226 3904.0 0.00 263 0.340 0.339 37.000 4.906 13.640 13.440 13.64 14.020 13.860 13.440 100.000 100.000 0.614 13.70 14.070 13.910 13.490 13.60 13.980 13.830 13.390 13.700 13.490 13.600 13.390 15.615 15.615 -0.000 15.413 15.413 0.000
PRIMET_226 2021-06-13 22:10:00 226 3904.0 0.00 232 0.522 0.521 38.200 3.218 13.750 13.560 13.75 14.130 13.960 13.560 100.000 100.000 0.869 13.80 14.190 14.010 13.600 13.69 14.070 13.910 13.500 13.800 13.600 13.690 13.500 15.727 15.727 0.000 15.534 15.534 0.000
PRIMET_226 2021-06-13 22:05:00 226 3904.0 0.00 238 0.509 0.508 31.900 2.772 13.780 13.580 13.78 14.170 14.000 13.580 100.000 100.000 0.928 13.80 14.190 14.030 13.610 13.76 14.140 13.980 13.560 13.800 13.610 13.760 13.560 15.758 15.758 -0.000 15.554 15.554 0.000
PRIMET_226 2021-06-13 22:00:00 226 3904.0 0.00 238 0.000 0.000     13.850 13.660 13.85 14.230 14.060 13.660 100.000 100.000 0.000 13.90 14.260 14.090 13.700 13.80 14.170 14.010 13.620 13.900 13.700 13.800 13.620 15.830 15.830 0.000 15.635 15.635 0.000
PRIMET_226 2021-06-13 21:55:00 226 3904.0 0.00 292 0.000 0.000     13.940 13.740 13.94 14.290 14.120 13.740 100.000 100.000 0.000 14.01 14.330 14.160 13.790 13.90 14.250 14.080 13.690 14.010 13.790 13.900 13.690 15.923 15.923 -0.000 15.717 15.717 0.000
PRIMET_226 2021-06-13 21:50:00 226 3904.0 0.00 289 0.000 0.000     14.070 13.870 14.07 14.430 14.260 13.870 100.000 100.000 0.000 14.10 14.500 14.350 13.920 14.02 14.340 14.170 13.810 14.100 13.920 14.020 13.810 16.057 16.057 0.000 15.850 15.850 0.000
PRIMET_226 2021-06-13 21:45:00 226 3904.0 0.00 252 0.042 0.042 3.873 0.093 14.090 13.910 14.09 14.490 14.330 13.910 100.000 100.000 0.451 14.12 14.520 14.360 13.930 14.07 14.470 14.310 13.890 14.120 13.930 14.070 13.890 16.078 16.078 0.000 15.892 15.892 0.000
PRIMET_226 2021-06-13 21:40:00 226 3904.0 0.00 245 0.036 0.036 29.850 0.039 14.100 13.910 14.10 14.500 14.340 13.910 100.000 100.000 0.497 14.12 14.510 14.350 13.930 14.08 14.480 14.320 13.890 14.120 13.930 14.080 13.890 16.089 16.089 0.000 15.892 15.892 0.000
PRIMET_226 2021-06-13 21:35:00 226 3904.0 0.00 263 0.390 0.389 25.380 4.144 14.130 13.910 14.13 14.510 14.350 13.930 100.000 99.900 0.634 14.16 14.530 14.360 13.950 14.10 14.490 14.320 13.910 14.160 13.930 14.100 13.900 16.120 16.120 0.000 15.912 15.892 0.016
PRIMET_226 2021-06-13 21:30:00 226 3904.0 0.00 326 0.208 0.208 27.790 1.795 14.200 13.990 14.20 14.580 14.420 14.020 100.000 99.800 0.549 14.24 14.610 14.450 14.050 14.16 14.530 14.370 13.970 14.240 14.010 14.160 13.950 16.193 16.193 0.000 16.005 15.974 0.032
PRIMET_226 2021-06-13 21:25:00 226 3904.0 0.00 301 0.292 0.289 25.070 5.586 14.310 14.070 14.31 14.660 14.500 14.130 100.000 99.600 0.987 14.42 14.750 14.580 14.240 14.22 14.580 14.430 14.050 14.420 14.180 14.220 13.990 16.309 16.309 0.000 16.120 16.057 0.064
PRIMET_226 2021-06-13 21:20:00 226 3904.0 0.00 317 0.085 0.085 96.900 0.135 14.480 14.260 14.48 14.820 14.650 14.310 100.000 99.600 0.333 14.57 14.900 14.730 14.410 14.42 14.760 14.590 14.250 14.570 14.370 14.420 14.190 16.489 16.489 0.000 16.309 16.256 0.065
PRIMET_226 2021-06-13 21:15:00 226 3904.0 0.00 237 0.139 0.139 96.900 0.271 14.770 14.620 14.77 15.110 14.930 14.630 100.000 100.000 0.405 14.94 15.290 15.120 14.810 14.59 14.920 14.740 14.430 14.940 14.810 14.590 14.400 16.801 16.801 0.000 16.650 16.639 0.000
PRIMET_226 2021-06-13 21:10:00 226 3904.0 0.00 249 0.334 0.294 153.800 20.830 15.080 14.910 15.08 15.440 15.280 14.910 100.000 100.000 1.352 15.13 15.530 15.360 14.960 14.98 15.310 15.140 14.820 15.130 14.960 14.980 14.820 17.140 17.140 0.000 16.953 16.953 0.000
PRIMET_226 2021-06-13 21:05:00 226 3904.0 0.00 252 0.000 0.000     15.170 14.990 15.17 15.550 15.380 14.990 100.000 100.000 0.000 15.22 15.600 15.440 15.030 15.12 15.510 15.350 14.940 15.220 15.030 15.120 14.940 17.239 17.239 0.000 17.041 17.041 0.000
PRIMET_226 2021-06-13 21:00:00 226 3904.0 0.00 230 0.000 0.000     15.230 15.050 15.23 15.610 15.450 15.050 100.000 100.000 0.000 15.26 15.620 15.470 15.060 15.21 15.600 15.440 15.030 15.260 15.060 15.210 15.030 17.306 17.306 0.000 17.107 17.107 0.000
PRIMET_226 2021-06-13 20:55:00 226 3904.0 0.00 235 0.078 0.078 9.200 2.288 15.230 15.050 15.23 15.630 15.470 15.050 100.000 100.000 0.353 15.26 15.660 15.500 15.070 15.20 15.610 15.440 15.020 15.260 15.070 15.200 15.020 17.306 17.306 0.000 17.107 17.107 0.000
PRIMET_226 2021-06-13 20:50:00 226 3904.0 0.00 226 0.297 0.286 25.160 10.810 15.220 15.030 15.22 15.610 15.440 15.030 100.000 100.000 0.777 15.24 15.630 15.450 15.050 15.20 15.580 15.410 15.010 15.240 15.050 15.200 15.010 17.295 17.295 0.000 17.085 17.085 0.000
PRIMET_226 2021-06-13 20:45:00 226 3904.0 0.00 228 0.000 0.000     15.210 15.010 15.21 15.590 15.420 15.010 100.000 100.000 0.000 15.23 15.610 15.450 15.030 15.20 15.570 15.390 14.990 15.230 15.030 15.200 14.990 17.284 17.284 0.000 17.063 17.063 0.000
PRIMET_226 2021-06-13 20:40:00 226 3904.0 0.00 237 0.000 0.000     15.200 15.000 15.20 15.560 15.380 15.000 100.000 100.000 0.000 15.23 15.570 15.400 15.040 15.18 15.540 15.370 14.980 15.230 15.040 15.180 14.980 17.273 17.273 0.000 17.052 17.052 0.000
PRIMET_226 2021-06-13 20:35:00 226 3904.0 0.00 251 0.607 0.536 87.300 26.900 15.300 15.120 15.30 15.640 15.480 15.120 100.000 100.000 1.071 15.37 15.760 15.590 15.190 15.22 15.560 15.390 15.040 15.370 15.190 15.220 15.040 17.384 17.384 0.000 17.184 17.184 0.000
PRIMET_226 2021-06-13 20:30:00 226 3904.0 0.00 228 0.054 0.054 33.260 0.252 15.390 15.200 15.39 15.770 15.610 15.200 100.000 100.000 0.510 15.42 15.800 15.630 15.230 15.36 15.730 15.590 15.180 15.420 15.230 15.360 15.180 17.485 17.485 0.000 17.273 17.273 0.000
PRIMET_226 2021-06-13 20:25:00 226 3904.0 0.00 290 0.000 0.000     15.440 15.230 15.44 15.830 15.650 15.230 100.000 100.000 0.000 15.46 15.840 15.670 15.250 15.42 15.790 15.630 15.210 15.460 15.250 15.420 15.210 17.541 17.541 0.000 17.306 17.306 0.000
PRIMET_226 2021-06-13 20:20:00 226 3904.0 0.00 313 0.184 0.182 61.900 5.944 15.510 15.300 15.51 15.880 15.700 15.300 100.000 100.000 0.627 15.57 15.940 15.760 15.350 15.46 15.840 15.660 15.250 15.570 15.350 15.460 15.250 17.620 17.620 0.000 17.384 17.384 0.000
PRIMET_226 2021-06-13 20:15:00 226 3904.0 0.00 218 0.000 0.000     15.540 15.340 15.54 15.930 15.760 15.340 100.000 100.000 0.000 15.56 15.940 15.770 15.360 15.51 15.920 15.750 15.320 15.560 15.360 15.510 15.320 17.654 17.654 0.000 17.429 17.429 0.000
PRIMET_226 2021-06-13 20:10:00 226 3904.0 0.00 238 0.215 0.215 29.990 2.800 15.520 15.330 15.52 15.910 15.730 15.330 100.000 100.000 0.745 15.53 15.920 15.760 15.350 15.51 15.900 15.710 15.320 15.530 15.350 15.510 15.320 17.631 17.631 0.000 17.418 17.418 0.000
PRIMET_226 2021-06-13 20:05:00 226 3904.0 0.00 207 0.000 0.000     15.530 15.340 15.53 15.910 15.740 15.340 100.000 100.000 0.000 15.54 15.920 15.750 15.350 15.50 15.900 15.720 15.320 15.540 15.350 15.500 15.320 17.642 17.642 0.000 17.429 17.429 0.000
PRIMET_226 2021-06-13 20:00:00 226 3904.0 0.00 238 0.285 0.273 46.520 13.950 15.570 15.360 15.57 15.940 15.760 15.360 100.000 100.000 0.706 15.59 15.970 15.790 15.380 15.55 15.900 15.740 15.330 15.590 15.380 15.550 15.330 17.688 17.688 0.000 17.451 17.451 0.000
PRIMET_226 2021-06-13 19:55:00 226 3904.0 0.00 244 0.000 0.000     15.550 15.350 15.55 15.940 15.760 15.350 100.000 100.000 0.000 15.57 15.960 15.780 15.370 15.53 15.920 15.740 15.340 15.570 15.370 15.530 15.340 17.665 17.665 0.000 17.440 17.440 0.000
PRIMET_226 2021-06-13 19:50:00 226 3904.0 0.00 288 0.000 0.000     15.560 15.370 15.56 15.940 15.760 15.370 100.000 100.000 0.000 15.58 15.960 15.770 15.390 15.55 15.920 15.740 15.350 15.580 15.390 15.550 15.350 17.676 17.676 0.000 17.462 17.462 0.000
PRIMET_226 2021-06-13 19:45:00 226 3904.0 0.00 240 0.000 0.000     15.570 15.380 15.57 15.960 15.780 15.380 100.000 100.000 0.000 15.59 15.970 15.790 15.390 15.56 15.940 15.780 15.360 15.590 15.390 15.560 15.360 17.688 17.688 0.000 17.474 17.474 0.000
PRIMET_226 2021-06-13 19:40:00 226 3904.0 0.00 260 0.000 0.000     15.590 15.400 15.59 15.970 15.790 15.400 100.000 100.000 0.000 15.61 15.990 15.810 15.410 15.58 15.960 15.780 15.370 15.610 15.410 15.580 15.370 17.710 17.710 0.000 17.496 17.496 0.000
PRIMET_226 2021-06-13 19:35:00 226 3904.0 0.00 287 0.000 0.000     15.610 15.400 15.61 16.000 15.810 15.400 100.000 100.000 0.000 15.62 16.010 15.820 15.420 15.60 15.980 15.800 15.380 15.620 15.420 15.600 15.380 17.733 17.733 0.000 17.496 17.496 0.000
PRIMET_226 2021-06-13 19:30:00 226 3904.0 0.00 267 0.000 0.000     15.630 15.410 15.64 16.010 15.820 15.410 99.900 100.000 0.000 15.66 16.030 15.830 15.440 15.62 15.990 15.800 15.390 15.650 15.430 15.620 15.390 17.767 17.756 0.018 17.507 17.507 0.000
PRIMET_226 2021-06-13 19:25:00 226 3904.0 0.00 201 0.000 0.000     15.660 15.440 15.68 16.040 15.850 15.450 99.900 99.900 0.000 15.71 16.060 15.870 15.490 15.65 16.020 15.820 15.420 15.690 15.480 15.630 15.410 17.813 17.790 0.018 17.552 17.541 0.018
PRIMET_226 2021-06-13 19:20:00 226 3904.0 0.00 282 0.000 0.000     15.720 15.500 15.74 16.110 15.930 15.520 99.900 99.900 0.000 15.77 16.150 15.970 15.530 15.71 16.070 15.860 15.500 15.760 15.520 15.690 15.470 17.881 17.859 0.018 17.631 17.609 0.018
PRIMET_226 2021-06-13 19:15:00 226 3904.0 0.00 225 0.256 0.256 192.400 3.003 15.700 15.460 15.74 16.100 15.910 15.500 99.800 99.700 0.673 15.78 16.120 15.930 15.530 15.71 16.070 15.880 15.470 15.740 15.490 15.670 15.430 17.881 17.836 0.036 17.609 17.563 0.053
PRIMET_226 2021-06-13 19:10:00 226 3904.0 0.00 230 0.034 0.034 179.200 0.146 15.770 15.530 15.81 16.150 15.950 15.580 99.700 99.700 0.640 15.85 16.170 15.970 15.640 15.78 16.130 15.920 15.530 15.820 15.610 15.740 15.490 17.962 17.916 0.054 17.699 17.642 0.053
PRIMET_226 2021-06-13 19:05:00 226 3904.0 0.00 248 0.000 0.000     15.910 15.690 15.93 16.270 16.060 15.710 99.900 99.900 0.000 15.97 16.340 16.140 15.740 15.86 16.170 15.960 15.650 15.970 15.740 15.840 15.630 18.100 18.077 0.018 17.847 17.824 0.018
PRIMET_226 2021-06-13 19:00:00 226 3904.0 0.00 260 0.000 0.000     15.910 15.670 15.92 16.310 16.120 15.680 99.900 99.900 0.000 15.97 16.350 16.160 15.730 15.88 16.270 16.080 15.640 15.960 15.730 15.860 15.620 18.088 18.077 0.018 17.813 17.801 0.018
PRIMET_226 2021-06-13 18:55:00 226 3904.0 0.00 194 0.000 0.000     15.830 15.580 15.85 16.220 16.030 15.600 99.900 99.800 0.007 15.88 16.260 16.070 15.640 15.83 16.180 16.000 15.570 15.860 15.630 15.800 15.540 18.008 17.985 0.018 17.722 17.699 0.035
PRIMET_226 2021-06-13 18:50:00 226 3904.0 0.00 325 0.488 0.483 61.480 7.923 15.830 15.580 15.87 16.220 16.030 15.620 99.800 99.800 0.928 15.89 16.270 16.080 15.650 15.83 16.180 16.000 15.580 15.860 15.620 15.800 15.550 18.031 17.985 0.036 17.745 17.699 0.035
PRIMET_226 2021-06-13 18:45:00 226 3904.0 0.00 192 0.037 0.036 54.040 3.223 15.820 15.600 15.87 16.250 16.060 15.640 99.700 99.700 0.725 15.90 16.270 16.090 15.650 15.85 16.240 16.040 15.610 15.850 15.610 15.800 15.570 18.031 17.973 0.054 17.767 17.722 0.053
PRIMET_226 2021-06-13 18:40:00 226 3904.0 0.00 193 0.349 0.348 212.700 2.593 15.870 15.630 15.93 16.290 16.090 15.690 99.600 99.600 0.581 15.97 16.330 16.140 15.710 15.90 16.260 16.050 15.640 15.890 15.650 15.840 15.590 18.100 18.031 0.072 17.824 17.756 0.071
PRIMET_226 2021-06-13 18:35:00 226 3904.0 0.00 197 0.000 0.000     15.850 15.610 15.94 16.330 16.130 15.700 99.400 99.500 0.000 15.97 16.350 16.150 15.710 15.93 16.300 16.110 15.670 15.890 15.630 15.830 15.580 18.112 18.008 0.109 17.836 17.733 0.089
PRIMET_226 2021-06-13 18:30:00 226 3904.0 0.00 193 0.000 0.000     15.900 15.640 15.99 16.340 16.130 15.720 99.500 99.500 0.000 16.04 16.410 16.200 15.780 15.93 16.300 16.100 15.680 15.960 15.710 15.840 15.600 18.170 18.065 0.091 17.859 17.767 0.089
PRIMET_226 2021-06-13 18:25:00 226 3904.0 0.00 197 0.000 0.000     15.890 15.650 15.99 16.350 16.140 15.740 99.400 99.400 0.000 16.03 16.390 16.180 15.770 15.94 16.310 16.110 15.690 15.940 15.700 15.820 15.580 18.170 18.054 0.109 17.881 17.779 0.107
PRIMET_226 2021-06-13 18:20:00 226 3904.0 0.00 190 0.382 0.381 196.200 1.878 15.860 15.540 15.97 16.290 16.090 15.660 99.300 99.300 0.771 16.00 16.350 16.130 15.680 15.92 16.260 16.060 15.630 15.900 15.570 15.800 15.510 18.146 18.019 0.127 17.790 17.654 0.125
PRIMET_226 2021-06-13 18:15:00 226 3904.0 0.00 334 0.000 0.000     15.910 15.520 15.98 16.310 16.070 15.630 99.500 99.300 0.000 16.00 16.330 16.100 15.650 15.96 16.280 16.050 15.610 15.930 15.530 15.880 15.500 18.158 18.077 0.091 17.756 17.631 0.124
PRIMET_226 2021-06-13 18:10:00 226 3904.0 0.00 424 0.229 0.229 43.550 1.407 15.890 15.590 15.94 16.320 16.080 15.660 99.700 99.500 0.980 15.97 16.370 16.130 15.680 15.91 16.290 16.050 15.640 15.910 15.630 15.860 15.540 18.112 18.054 0.054 17.790 17.710 0.089
PRIMET_226 2021-06-13 18:05:00 226 3904.0 0.00 213 0.167 0.167 52.090 1.077 15.820 15.580 15.86 16.240 16.040 15.620 99.800 99.700 1.006 15.92 16.310 16.100 15.670 15.80 16.180 15.990 15.570 15.880 15.620 15.750 15.530 18.019 17.973 0.036 17.745 17.699 0.053
PRIMET_226 2021-06-13 18:00:00 226 3904.0 0.00 218 0.000 0.000     15.720 15.490 15.77 16.150 15.950 15.540 99.700 99.700 0.000 15.80 16.170 15.980 15.560 15.75 16.130 15.940 15.520 15.760 15.520 15.690 15.470 17.916 17.859 0.054 17.654 17.597 0.053
PRIMET_226 2021-06-13 17:55:00 226 3904.0 0.00 214 0.000 0.000     15.710 15.470 15.76 16.130 15.920 15.510 99.700 99.700 0.000 15.77 16.150 15.950 15.530 15.75 16.100 15.900 15.490 15.720 15.490 15.700 15.450 17.904 17.847 0.054 17.620 17.575 0.053
PRIMET_226 2021-06-13 17:50:00 226 3904.0 0.00 349 0.000 0.000     15.710 15.460 15.77 16.120 15.920 15.510 99.600 99.700 0.000 15.79 16.140 15.930 15.550 15.75 16.110 15.900 15.490 15.730 15.500 15.690 15.430 17.916 17.847 0.072 17.620 17.563 0.053
PRIMET_226 2021-06-13 17:45:00 226 3904.0 0.00 264 0.000 0.000     15.730 15.490 15.79 16.150 15.970 15.550 99.600 99.700 0.000 15.81 16.170 15.990 15.560 15.76 16.130 15.940 15.530 15.750 15.520 15.680 15.470 17.939 17.870 0.072 17.665 17.597 0.053
PRIMET_226 2021-06-13 17:40:00 226 3904.0 0.00 238 0.000 0.000     15.650 15.440 15.74 16.120 15.930 15.510 99.400 99.500 0.000 15.76 16.140 15.950 15.520 15.72 16.110 15.910 15.500 15.680 15.450 15.630 15.430 17.881 17.779 0.107 17.620 17.541 0.088
PRIMET_226 2021-06-13 17:35:00 226 3904.0 0.00 240 0.000 0.000     15.690 15.470 15.79 16.160 15.960 15.550 99.400 99.500 0.000 15.84 16.230 16.020 15.580 15.73 16.120 15.930 15.510 15.760 15.510 15.630 15.430 17.939 17.824 0.108 17.665 17.575 0.088
PRIMET_226 2021-06-13 17:30:00 226 3904.0 0.00 262 0.000 0.000     15.740 15.460 15.82 16.190 15.970 15.540 99.500 99.500 0.000 15.84 16.220 16.020 15.570 15.79 16.140 15.920 15.500 15.760 15.500 15.710 15.420 17.973 17.881 0.090 17.654 17.563 0.088
PRIMET_226 2021-06-13 17:25:00 226 3904.0 0.00 258 0.000 0.000     15.750 15.490 15.82 16.180 15.960 15.550 99.500 99.700 0.000 15.84 16.200 15.970 15.560 15.81 16.140 15.930 15.520 15.780 15.510 15.730 15.460 17.973 17.893 0.090 17.665 17.597 0.053
PRIMET_226 2021-06-13 17:20:00 226 3904.0 0.00 287 0.127 0.015 209.300 51.080 15.740 15.470 15.80 16.150 15.930 15.510 99.600 99.700 0.412 15.84 16.210 15.990 15.570 15.75 16.100 15.870 15.460 15.780 15.520 15.680 15.420 17.950 17.881 0.072 17.620 17.575 0.053
PRIMET_226 2021-06-13 17:15:00 226 3904.0 0.00 272 0.000 0.000     15.590 15.400 15.68 16.010 15.830 15.450 99.400 99.700 0.000 15.74 16.080 15.870 15.470 15.63 15.950 15.770 15.410 15.660 15.430 15.530 15.350 17.813 17.710 0.107 17.552 17.496 0.053
PRIMET_226 2021-06-13 17:10:00 226 3904.0 0.00 334 0.004 0.004 3.158 0.000 15.580 15.360 15.68 16.000 15.810 15.430 99.300 99.600 0.072 15.71 16.050 15.860 15.460 15.64 15.960 15.770 15.410 15.610 15.390 15.540 15.340 17.813 17.699 0.125 17.530 17.451 0.070
PRIMET_226 2021-06-13 17:05:00 226 3904.0 0.00 191 0.082 0.082 5.641 1.218 15.600 15.390 15.72 16.060 15.870 15.460 99.200 99.500 0.379 15.74 16.090 15.900 15.480 15.70 16.010 15.820 15.440 15.620 15.410 15.560 15.360 17.859 17.722 0.143 17.563 17.485 0.088
PRIMET_226 2021-06-13 17:00:00 226 3904.0 0.00 374 0.074 0.073 353.200 3.115 15.520 15.340 15.69 16.040 15.850 15.440 98.900 99.300 0.431 15.72 16.060 15.880 15.470 15.66 16.010 15.830 15.410 15.570 15.370 15.470 15.290 17.824 17.631 0.196 17.541 17.429 0.123
PRIMET_226 2021-06-13 16:55:00 226 3904.0 0.00 225 0.242 0.242 219.100 0.779 15.510 15.340 15.73 16.060 15.870 15.470 98.600 99.200 0.621 15.82 16.160 15.970 15.550 15.68 16.010 15.820 15.410 15.620 15.440 15.450 15.280 17.870 17.620 0.250 17.575 17.429 0.141
PRIMET_226 2021-06-13 16:50:00 226 3904.0 0.00 191 0.000 0.000     15.630 15.480 15.86 16.220 16.020 15.600 98.600 99.300 0.000 15.87 16.250 16.060 15.620 15.83 16.160 15.980 15.570 15.650 15.500 15.610 15.450 18.019 17.756 0.252 17.722 17.586 0.124
PRIMET_226 2021-06-13 16:45:00 226 3904.0 0.00 228 0.000 0.000     15.580 15.460 15.86 16.220 16.020 15.610 98.200 99.100 0.000 15.90 16.250 16.050 15.640 15.84 16.190 15.990 15.580 15.610 15.500 15.550 15.430 18.019 17.699 0.324 17.733 17.563 0.160
PRIMET_226 2021-06-13 16:40:00 226 3904.0 0.00 269 0.000 0.000     15.620 15.480 15.93 16.270 16.060 15.660 98.000 98.900 0.000 15.98 16.300 16.100 15.700 15.89 16.190 16.010 15.630 15.650 15.510 15.590 15.460 18.100 17.745 0.362 17.790 17.586 0.196
PRIMET_226 2021-06-13 16:35:00 226 3904.0 0.00 257 0.000 0.000     15.700 15.570 16.01 16.360 16.160 15.740 98.000 98.900 0.000 16.04 16.420 16.210 15.760 15.98 16.290 16.090 15.710 15.740 15.610 15.650 15.510 18.193 17.836 0.364 17.881 17.688 0.197
PRIMET_226 2021-06-13 16:30:00 226 3904.0 0.00 302 0.000 0.000     15.720 15.580 16.04 16.380 16.180 15.750 98.000 98.900 0.000 16.05 16.410 16.190 15.770 16.02 16.340 16.150 15.740 15.740 15.610 15.680 15.540 18.228 17.859 0.365 17.893 17.699 0.197
PRIMET_226 2021-06-13 16:25:00 226 3904.0 0.00 285 0.203 0.203 191.700 1.781 15.620 15.500 16.03 16.370 16.180 15.750 97.400 98.400 0.366 16.06 16.390 16.190 15.790 16.01 16.340 16.160 15.730 15.680 15.560 15.560 15.460 18.216 17.745 0.474 17.893 17.609 0.286
PRIMET_226 2021-06-13 16:20:00 226 3904.0 0.00 186 0.342 0.341 187.300 4.137 15.670 15.560 16.14 16.480 16.270 15.840 97.000 98.200 0.608 16.19 16.530 16.330 15.870 16.07 16.420 16.210 15.770 15.760 15.610 15.560 15.480 18.344 17.801 0.550 17.996 17.676 0.324
PRIMET_226 2021-06-13 16:15:00 226 3904.0 0.00 208 0.000 0.000     15.750 15.540 16.11 16.420 16.200 15.770 97.700 98.500 0.000 16.21 16.540 16.330 15.870 16.00 16.270 16.040 15.640 15.880 15.670 15.590 15.380 18.309 17.893 0.421 17.916 17.654 0.269
PRIMET_226 2021-06-13 16:10:00 226 3904.0 0.00 202 0.000 0.000     15.570 15.340 15.94 16.180 15.980 15.580 97.600 98.400 0.000 16.00 16.260 16.050 15.640 15.90 16.130 15.930 15.530 15.620 15.390 15.530 15.260 18.112 17.688 0.435 17.699 17.429 0.283
PRIMET_226 2021-06-13 16:05:00 226 3904.0 0.00 324 0.000 0.000     15.550 15.280 15.89 16.130 15.920 15.540 97.800 98.400 0.000 15.91 16.180 15.980 15.570 15.86 16.100 15.890 15.520 15.590 15.340 15.490 15.250 18.054 17.665 0.397 17.654 17.362 0.282
PRIMET_226 2021-06-13 16:00:00 226 3904.0 0.00 317 0.048 0.046 243.300 6.906 15.330 15.170 15.80 16.060 15.870 15.510 97.000 97.800 0.392 15.84 16.110 15.900 15.560 15.76 16.010 15.840 15.470 15.460 15.240 15.240 15.110 17.950 17.418 0.539 17.620 17.239 0.388
PRIMET_226 2021-06-13 15:55:00 226 3904.0 0.00 195 0.597 0.408 288.800 41.990 15.410 15.160 15.94 16.210 15.990 15.620 96.700 97.100 1.248 15.96 16.280 16.070 15.680 15.86 16.060 15.870 15.550 15.490 15.210 15.300 15.060 18.112 17.507 0.598 17.745 17.228 0.515
PRIMET_226 2021-06-13 15:50:00 226 3904.0 0.00 260 0.665 0.497 217.400 35.240 15.290 15.200 16.00 16.290 16.100 15.740 95.500 96.600 1.607 16.09 16.350 16.150 15.800 15.93 16.220 16.040 15.680 15.330 15.240 15.240 15.110 18.181 17.373 0.818 17.881 17.273 0.608
PRIMET_226 2021-06-13 15:45:00 226 3904.0 0.00 211 0.115 0.113 247.600 7.499 15.350 15.230 16.22 16.450 16.260 15.920 94.600 95.700 0.412 16.38 16.590 16.380 16.060 16.09 16.360 16.170 15.810 15.490 15.340 15.300 15.180 18.438 17.440 0.996 18.088 17.306 0.778
PRIMET_226 2021-06-13 15:40:00 226 3904.0 0.00 246 0.295 0.283 279.800 14.440 15.350 15.220 16.49 16.700 16.520 16.200 93.000 93.900 0.640 16.62 16.820 16.630 16.380 16.38 16.600 16.420 16.080 15.470 15.360 15.230 15.120 18.758 17.440 1.313 18.415 17.295 1.123
PRIMET_226 2021-06-13 15:35:00 226 3904.0 0.00 203 0.238 0.234 212.600 6.952 15.390 15.270 16.92 17.060 16.880 16.670 90.700 91.500 0.764 17.26 17.340 17.160 17.020 16.64 16.840 16.660 16.390 15.510 15.390 15.250 15.160 19.277 17.485 1.793 18.974 17.351 1.613
PRIMET_226 2021-06-13 15:30:00 226 3904.0 0.00 260 0.874 0.859 217.200 10.390 15.130 14.990 17.66 17.770 17.600 17.490 85.200 85.300 1.594 18.00 18.180 18.030 17.900 17.29 17.380 17.200 17.060 15.450 15.360 14.390 14.320 20.201 17.195 2.990 19.985 17.041 2.938
PRIMET_226 2021-06-13 15:25:00 226 3904.0 0.00 249 0.934 0.493 217.200 55.650 14.840 14.360 18.25 18.550 18.370 18.120 80.500 78.720 1.503 18.38 18.700 18.510 18.200 18.04 18.240 18.080 17.950 15.350 15.020 13.890 13.620 20.964 16.877 4.088 20.794 16.362 4.425
PRIMET_226 2021-06-13 15:20:00 226 3904.0 0.00 266 0.529 0.443 195.300 30.130 15.050 14.670 18.47 18.880 18.690 18.350 80.500 79.210 1.176 18.54 19.000 18.810 18.430 18.40 18.740 18.540 18.230 15.650 15.190 13.590 13.450 21.256 17.107 4.145 21.096 16.693 4.386
PRIMET_226 2021-06-13 15:15:00 226 3904.0 0.00 234 0.677 0.616 272.600 21.790 15.280 14.770 18.43 18.820 18.640 18.310 82.000 79.890 1.098 18.47 18.880 18.710 18.390 18.39 18.750 18.570 18.250 15.830 15.630 13.730 13.420 21.202 17.362 3.816 21.043 16.801 4.232
PRIMET_226 2021-06-13 15:10:00 226 3904.0 0.00 182 0.198 0.175 174.200 20.650 15.470 14.990 18.49 18.900 18.750 18.400 82.600 80.600 1.032 18.53 18.970 18.820 18.430 18.45 18.860 18.700 18.330 15.850 15.660 14.610 13.950 21.282 17.575 3.703 21.163 17.041 4.106
PRIMET_226 2021-06-13 15:05:00 226 3904.0 0.00 253 0.502 0.277 54.240 51.530 15.290 14.900 18.34 18.770 18.580 18.180 82.500 81.300 0.941 18.40 18.940 18.770 18.320 18.29 18.700 18.490 18.140 15.880 15.580 14.020 13.800 21.083 17.373 3.690 20.872 16.942 3.903
PRIMET_226 2021-06-13 15:00:00 226 3904.0 0.00 235 0.248 0.067 56.150 55.750 15.810 15.490 18.23 18.670 18.480 18.100 85.800 84.800 0.601 18.30 18.700 18.510 18.140 18.14 18.630 18.450 18.050 15.940 15.710 15.640 15.200 20.938 17.962 2.973 20.768 17.597 3.157
PRIMET_226 2021-06-13 14:55:00 226 3904.0 0.00 200 0.092 0.085 84.500 14.070 15.200 14.870 18.07 18.480 18.300 17.960 83.400 82.200 0.470 18.13 18.600 18.440 18.040 18.04 18.420 18.240 17.920 15.560 15.430 14.520 14.380 20.729 17.273 3.441 20.586 16.910 3.664
PRIMET_226 2021-06-13 14:50:00 226 3904.0 0.00 236 0.740 0.425 121.500 51.510 15.580 15.150 18.05 18.430 18.240 17.920 85.500 83.800 1.385 18.09 18.490 18.290 17.970 18.02 18.370 18.180 17.880 15.880 15.460 15.320 14.900 20.703 17.699 3.002 20.534 17.217 3.327
PRIMET_226 2021-06-13 14:45:00 226 3904.0 0.00 259 0.325 0.185 176.500 37.560 15.670 15.330 18.07 18.450 18.250 17.950 85.900 84.700 1.267 18.10 18.470 18.270 18.000 18.04 18.420 18.220 17.910 15.920 15.530 15.550 15.080 20.729 17.801 2.923 20.573 17.418 3.148
PRIMET_226 2021-06-13 14:40:00 226 3904.0 0.00 208 0.369 0.305 150.200 29.260 15.740 15.420 18.13 18.480 18.300 18.050 86.000 84.600 0.843 18.15 18.530 18.360 18.120 18.09 18.430 18.250 17.990 15.910 15.680 15.560 14.860 20.807 17.881 2.913 20.703 17.518 3.188
PRIMET_226 2021-06-13 14:35:00 226 3904.0 0.00 222 0.774 0.679 128.800 28.300 15.760 15.380 18.19 18.550 18.400 18.210 85.700 83.600 1.281 18.23 18.600 18.460 18.300 18.15 18.490 18.320 18.130 15.930 15.690 15.640 15.030 20.886 17.904 2.987 20.912 17.474 3.430
PRIMET_226 2021-06-13 14:30:00 226 3904.0 0.00 226 0.894 0.704 125.900 36.410 15.600 15.070 18.28 18.630 18.520 18.290 84.400 81.500 1.483 18.35 18.690 18.580 18.330 18.23 18.570 18.450 18.250 15.740 15.360 15.450 14.440 21.004 17.722 3.277 21.017 17.129 3.888
PRIMET_226 2021-06-13 14:25:00 226 3904.0 0.00 208 1.172 0.890 133.900 39.680 15.660 15.190 18.47 18.790 18.650 18.410 83.700 81.500 2.293 18.56 18.940 18.820 18.510 18.37 18.670 18.520 18.300 16.000 15.550 15.130 14.530 21.256 17.790 3.465 21.176 17.262 3.918
PRIMET_226 2021-06-13 14:20:00 226 3904.0 0.00 249 1.102 0.767 117.300 44.640 15.890 15.400 18.67 18.950 18.800 18.620 83.900 81.600 2.215 18.76 19.060 18.920 18.740 18.55 18.810 18.650 18.460 16.270 15.950 15.440 14.530 21.523 18.054 3.465 21.456 17.496 3.948
PRIMET_226 2021-06-13 14:15:00 226 3904.0 0.00 203 0.784 0.578 137.800 40.450 15.880 15.480 18.88 19.180 19.040 18.880 82.700 80.600 1.287 18.97 19.280 19.170 19.030 18.77 19.050 18.910 18.750 16.030 15.850 15.710 15.040 21.808 18.042 3.773 21.808 17.586 4.231
PRIMET_226 2021-06-13 14:10:00 226 3904.0 0.00 255 1.498 1.357 116.700 24.840 15.690 14.960 19.08 19.350 19.210 18.990 80.700 77.510 2.666 19.19 19.440 19.320 19.050 19.01 19.290 19.100 18.890 16.120 15.590 15.080 14.210 22.081 17.824 4.262 21.958 17.008 4.938
PRIMET_226 2021-06-13 14:05:00 226 3904.0 0.00 241 1.277 1.218 125.500 17.380 16.090 15.700 19.38 19.490 19.290 19.170 81.300 80.300 1.967 19.69 19.770 19.550 19.460 19.20 19.370 19.130 18.950 16.390 16.030 15.760 15.310 22.498 18.286 4.207 22.206 17.836 4.375
PRIMET_226 2021-06-13 14:00:00 226 3904.0 0.00 229 0.563 0.476 147.700 28.520 16.520 15.990 20.00 20.100 19.900 19.760 80.400 78.890 1.555 20.27 20.370 20.140 20.000 19.72 19.820 19.610 19.490 16.790 16.460 16.070 15.300 23.380 18.794 4.583 23.035 18.170 4.863
PRIMET_226 2021-06-13 13:55:00 226 3904.0 0.00 194 0.990 0.851 122.100 30.360 17.080 16.420 20.54 20.560 20.290 20.210 80.600 78.930 1.470 20.86 20.870 20.620 20.580 20.28 20.360 20.130 20.010 17.770 17.480 16.360 14.740 24.173 19.474 4.690 23.686 18.675 4.991
PRIMET_226 2021-06-13 13:50:00 226 3904.0 0.00 212 0.988 0.820 108.100 33.400 16.830 16.300 21.18 21.320 21.100 20.920 76.280 74.970 1.424 21.32 21.640 21.410 21.040 20.91 20.940 20.710 20.630 17.600 17.390 15.970 15.460 25.143 19.168 5.964 24.745 18.532 6.194
PRIMET_226 2021-06-13 13:45:00 226 3904.0 0.00 215 0.506 0.421 105.300 31.510 17.190 16.650 21.41 21.610 21.390 21.130 76.890 75.620 0.947 21.54 21.660 21.430 21.270 21.30 21.570 21.330 21.030 18.050 17.500 16.250 15.620 25.500 19.610 5.893 25.066 18.950 6.111
PRIMET_226 2021-06-13 13:40:00 226 3904.0 0.00 217 0.285 0.276 146.500 12.250 17.380 17.030 21.54 21.670 21.460 21.280 77.240 76.760 0.725 21.63 21.780 21.550 21.330 21.49 21.590 21.360 21.230 17.800 17.560 16.620 16.390 25.704 19.847 5.850 25.298 19.412 5.879
PRIMET_226 2021-06-13 13:35:00 226 3904.0 0.00 220 0.206 0.205 105.700 3.622 17.040 16.670 21.56 21.690 21.440 21.290 75.500 74.990 0.784 21.65 21.780 21.510 21.350 21.46 21.570 21.330 21.180 17.490 17.060 16.350 16.330 25.736 19.425 6.305 25.314 18.974 6.331
PRIMET_226 2021-06-13 13:30:00 226 3904.0 0.00 195 0.447 0.353 128.000 29.960 16.660 16.400 21.50 21.510 21.270 21.200 74.010 74.090 1.548 21.73 21.640 21.430 21.480 21.43 21.390 21.160 21.130 17.560 17.030 15.360 15.290 25.641 18.962 6.664 25.174 18.651 6.523
PRIMET_226 2021-06-13 13:25:00 226 3904.0 0.00 200 0.950 0.702 101.300 40.380 16.750 16.220 21.84 21.930 21.670 21.510 72.920 71.910 1.614 21.97 22.050 21.760 21.640 21.76 21.760 21.540 21.450 17.750 17.170 15.090 15.040 26.180 19.071 7.089 25.657 18.438 7.207
PRIMET_226 2021-06-13 13:20:00 226 3904.0 0.00 208 0.660 0.348 174.800 54.330 17.080 16.510 22.26 22.350 22.080 22.000 72.530 71.080 1.431 22.50 22.720 22.400 22.170 21.99 22.050 21.740 21.690 17.830 17.140 16.350 15.380 26.858 19.474 7.378 26.436 18.782 7.645
PRIMET_226 2021-06-13 13:15:00 226 3904.0 0.00 201 0.414 0.315 90.000 33.100 16.560 16.060 22.65 22.760 22.460 22.290 68.520 67.840 0.915 22.76 22.920 22.600 22.360 22.46 22.650 22.330 22.160 17.220 16.570 15.180 15.040 27.502 18.842 8.658 26.907 18.251 8.653
PRIMET_226 2021-06-13 13:10:00 226 3904.0 0.00 248 1.675 1.165 175.200 44.710 16.230 15.550 22.86 22.830 22.570 22.550 66.280 64.650 4.149 23.16 23.110 22.870 22.870 22.64 22.670 22.390 22.300 17.310 16.330 14.820 14.640 27.854 18.450 9.392 27.335 17.665 9.663
PRIMET_226 2021-06-13 13:05:00 226 3904.0 0.00 219 1.691 1.395 158.800 33.920 15.820 15.030 23.31 23.360 23.130 23.060 62.840 60.610 2.587 23.45 23.520 23.300 23.220 23.17 23.160 22.900 22.880 16.670 15.800 14.880 14.470 28.622 17.973 10.636 28.193 17.085 11.105
PRIMET_226 2021-06-13 13:00:00 226 3904.0 0.00 203 1.594 1.372 175.700 30.250 16.460 15.550 23.68 23.740 23.460 23.340 64.070 61.650 3.476 23.83 23.970 23.650 23.470 23.47 23.470 23.260 23.210 17.830 17.480 14.910 14.660 29.267 18.722 10.516 28.674 17.665 10.996
PRIMET_226 2021-06-13 12:55:00 226 3904.0 0.00 199 1.052 0.838 205.900 36.580 16.060 15.330 23.96 24.120 23.830 23.590 61.390 59.870 2.653 24.05 24.240 23.950 23.690 23.86 23.980 23.670 23.510 17.480 17.170 14.830 14.670 29.764 18.251 11.492 29.109 17.418 11.681
PRIMET_226 2021-06-13 12:50:00 226 3904.0 0.00 196 0.945 0.247 252.200 69.600 16.410 15.920 24.01 24.210 23.870 23.550 62.620 62.380 1.601 24.13 24.300 23.940 23.580 23.86 24.100 23.800 23.470 17.950 17.350 14.960 14.820 29.853 18.663 11.159 29.039 18.088 10.925
PRIMET_226 2021-06-13 12:45:00 226 3904.0 0.00 0 1.003 0.508 260.100 56.910 15.880 15.240 23.83 24.040 23.720 23.430 61.160 60.100 1.908 23.87 24.130 23.790 23.490 23.75 23.930 23.640 23.380 17.540 16.130 14.990 14.770 29.532 18.042 11.470 28.830 17.317 11.503
PRIMET_226 2021-06-13 12:40:00 226 3904.0 0.00 185 1.047 0.754 214.900 42.860 15.970 15.500 23.80 23.900 23.630 23.420 61.610 61.150 2.189 23.88 24.020 23.750 23.500 23.71 23.740 23.490 23.320 17.360 16.560 14.750 14.540 29.479 18.146 11.317 28.812 17.609 11.194
PRIMET_226 2021-06-13 12:35:00 226 3904.0 0.00 183 1.235 0.993 204.400 35.840 15.990 15.340 23.76 23.850 23.560 23.400 61.870 60.610 2.672 23.87 24.010 23.690 23.560 23.67 23.720 23.470 23.320 17.770 16.580 14.780 14.560 29.408 18.170 11.213 28.778 17.429 11.336
PRIMET_226 2021-06-13 12:30:00 226 3904.0 0.00 217 1.318 1.017 200.600 38.720 15.940 15.430 23.78 23.870 23.610 23.470 61.590 60.680 4.443 23.88 24.060 23.800 23.620 23.68 23.720 23.470 23.370 17.420 16.720 14.630 14.530 29.444 18.112 11.309 28.899 17.530 11.363
PRIMET_226 2021-06-13 12:25:00 226 3904.0 0.00 197 1.008 0.814 200.300 34.610 16.240 15.850 24.06 24.150 23.840 23.660 61.730 61.670 2.208 24.22 24.310 24.000 23.800 23.88 23.930 23.650 23.520 17.890 17.130 15.080 14.760 29.943 18.462 11.459 29.232 18.008 11.205
PRIMET_226 2021-06-13 12:20:00 226 3904.0 0.00 234 0.869 0.652 198.700 40.510 16.350 15.870 24.01 24.130 23.830 23.610 62.320 61.920 3.319 24.08 24.250 23.940 23.680 23.95 24.010 23.700 23.530 17.410 16.600 15.240 14.770 29.853 18.592 11.249 29.144 18.031 11.098
PRIMET_226 2021-06-13 12:15:00 226 3904.0 0.00 0 0.924 0.603 170.900 47.770 17.110 16.350 24.02 24.050 23.760 23.620 65.440 63.860 2.123 24.13 24.150 23.850 23.670 23.98 23.960 23.660 23.560 18.820 17.460 15.350 14.660 29.871 19.511 10.324 29.162 18.592 10.539
PRIMET_226 2021-06-13 12:10:00 226 3904.0 0.00 303 0.961 0.808 195.800 32.340 16.660 16.090 24.16 24.210 23.860 23.670 63.050 62.590 2.692 24.22 24.290 23.940 23.730 24.09 24.110 23.790 23.620 18.160 17.370 15.100 15.010 30.123 18.962 11.131 29.250 18.286 10.942
PRIMET_226 2021-06-13 12:05:00 226 3904.0 0.00 0 1.232 0.964 200.400 37.780 15.860 15.430 24.15 24.260 23.960 23.780 59.900 59.600 2.757 24.18 24.320 24.060 23.810 24.12 24.170 23.880 23.740 17.600 16.940 15.110 14.850 30.105 18.019 12.072 29.444 17.530 11.895
PRIMET_226 2021-06-13 12:00:00 226 3904.0 0.00 199 1.259 0.892 202.100 43.750 16.440 15.810 24.24 24.370 24.090 23.900 61.840 60.620 2.443 24.36 24.450 24.170 23.970 24.13 24.240 23.970 23.780 18.200 17.700 15.090 15.000 30.268 18.698 11.550 29.657 17.962 11.679
PRIMET_226 2021-06-13 11:55:00 226 3904.0 0.00 178 1.026 0.642 258.600 48.300 15.900 15.420 24.36 24.360 24.040 23.850 59.340 59.310 3.051 24.47 24.420 24.100 23.940 24.25 24.250 23.930 23.780 17.430 17.340 14.980 14.770 30.486 18.065 12.396 29.568 17.518 12.031
PRIMET_226 2021-06-13 11:50:00 226 3904.0 0.00 211 1.631 1.154 206.900 43.830 15.370 15.130 24.72 24.660 24.340 24.190 56.080 56.970 2.476 24.93 24.880 24.550 24.350 24.51 24.430 24.110 23.980 16.120 16.010 14.780 14.700 31.149 17.462 13.681 30.177 17.195 12.985
PRIMET_226 2021-06-13 11:45:00 226 3904.0 0.00 196 0.785 0.255 259.000 66.560 15.680 15.150 24.90 24.840 24.460 24.210 56.590 57.040 1.731 24.97 24.930 24.580 24.310 24.81 24.710 24.340 24.110 16.580 16.570 15.100 14.680 31.486 17.813 13.668 30.214 17.217 12.980
PRIMET_226 2021-06-13 11:40:00 226 3904.0 0.00 198 1.528 1.176 264.000 38.910 15.540 14.910 24.94 24.870 24.470 24.270 55.950 55.920 2.692 25.02 24.980 24.580 24.420 24.89 24.700 24.300 24.090 16.270 15.480 14.870 14.580 31.561 17.654 13.902 30.322 16.953 13.366
PRIMET_226 2021-06-13 11:35:00 226 3904.0 0.00 224 1.133 0.736 234.300 47.930 15.910 15.360 24.98 24.990 24.650 24.410 57.180 57.100 2.463 25.10 25.180 24.830 24.540 24.87 24.870 24.530 24.280 16.930 16.340 15.150 14.910 31.636 18.077 13.547 30.578 17.451 13.118
PRIMET_226 2021-06-13 11:30:00 226 3904.0 0.00 276 0.773 0.551 234.700 43.340 15.740 15.270 24.87 24.860 24.490 24.220 56.960 57.450 1.607 24.96 24.960 24.580 24.310 24.76 24.740 24.370 24.110 17.180 16.750 14.880 14.720 31.429 17.881 13.527 30.232 17.351 12.864
PRIMET_226 2021-06-13 11:25:00 226 3904.0 0.00 208 1.635 1.335 224.800 34.700 16.070 15.450 24.52 24.590 24.260 24.000 59.400 58.830 3.325 24.75 24.850 24.500 24.160 24.28 24.380 24.080 23.860 17.740 16.500 15.090 14.680 30.779 18.263 12.496 29.835 17.552 12.283
PRIMET_226 2021-06-13 11:20:00 226 3904.0 0.00 0 1.134 0.726 204.800 48.560 15.600 15.250 24.35 24.480 24.130 23.950 58.150 58.270 2.123 24.50 24.580 24.240 24.070 24.26 24.350 24.010 23.860 16.320 15.950 15.060 14.860 30.468 17.722 12.751 29.746 17.328 12.413
PRIMET_226 2021-06-13 11:15:00 226 3904.0 0.00 202 0.708 0.323 222.100 59.690 15.730 15.320 24.31 24.480 24.140 23.840 58.850 58.940 2.038 24.46 24.670 24.340 23.970 24.13 24.220 23.920 23.660 16.680 15.800 15.140 14.900 30.395 17.870 12.508 29.550 17.406 12.133
PRIMET_226 2021-06-13 11:10:00 226 3904.0 0.00 234 1.015 0.804 195.100 36.860 15.540 15.210 24.03 24.110 23.790 23.560 59.060 59.500 1.764 24.11 24.260 23.970 23.690 23.97 24.010 23.680 23.480 16.440 15.710 15.130 14.980 29.889 17.654 12.237 29.057 17.284 11.768
PRIMET_226 2021-06-13 11:05:00 226 3904.0 0.00 197 0.861 0.657 176.900 39.430 16.490 16.070 24.08 24.190 23.790 23.450 62.650 63.310 1.477 24.22 24.370 23.910 23.590 23.94 23.980 23.580 23.250 18.190 17.280 15.350 15.200 29.979 18.758 11.197 28.865 18.263 10.590
PRIMET_226 2021-06-13 11:00:00 226 3904.0 0.00 225 0.750 0.631 186.400 32.230 17.690 16.820 23.88 23.900 23.530 23.310 68.570 67.170 1.313 23.95 23.960 23.590 23.410 23.71 23.830 23.480 23.180 19.800 19.080 15.550 15.240 29.621 20.239 9.310 28.622 19.155 9.397
PRIMET_226 2021-06-13 10:55:00 226 3904.0 0.00 192 0.262 0.082 150.700 49.750 17.230 16.720 23.56 23.650 23.340 23.190 67.830 67.140 0.725 23.70 23.780 23.450 23.320 23.27 23.460 23.150 22.870 19.000 19.040 14.940 14.820 29.057 19.660 9.347 28.415 19.034 9.337
PRIMET_226 2021-06-13 10:50:00 226 3904.0 0.00 198 0.556 0.264 302.800 55.650 15.120 14.630 23.37 23.430 23.140 22.900 59.830 59.640 1.098 23.48 23.630 23.310 23.020 23.23 23.290 22.960 22.810 16.210 15.210 14.460 14.170 28.726 17.184 11.539 27.922 16.650 11.269
PRIMET_226 2021-06-13 10:45:00 226 3904.0 0.00 199 0.338 0.113 346.300 53.230 15.750 15.370 23.23 23.400 23.090 22.770 62.850 63.040 0.960 23.48 23.690 23.380 23.010 23.09 23.230 22.880 22.610 16.690 15.980 15.090 14.900 28.484 17.893 10.582 27.703 17.462 10.239
PRIMET_226 2021-06-13 10:40:00 226 3904.0 0.00 195 0.540 0.514 37.500 17.830 16.260 15.720 22.69 22.960 22.650 22.340 67.140 66.270 0.902 23.18 23.400 23.060 22.710 22.19 22.410 22.160 21.950 17.960 17.970 15.340 14.950 27.569 18.485 9.059 26.989 17.859 9.103
PRIMET_226 2021-06-13 10:35:00 226 3904.0 0.00 0 0.287 0.281 97.300 11.000 17.700 17.140 21.68 21.840 21.570 21.480 78.210 76.410 0.745 22.14 22.360 22.080 21.910 21.24 21.310 21.030 21.060 18.660 18.540 16.220 15.520 25.925 20.252 5.649 25.610 19.548 6.041
PRIMET_226 2021-06-13 10:30:00 226 3904.0 0.00 186 0.000 0.000     17.890 17.570 21.14 21.170 20.940 20.960 81.700 81.000 0.000 21.21 21.290 21.060 21.070 21.10 21.100 20.870 20.890 18.380 18.050 17.380 17.060 25.082 20.495 4.590 24.806 20.086 4.713
PRIMET_226 2021-06-13 10:25:00 226 3904.0 0.00 178 0.000 0.000     17.860 17.570 21.26 21.150 20.870 21.000 81.000 80.800 0.000 21.44 21.240 20.940 21.180 21.15 21.060 20.810 20.920 18.300 17.920 17.500 17.210 25.267 20.457 4.801 24.867 20.086 4.775
PRIMET_226 2021-06-13 10:20:00 226 3904.0 0.00 183 0.065 0.062 65.520 7.175 17.000 16.420 21.50 21.480 21.190 21.220 75.660 74.260 0.601 21.65 21.610 21.310 21.270 21.43 21.280 20.990 21.170 18.190 17.940 15.180 15.060 25.641 19.375 6.241 25.205 18.675 6.488
PRIMET_226 2021-06-13 10:15:00 226 3904.0 0.00 195 0.666 0.633 43.100 16.650 17.300 16.600 21.82 21.780 21.510 21.480 75.660 73.840 1.405 21.94 22.010 21.750 21.610 21.63 21.610 21.310 21.270 18.300 17.820 15.240 15.100 26.148 19.747 6.364 25.610 18.890 6.700
PRIMET_226 2021-06-13 10:10:00 226 3904.0 0.00 212 0.767 0.668 108.400 29.080 15.450 15.090 22.11 21.990 21.730 21.720 65.990 66.010 1.130 22.38 22.380 22.150 22.010 21.93 21.870 21.600 21.570 16.440 15.800 14.920 14.820 26.614 17.552 9.051 25.988 17.151 8.833
PRIMET_226 2021-06-13 10:05:00 226 3904.0 0.00 0 0.329 0.189 96.000 47.330 16.090 15.910 22.28 22.330 22.090 21.850 68.070 69.060 1.281 22.41 22.530 22.350 22.030 22.19 22.100 21.790 21.650 17.990 17.020 15.170 15.140 26.891 18.286 8.586 26.195 18.077 8.105
PRIMET_226 2021-06-13 10:00:00 226 3904.0 0.00 205 0.701 0.634 68.920 23.740 16.250 15.730 22.20 22.210 21.900 21.710 69.140 68.910 1.522 22.32 22.350 22.090 21.810 22.09 22.040 21.720 21.580 17.970 17.860 15.250 15.000 26.760 18.473 8.258 25.973 17.870 8.075
PRIMET_226 2021-06-13 09:55:00 226 3904.0 0.00 332 0.558 0.281 10.450 55.650 15.730 15.320 22.14 22.220 21.900 21.610 67.060 67.460 1.209 22.38 22.350 22.030 21.810 21.90 22.010 21.710 21.430 16.560 16.000 15.040 14.960 26.663 17.870 8.783 25.814 17.406 8.400
PRIMET_226 2021-06-13 09:50:00 226 3904.0 0.00 192 0.466 0.343 14.140 40.540 16.910 16.320 21.82 21.910 21.610 21.350 73.770 73.100 1.261 21.93 22.140 21.800 21.460 21.72 21.700 21.450 21.310 18.030 17.730 15.400 14.910 26.148 19.265 6.859 25.407 18.556 6.834
PRIMET_226 2021-06-13 09:45:00 226 3904.0 0.00 0 0.441 0.359 333.400 30.350 16.220 15.570 21.88 21.940 21.610 21.170 70.350 70.450 1.156 21.91 22.060 21.750 21.320 21.83 21.800 21.510 21.050 17.860 16.770 15.030 14.800 26.243 18.438 7.781 25.128 17.688 7.425
PRIMET_226 2021-06-13 09:40:00 226 3904.0 0.00 221 0.132 0.124 328.600 11.450 17.050 16.430 21.69 21.780 21.390 20.970 74.980 75.290 0.653 21.85 21.930 21.550 21.080 21.53 21.630 21.270 20.870 18.070 17.050 15.690 15.870 25.941 19.437 6.490 24.821 18.686 6.133
PRIMET_226 2021-06-13 09:35:00 226 3904.0 0.00 204 0.379 0.321 31.430 25.620 17.150 16.700 21.46 21.550 21.200 20.900 76.530 76.980 1.111 21.53 21.680 21.360 21.060 21.40 21.310 20.950 20.740 18.120 17.650 15.770 15.390 25.579 19.560 6.003 24.715 19.010 5.689
PRIMET_226 2021-06-13 09:30:00 226 3904.0 0.00 261 0.315 0.091 76.500 59.140 16.400 15.530 21.39 21.450 21.060 20.630 73.290 72.590 0.882 21.55 21.540 21.160 20.750 21.14 21.260 20.900 20.390 17.350 16.070 15.200 14.920 25.469 18.651 6.803 24.308 17.642 6.663
PRIMET_226 2021-06-13 09:25:00 226 3904.0 0.00 198 0.063 0.063 338.700 2.583 16.610 16.040 21.06 21.200 20.850 20.270 75.780 76.690 0.490 21.17 21.320 21.030 20.410 20.96 21.070 20.690 20.160 17.260 16.690 15.290 15.250 24.959 18.902 6.045 23.774 18.228 5.542
PRIMET_226 2021-06-13 09:20:00 226 3904.0 0.00 214 0.114 0.102 8.900 17.930 16.850 16.080 20.79 20.920 20.500 20.120 78.200 77.580 0.849 21.00 21.190 20.730 20.210 20.65 20.620 20.250 20.010 17.560 16.760 15.390 15.200 24.548 19.192 5.352 23.554 18.274 5.281
PRIMET_226 2021-06-13 09:15:00 226 3904.0 0.00 192 0.562 0.491 43.590 28.660 16.880 16.330 20.67 20.720 20.340 20.010 79.010 79.440 1.254 20.75 20.890 20.530 20.100 20.54 20.630 20.260 19.900 17.810 17.400 15.330 15.060 24.368 19.229 5.115 23.395 18.568 4.810
PRIMET_226 2021-06-13 09:10:00 226 3904.0 0.00 331 0.230 0.208 63.230 22.010 17.370 16.890 20.64 20.440 20.150 20.090 81.600 81.900 0.653 20.79 20.710 20.410 20.260 20.51 20.220 19.950 19.940 18.200 17.460 16.650 16.190 24.323 19.834 4.475 23.511 19.241 4.255
PRIMET_226 2021-06-13 09:05:00 226 3904.0 0.00 197 0.119 0.118 84.600 6.447 17.520 17.020 20.73 20.720 20.420 20.340 81.900 81.300 0.431 20.80 20.820 20.520 20.370 20.63 20.600 20.330 20.290 17.860 17.540 17.020 15.990 24.458 20.023 4.427 23.877 19.400 4.465
PRIMET_226 2021-06-13 09:00:00 226 3904.0 0.00 315 0.051 0.051 75.190 0.110 16.790 16.340 20.41 20.590 20.390 20.120 79.750 78.920 0.346 20.62 20.810 20.630 20.370 20.18 20.280 20.060 19.750 17.770 17.300 15.980 15.650 23.980 19.119 4.856 23.554 18.580 4.965
PRIMET_226 2021-06-13 08:55:00 226 3904.0 0.00 322 0.038 0.029 101.700 24.860 16.500 16.060 19.90 20.150 19.960 19.590 80.900 80.200 0.229 20.18 20.350 20.100 19.750 19.70 19.890 19.740 19.400 17.750 17.380 15.070 15.030 23.236 18.770 4.438 22.793 18.251 4.513
PRIMET_226 2021-06-13 08:50:00 226 3904.0 0.00 196 0.154 0.153 215.800 4.204 15.860 15.590 19.53 19.720 19.530 19.210 79.430 79.570 0.568 19.67 20.000 19.860 19.360 19.43 19.580 19.370 19.120 17.410 17.010 15.160 14.990 22.709 18.019 4.671 22.261 17.710 4.548
PRIMET_226 2021-06-13 08:45:00 226 3904.0 0.00 258 0.095 0.080 141.600 23.590 16.740 16.350 19.47 19.560 19.320 19.200 84.300 83.600 0.392 19.55 19.700 19.450 19.240 19.40 19.490 19.240 19.120 17.330 17.100 15.850 15.490 22.624 19.058 3.552 22.247 18.592 3.649
PRIMET_226 2021-06-13 08:40:00 226 3904.0 0.00 195 0.021 0.019 123.500 11.660 16.080 15.780 19.26 19.450 19.240 18.930 81.900 81.900 0.157 19.40 19.590 19.430 19.120 19.18 19.290 19.090 18.790 17.380 16.450 15.170 15.040 22.330 18.274 4.042 21.876 17.927 3.960
PRIMET_226 2021-06-13 08:35:00 226 3904.0 0.00 265 0.040 0.040 104.900 0.701 16.250 15.960 18.95 19.190 18.950 18.570 84.400 84.800 0.399 19.19 19.340 19.120 18.780 18.73 18.960 18.760 18.380 16.880 16.670 15.740 15.450 21.903 18.473 3.417 21.389 18.135 3.251
PRIMET_226 2021-06-13 08:30:00 226 3904.0 0.00 188 0.000 0.000     16.110 15.770 18.50 18.780 18.580 18.200 86.000 85.800 0.000 18.71 18.960 18.750 18.360 18.37 18.660 18.440 18.080 16.730 16.120 15.550 15.540 21.296 18.309 2.981 20.899 17.916 2.968
PRIMET_226 2021-06-13 08:25:00 226 3904.0 0.00 189 0.000 0.000     15.870 15.690 18.25 18.520 18.330 17.900 86.000 86.900 0.000 18.33 18.650 18.480 18.080 18.14 18.410 18.180 17.710 16.220 16.040 15.640 15.430 20.964 18.031 2.935 20.508 17.824 2.687
PRIMET_226 2021-06-13 08:20:00 226 3904.0 0.00 202 0.296 0.292 215.300 7.519 16.230 15.920 18.10 18.330 18.090 17.680 88.900 89.400 0.771 18.14 18.410 18.190 17.760 18.06 18.270 18.020 17.620 16.750 16.310 15.620 15.460 20.768 18.450 2.305 20.226 18.088 2.144
PRIMET_226 2021-06-13 08:15:00 226 3904.0 0.00 246 0.092 0.091 180.400 5.049 16.480 16.230 17.99 18.290 18.060 17.590 90.900 91.700 0.621 18.13 18.470 18.260 17.750 17.86 18.150 17.950 17.420 16.850 16.520 15.960 15.880 20.625 18.746 1.877 20.112 18.450 1.669
PRIMET_226 2021-06-13 08:10:00 226 3904.0 0.00 198 0.000 0.000     16.310 16.070 17.76 18.000 17.770 17.280 91.200 92.600 0.000 17.85 18.130 17.900 17.400 17.71 17.930 17.690 17.180 16.580 16.360 16.060 15.850 20.328 18.544 1.789 19.722 18.263 1.459
PRIMET_226 2021-06-13 08:05:00 226 3904.0 0.00 202 0.000 0.000     16.550 16.220 17.62 17.860 17.590 17.030 93.400 95.000 0.000 17.70 17.920 17.660 17.160 17.54 17.800 17.520 16.950 16.670 16.390 16.440 16.060 20.150 18.830 1.330 19.412 18.438 0.971
PRIMET_226 2021-06-13 08:00:00 226 3904.0 0.00 266 0.000 0.000     16.580 16.170 17.45 17.820 17.530 16.960 94.600 95.200 0.000 17.53 17.850 17.570 17.000 17.36 17.790 17.510 16.930 16.680 16.410 16.500 16.060 19.935 18.866 1.076 19.326 18.379 0.928
PRIMET_226 2021-06-13 07:55:00 226 3904.0 0.00 250 0.000 0.000     16.390 16.160 17.17 17.610 17.370 16.810 95.200 95.900 0.000 17.35 17.830 17.560 16.990 17.04 17.420 17.200 16.670 16.650 16.420 16.180 15.880 19.585 18.639 0.940 19.143 18.368 0.785
PRIMET_226 2021-06-13 07:50:00 226 3904.0 0.00 213 0.000 0.000     16.280 15.910 17.01 17.460 17.240 16.660 95.500 95.400 0.000 17.06 17.560 17.310 16.700 16.88 17.360 17.150 16.560 16.430 16.060 16.100 15.780 19.388 18.509 0.872 18.962 18.077 0.872
PRIMET_226 2021-06-13 07:45:00 226 3904.0 0.00 332 0.000 0.000     16.230 15.780 16.70 17.160 16.940 16.400 97.100 96.100 0.000 16.86 17.340 17.130 16.550 16.58 17.010 16.760 16.280 16.590 15.980 16.080 15.720 19.010 18.450 0.551 18.651 17.927 0.727
PRIMET_226 2021-06-13 07:40:00 226 3904.0 0.00 246 0.000 0.000     16.500 16.090 16.50 16.910 16.670 16.150 100.000 99.600 0.000 16.63 17.030 16.810 16.290 16.31 16.710 16.480 15.950 16.630 16.210 16.310 15.940 18.770 18.770 0.000 18.356 18.286 0.073
PRIMET_226 2021-06-13 07:35:00 226 3904.0 0.00 218 0.000 0.000     16.140 15.810 16.14 16.530 16.290 15.810 100.000 100.000 0.000 16.27 16.680 16.450 15.940 16.06 16.420 16.180 15.760 16.270 15.930 16.060 15.760 18.344 18.344 0.000 17.962 17.962 0.000
PRIMET_226 2021-06-13 07:30:00 226 3904.0 0.00 277 0.000 0.000     16.000 15.750 16.00 16.410 16.180 15.750 100.000 100.000 0.000 16.07 16.460 16.220 15.780 15.90 16.330 16.130 15.690 16.070 15.780 15.900 15.690 18.181 18.181 0.000 17.893 17.893 0.000
PRIMET_226 2021-06-13 07:25:00 226 3904.0 0.00 195 0.000 0.000     15.790 15.580 15.79 16.200 16.000 15.580 100.000 100.000 0.000 15.91 16.340 16.120 15.690 15.71 16.080 15.890 15.500 15.910 15.690 15.710 15.500 17.939 17.939 0.000 17.699 17.699 0.000
PRIMET_226 2021-06-13 07:20:00 226 3904.0 0.00 468 0.000 0.000     15.740 15.530 15.74 16.120 15.930 15.530 100.000 100.000 0.000 15.76 16.140 15.950 15.560 15.72 16.090 15.890 15.510 15.760 15.560 15.720 15.510 17.881 17.881 0.000 17.642 17.642 0.000
PRIMET_226 2021-06-13 07:15:00 226 3904.0 0.00 199 0.000 0.000     15.760 15.530 15.76 16.150 15.960 15.530 100.000 100.000 0.000 15.78 16.170 15.970 15.550 15.74 16.140 15.940 15.510 15.780 15.550 15.740 15.510 17.904 17.904 0.000 17.642 17.642 0.000
PRIMET_226 2021-06-13 07:10:00 226 3904.0 0.00 211 0.000 0.000     15.750 15.530 15.75 16.140 15.950 15.530 100.000 100.000 0.000 15.77 16.150 15.960 15.540 15.74 16.130 15.940 15.510 15.770 15.540 15.740 15.510 17.893 17.893 0.000 17.642 17.642 0.000
PRIMET_226 2021-06-13 07:05:00 226 3904.0 0.00 204 0.000 0.000     15.760 15.540 15.76 16.140 15.960 15.540 100.000 100.000 0.000 15.77 16.150 15.970 15.560 15.74 16.120 15.930 15.530 15.770 15.560 15.740 15.530 17.904 17.904 0.000 17.654 17.654 0.000
PRIMET_226 2021-06-13 07:00:00 226 3904.0 0.00 210 0.000 0.000     15.750 15.520 15.75 16.140 15.960 15.520 100.000 100.000 0.000 15.79 16.180 15.990 15.560 15.72 16.100 15.910 15.480 15.790 15.560 15.720 15.480 17.893 17.893 0.000 17.631 17.631 0.000
PRIMET_226 2021-06-13 06:55:00 226 3904.0 0.00 196 0.000 0.000     15.670 15.470 15.67 16.060 15.870 15.470 100.000 100.000 0.000 15.71 16.080 15.910 15.480 15.62 16.030 15.840 15.450 15.710 15.480 15.620 15.450 17.801 17.801 0.000 17.575 17.575 0.000
PRIMET_226 2021-06-13 06:50:00 226 3904.0 0.00 197 0.000 0.000     15.580 15.470 15.58 15.990 15.820 15.470 100.000 100.000 0.000 15.63 16.030 15.850 15.490 15.55 15.950 15.810 15.450 15.630 15.480 15.550 15.450 17.699 17.699 0.000 17.575 17.575 0.000
PRIMET_226 2021-06-13 06:45:00 226 3904.0 0.00 198 0.344 0.324 153.100 18.430 15.650 15.510 15.65 16.040 15.890 15.520 100.000 100.000 0.601 15.73 16.130 15.950 15.540 15.57 15.960 15.810 15.480 15.730 15.540 15.570 15.470 17.779 17.779 0.000 17.631 17.620 0.000
PRIMET_226 2021-06-13 06:40:00 226 3904.0 0.00 194 0.509 0.481 185.300 18.500 15.800 15.550 15.80 16.180 15.990 15.560 100.000 100.000 1.111 15.84 16.250 16.040 15.600 15.73 16.120 15.940 15.510 15.840 15.600 15.730 15.510 17.950 17.950 0.000 17.676 17.665 0.000
PRIMET_226 2021-06-13 06:35:00 226 3904.0 0.00 196 0.000 0.000     15.850 15.610 15.85 16.270 16.070 15.610 100.000 100.000 0.000 15.87 16.290 16.090 15.620 15.83 16.240 16.040 15.580 15.870 15.620 15.830 15.580 18.008 18.008 0.000 17.733 17.733 0.000
PRIMET_226 2021-06-13 06:30:00 226 3904.0 0.00 203 0.000 0.000     15.820 15.560 15.82 16.230 16.040 15.560 100.000 100.000 0.000 15.86 16.260 16.070 15.600 15.77 16.180 15.990 15.530 15.860 15.600 15.770 15.530 17.973 17.973 0.000 17.676 17.676 0.000
PRIMET_226 2021-06-13 06:25:00 226 3904.0 0.00 202 0.000 0.000     15.780 15.570 15.78 16.220 16.030 15.570 100.000 100.000 0.000 15.82 16.280 16.080 15.610 15.75 16.170 15.980 15.520 15.820 15.610 15.750 15.520 17.927 17.927 0.000 17.688 17.688 0.000
PRIMET_226 2021-06-13 06:20:00 226 3904.0 0.00 202 0.000 0.000     15.830 15.610 15.83 16.280 16.080 15.610 100.000 100.000 0.000 15.86 16.300 16.100 15.640 15.81 16.260 16.060 15.590 15.860 15.640 15.810 15.590 17.985 17.985 0.000 17.733 17.733 0.000
PRIMET_226 2021-06-13 06:15:00 226 3904.0 0.00 203 0.000 0.000     15.810 15.590 15.81 16.240 16.040 15.590 100.000 100.000 0.000 15.87 16.310 16.090 15.630 15.77 16.190 15.990 15.570 15.870 15.630 15.770 15.570 17.962 17.962 0.000 17.710 17.710 0.000
PRIMET_226 2021-06-13 06:10:00 226 3904.0 0.00 203 0.000 0.000     15.720 15.510 15.72 16.150 15.960 15.510 100.000 100.000 0.000 15.78 16.220 16.020 15.570 15.67 16.090 15.900 15.450 15.780 15.570 15.670 15.450 17.859 17.859 0.000 17.620 17.620 0.000
PRIMET_226 2021-06-13 06:05:00 226 3904.0 0.00 209 0.000 0.000     15.630 15.410 15.63 16.040 15.850 15.410 100.000 100.000 0.000 15.66 16.090 15.890 15.450 15.60 16.000 15.810 15.390 15.660 15.450 15.600 15.390 17.756 17.756 0.000 17.507 17.507 0.000
PRIMET_226 2021-06-13 06:00:00 226 3904.0 0.00 224 0.000 0.000     15.590 15.410 15.59 16.020 15.830 15.410 100.000 100.000 0.000 15.62 16.030 15.840 15.430 15.57 15.990 15.810 15.400 15.620 15.430 15.570 15.400 17.710 17.710 0.000 17.507 17.507 0.000
PRIMET_226 2021-06-13 05:55:00 226 3904.0 0.00 201 0.000 0.000     15.600 15.440 15.60 16.000 15.830 15.440 100.000 100.000 0.000 15.64 16.030 15.860 15.450 15.57 15.980 15.800 15.420 15.640 15.450 15.570 15.420 17.722 17.722 0.000 17.541 17.541 0.000
PRIMET_226 2021-06-13 05:50:00 226 3904.0 0.00 484 0.000 0.000     15.650 15.450 15.65 16.040 15.860 15.450 100.000 100.000 0.000 15.68 16.070 15.900 15.480 15.64 16.010 15.810 15.420 15.680 15.480 15.640 15.420 17.779 17.779 0.000 17.552 17.552 0.000
PRIMET_226 2021-06-13 05:45:00 226 3904.0 0.00 225 0.000 0.000     15.590 15.380 15.59 15.990 15.810 15.380 100.000 100.000 0.000 15.65 16.040 15.850 15.430 15.52 15.930 15.760 15.310 15.650 15.430 15.520 15.310 17.710 17.710 0.000 17.474 17.474 0.000
PRIMET_226 2021-06-13 05:40:00 226 3904.0 0.00 393 0.000 0.000     15.440 15.250 15.44 15.860 15.680 15.250 100.000 100.000 0.000 15.52 15.930 15.750 15.320 15.35 15.770 15.600 15.190 15.520 15.320 15.350 15.190 17.541 17.541 0.000 17.328 17.328 0.000
PRIMET_226 2021-06-13 05:35:00 226 3904.0 0.00 199 0.000 0.000     15.330 15.190 15.33 15.750 15.580 15.190 100.000 100.000 0.000 15.36 15.770 15.600 15.220 15.31 15.730 15.570 15.170 15.360 15.220 15.310 15.170 17.418 17.418 0.000 17.262 17.262 0.000
PRIMET_226 2021-06-13 05:30:00 226 3904.0 0.00 284 0.000 0.000     15.380 15.260 15.38 15.770 15.620 15.260 100.000 100.000 0.000 15.45 15.830 15.670 15.330 15.32 15.740 15.590 15.210 15.450 15.330 15.320 15.210 17.474 17.474 0.000 17.339 17.339 0.000
PRIMET_226 2021-06-13 05:25:00 226 3904.0 0.00 200 0.000 0.000     15.520 15.330 15.52 15.900 15.740 15.330 100.000 100.000 0.000 15.55 15.940 15.770 15.350 15.46 15.840 15.680 15.310 15.550 15.350 15.460 15.310 17.631 17.631 0.000 17.418 17.418 0.000
PRIMET_226 2021-06-13 05:20:00 226 3904.0 0.00 347 0.000 0.000     15.450 15.270 15.45 15.870 15.700 15.270 100.000 100.000 0.000 15.52 15.910 15.730 15.300 15.39 15.820 15.660 15.230 15.520 15.300 15.390 15.230 17.552 17.552 0.000 17.351 17.351 0.000
PRIMET_226 2021-06-13 05:15:00 226 3904.0 0.00 322 0.000 0.000     15.310 15.170 15.31 15.730 15.570 15.170 100.000 100.000 0.000 15.38 15.810 15.650 15.220 15.28 15.670 15.520 15.140 15.380 15.220 15.280 15.140 17.395 17.395 0.000 17.239 17.239 0.000
PRIMET_226 2021-06-13 05:10:00 226 3904.0 0.00 387 0.000 0.000     15.300 15.170 15.30 15.700 15.550 15.170 100.000 100.000 0.000 15.32 15.710 15.560 15.180 15.29 15.680 15.520 15.150 15.320 15.180 15.290 15.150 17.384 17.384 0.000 17.239 17.239 0.000
PRIMET_226 2021-06-13 05:05:00 226 3904.0 0.00 298 0.000 0.000     15.290 15.190 15.29 15.700 15.570 15.190 100.000 100.000 0.000 15.31 15.720 15.600 15.210 15.27 15.690 15.550 15.170 15.310 15.210 15.270 15.170 17.373 17.373 0.000 17.262 17.262 0.000
PRIMET_226 2021-06-13 05:00:00 226 3904.0 0.00 203 0.000 0.000     15.290 15.170 15.29 15.710 15.560 15.170 100.000 100.000 0.000 15.30 15.720 15.580 15.180 15.27 15.690 15.550 15.160 15.300 15.180 15.270 15.160 17.373 17.373 0.000 17.239 17.239 0.000
PRIMET_226 2021-06-13 04:55:00 226 3904.0 0.00 212 0.000 0.000     15.250 15.150 15.25 15.670 15.530 15.150 100.000 100.000 0.000 15.29 15.710 15.560 15.160 15.23 15.640 15.500 15.120 15.290 15.160 15.230 15.120 17.328 17.328 0.000 17.217 17.217 0.000
PRIMET_226 2021-06-13 04:50:00 226 3904.0 0.00 201 0.000 0.000     15.300 15.180 15.30 15.700 15.570 15.180 100.000 100.000 0.000 15.32 15.750 15.600 15.190 15.26 15.650 15.520 15.150 15.320 15.190 15.260 15.150 17.384 17.384 0.000 17.250 17.250 0.000
PRIMET_226 2021-06-13 04:45:00 226 3904.0 0.00 200 0.000 0.000     15.230 15.130 15.23 15.660 15.530 15.130 100.000 100.000 0.000 15.30 15.730 15.590 15.170 15.19 15.610 15.490 15.110 15.300 15.170 15.190 15.110 17.306 17.306 0.000 17.195 17.195 0.000
PRIMET_226 2021-06-13 04:40:00 226 3904.0 0.00 199 0.000 0.000     15.200 15.130 15.20 15.600 15.490 15.130 100.000 100.000 0.000 15.23 15.640 15.510 15.170 15.17 15.580 15.470 15.110 15.230 15.170 15.170 15.110 17.273 17.273 0.000 17.195 17.195 0.000
PRIMET_226 2021-06-13 04:35:00 226 3904.0 0.00 427 0.000 0.000     15.250 15.170 15.25 15.650 15.530 15.170 100.000 100.000 0.000 15.27 15.680 15.550 15.200 15.23 15.630 15.510 15.160 15.270 15.200 15.230 15.160 17.328 17.328 0.000 17.239 17.239 0.000
PRIMET_226 2021-06-13 04:30:00 226 3904.0 0.00 209 0.000 0.000     15.260 15.160 15.26 15.690 15.560 15.160 100.000 100.000 0.000 15.28 15.700 15.580 15.180 15.24 15.670 15.540 15.150 15.280 15.180 15.240 15.150 17.339 17.339 0.000 17.228 17.228 0.000
PRIMET_226 2021-06-13 04:25:00 226 3904.0 0.00 213 0.000 0.000     15.230 15.130 15.23 15.660 15.530 15.130 100.000 100.000 0.000 15.24 15.680 15.550 15.160 15.21 15.640 15.510 15.110 15.240 15.160 15.210 15.110 17.306 17.306 0.000 17.195 17.195 0.000
PRIMET_226 2021-06-13 04:20:00 226 3904.0 0.00 217 0.000 0.000     15.210 15.110 15.21 15.640 15.500 15.110 100.000 100.000 0.000 15.23 15.650 15.520 15.120 15.20 15.630 15.490 15.100 15.230 15.120 15.200 15.100 17.284 17.284 0.000 17.173 17.173 0.000
PRIMET_226 2021-06-13 04:15:00 226 3904.0 0.00 222 0.000 0.000     15.200 15.100 15.20 15.630 15.500 15.100 100.000 100.000 0.000 15.22 15.630 15.510 15.120 15.19 15.610 15.480 15.080 15.220 15.120 15.190 15.080 17.273 17.273 0.000 17.162 17.162 0.000
PRIMET_226 2021-06-13 04:10:00 226 3904.0 0.00 195 0.000 0.000     15.240 15.140 15.24 15.630 15.510 15.140 100.000 100.000 0.000 15.30 15.670 15.570 15.200 15.20 15.610 15.480 15.110 15.300 15.200 15.200 15.110 17.317 17.317 0.000 17.206 17.206 0.000
PRIMET_226 2021-06-13 04:05:00 226 3904.0 0.00 221 0.000 0.000     15.350 15.200 15.35 15.750 15.620 15.200 100.000 100.000 0.000 15.37 15.780 15.640 15.220 15.31 15.690 15.570 15.180 15.370 15.220 15.310 15.180 17.440 17.440 0.000 17.273 17.273 0.000
PRIMET_226 2021-06-13 04:00:00 226 3904.0 0.00 261 0.000 0.000     15.280 15.160 15.28 15.720 15.570 15.160 100.000 100.000 0.000 15.32 15.760 15.610 15.180 15.26 15.680 15.540 15.150 15.320 15.180 15.260 15.150 17.362 17.362 0.000 17.228 17.228 0.000
PRIMET_226 2021-06-13 03:55:00 226 3904.0 0.00 203 0.000 0.000     15.270 15.150 15.27 15.690 15.560 15.150 100.000 100.000 0.000 15.28 15.710 15.570 15.170 15.26 15.680 15.540 15.130 15.280 15.170 15.260 15.130 17.351 17.351 0.000 17.217 17.217 0.000
PRIMET_226 2021-06-13 03:50:00 226 3904.0 0.00 192 0.000 0.000     15.240 15.120 15.24 15.680 15.530 15.120 100.000 100.000 0.000 15.27 15.700 15.550 15.150 15.21 15.640 15.500 15.090 15.270 15.150 15.210 15.090 17.317 17.317 0.000 17.184 17.184 0.000
PRIMET_226 2021-06-13 03:45:00 226 3904.0 0.00 187 0.000 0.000     15.210 15.110 15.21 15.630 15.490 15.110 100.000 100.000 0.000 15.23 15.640 15.500 15.120 15.20 15.600 15.470 15.090 15.230 15.120 15.200 15.090 17.284 17.284 0.000 17.173 17.173 0.000
PRIMET_226 2021-06-13 03:40:00 226 3904.0 0.00 195 0.000 0.000     15.290 15.170 15.29 15.670 15.530 15.170 100.000 100.000 0.000 15.34 15.740 15.610 15.200 15.23 15.600 15.470 15.120 15.340 15.200 15.230 15.120 17.373 17.373 0.000 17.239 17.239 0.000
PRIMET_226 2021-06-13 03:35:00 226 3904.0 0.00 191 0.000 0.000     15.290 15.170 15.29 15.720 15.580 15.170 100.000 100.000 0.000 15.34 15.750 15.610 15.190 15.24 15.670 15.530 15.140 15.340 15.190 15.240 15.140 17.373 17.373 0.000 17.239 17.239 0.000
PRIMET_226 2021-06-13 03:30:00 226 3904.0 0.00 197 0.000 0.000     15.210 15.150 15.21 15.630 15.500 15.150 100.000 100.000 0.000 15.24 15.670 15.530 15.180 15.19 15.610 15.480 15.130 15.240 15.180 15.190 15.130 17.284 17.284 0.000 17.217 17.217 0.000
PRIMET_226 2021-06-13 03:25:00 226 3904.0 0.00 201 0.000 0.000     15.240 15.210 15.24 15.670 15.560 15.210 100.000 100.000 0.000 15.31 15.720 15.610 15.260 15.19 15.620 15.520 15.180 15.310 15.260 15.190 15.180 17.317 17.317 0.000 17.284 17.284 0.000
PRIMET_226 2021-06-13 03:20:00 226 3904.0 0.00 197 0.000 0.000     15.350 15.270 15.35 15.780 15.660 15.270 100.000 100.000 0.000 15.37 15.810 15.680 15.290 15.32 15.740 15.620 15.250 15.370 15.290 15.320 15.250 17.440 17.440 0.000 17.351 17.351 0.000
PRIMET_226 2021-06-13 03:15:00 226 3904.0 0.00 197 0.000 0.000     15.350 15.260 15.35 15.780 15.650 15.260 100.000 100.000 0.000 15.38 15.800 15.670 15.270 15.31 15.750 15.630 15.240 15.380 15.270 15.310 15.240 17.440 17.440 0.000 17.339 17.339 0.000
PRIMET_226 2021-06-13 03:10:00 226 3904.0 0.00 196 0.000 0.000     15.380 15.280 15.38 15.790 15.660 15.280 100.000 100.000 0.000 15.42 15.840 15.700 15.300 15.31 15.750 15.610 15.260 15.420 15.300 15.310 15.260 17.474 17.474 0.000 17.362 17.362 0.000
PRIMET_226 2021-06-13 03:05:00 226 3904.0 0.00 195 0.000 0.000     15.370 15.260 15.37 15.800 15.660 15.260 100.000 100.000 0.000 15.42 15.850 15.700 15.280 15.32 15.750 15.620 15.240 15.420 15.280 15.320 15.240 17.462 17.462 0.000 17.339 17.339 0.000
PRIMET_226 2021-06-13 03:00:00 226 3904.0 0.00 195 0.000 0.000     15.350 15.270 15.35 15.770 15.650 15.270 100.000 100.000 0.000 15.38 15.790 15.670 15.290 15.32 15.750 15.620 15.240 15.380 15.290 15.320 15.240 17.440 17.440 0.000 17.351 17.351 0.000
PRIMET_226 2021-06-13 02:55:00 226 3904.0 0.00 213 0.000 0.000     15.400 15.280 15.40 15.820 15.680 15.280 100.000 100.000 0.000 15.42 15.860 15.720 15.300 15.36 15.780 15.640 15.240 15.420 15.300 15.360 15.240 17.496 17.496 0.000 17.362 17.362 0.000
PRIMET_226 2021-06-13 02:50:00 226 3904.0 0.00 197 0.000 0.000     15.350 15.260 15.35 15.770 15.630 15.260 100.000 100.000 0.000 15.37 15.780 15.650 15.270 15.33 15.750 15.620 15.240 15.370 15.270 15.330 15.240 17.440 17.440 0.000 17.339 17.339 0.000
PRIMET_226 2021-06-13 02:45:00 226 3904.0 0.00 191 0.000 0.000     15.360 15.280 15.36 15.780 15.640 15.280 100.000 100.000 0.000 15.40 15.820 15.680 15.290 15.34 15.750 15.610 15.250 15.400 15.290 15.340 15.250 17.451 17.451 0.000 17.362 17.362 0.000
PRIMET_226 2021-06-13 02:40:00 226 3904.0 0.00 197 0.000 0.000     15.390 15.270 15.39 15.820 15.670 15.270 100.000 100.000 0.000 15.40 15.830 15.690 15.290 15.38 15.800 15.660 15.250 15.400 15.290 15.380 15.250 17.485 17.485 0.000 17.351 17.351 0.000
PRIMET_226 2021-06-13 02:35:00 226 3904.0 0.00 0 0.000 0.000     15.380 15.280 15.38 15.790 15.660 15.280 100.000 100.000 0.000 15.39 15.800 15.670 15.290 15.36 15.770 15.650 15.250 15.390 15.290 15.360 15.250 17.474 17.474 0.000 17.362 17.362 0.000
PRIMET_226 2021-06-13 02:30:00 226 3904.0 0.00 426 0.000 0.000     15.400 15.280 15.40 15.810 15.670 15.280 100.000 100.000 0.000 15.41 15.830 15.680 15.290 15.39 15.790 15.660 15.270 15.410 15.290 15.390 15.270 17.496 17.496 0.000 17.362 17.362 0.000
PRIMET_226 2021-06-13 02:25:00 226 3904.0 0.00 195 0.000 0.000     15.420 15.300 15.42 15.810 15.670 15.300 100.000 100.000 0.000 15.45 15.840 15.720 15.320 15.40 15.800 15.650 15.270 15.450 15.320 15.400 15.270 17.518 17.518 0.000 17.384 17.384 0.000
PRIMET_226 2021-06-13 02:20:00 226 3904.0 0.00 195 0.000 0.000     15.450 15.300 15.45 15.870 15.710 15.300 100.000 100.000 0.000 15.47 15.890 15.730 15.320 15.43 15.850 15.680 15.270 15.470 15.320 15.430 15.270 17.552 17.552 0.000 17.384 17.384 0.000
PRIMET_226 2021-06-13 02:15:00 226 3904.0 0.00 195 0.000 0.000     15.390 15.280 15.39 15.810 15.670 15.280 100.000 100.000 0.000 15.43 15.850 15.690 15.310 15.37 15.790 15.660 15.260 15.430 15.310 15.370 15.260 17.485 17.485 0.000 17.362 17.362 0.000
PRIMET_226 2021-06-13 02:10:00 226 3904.0 0.00 241 0.000 0.000     15.380 15.300 15.38 15.800 15.670 15.300 100.000 100.000 0.000 15.41 15.810 15.690 15.310 15.36 15.790 15.650 15.270 15.410 15.310 15.360 15.270 17.474 17.474 0.000 17.384 17.384 0.000
PRIMET_226 2021-06-13 02:05:00 226 3904.0 0.00 358 0.000 0.000     15.450 15.330 15.45 15.850 15.710 15.330 100.000 100.000 0.000 15.47 15.880 15.740 15.340 15.42 15.800 15.660 15.310 15.470 15.340 15.420 15.310 17.552 17.552 0.000 17.418 17.418 0.000
PRIMET_226 2021-06-13 02:00:00 226 3904.0 0.00 194 0.000 0.000     15.460 15.330 15.46 15.870 15.720 15.330 100.000 100.000 0.000 15.47 15.880 15.740 15.340 15.44 15.850 15.710 15.310 15.470 15.340 15.440 15.310 17.563 17.563 0.000 17.418 17.418 0.000
PRIMET_226 2021-06-13 01:55:00 226 3904.0 0.00 190 0.000 0.000     15.440 15.310 15.44 15.860 15.710 15.310 100.000 100.000 0.000 15.47 15.890 15.740 15.340 15.40 15.820 15.680 15.290 15.470 15.340 15.400 15.290 17.541 17.541 0.000 17.395 17.395 0.000
PRIMET_226 2021-06-13 01:50:00 226 3904.0 0.00 196 0.000 0.000     15.370 15.300 15.37 15.810 15.680 15.300 100.000 100.000 0.000 15.40 15.830 15.680 15.310 15.35 15.800 15.660 15.290 15.400 15.310 15.350 15.290 17.462 17.462 0.000 17.384 17.384 0.000
PRIMET_226 2021-06-13 01:45:00 226 3904.0 0.00 303 0.000 0.000     15.360 15.280 15.36 15.770 15.640 15.280 100.000 100.000 0.000 15.39 15.800 15.660 15.300 15.34 15.750 15.620 15.260 15.390 15.300 15.340 15.260 17.451 17.451 0.000 17.362 17.362 0.000
PRIMET_226 2021-06-13 01:40:00 226 3904.0 0.00 330 0.000 0.000     15.420 15.310 15.42 15.820 15.690 15.310 100.000 100.000 0.000 15.44 15.860 15.720 15.330 15.39 15.780 15.630 15.290 15.440 15.330 15.390 15.290 17.518 17.518 0.000 17.395 17.395 0.000
PRIMET_226 2021-06-13 01:35:00 226 3904.0 0.00 290 0.000 0.000     15.430 15.310 15.43 15.840 15.700 15.310 100.000 100.000 0.000 15.44 15.850 15.710 15.320 15.41 15.830 15.690 15.300 15.440 15.320 15.410 15.300 17.530 17.530 0.000 17.395 17.395 0.000
PRIMET_226 2021-06-13 01:30:00 226 3904.0 0.00 454 0.000 0.000     15.440 15.330 15.44 15.830 15.720 15.330 100.000 100.000 0.000 15.47 15.880 15.750 15.370 15.41 15.810 15.700 15.300 15.470 15.370 15.410 15.300 17.541 17.541 0.000 17.418 17.418 0.000
PRIMET_226 2021-06-13 01:25:00 226 3904.0 0.00 254 0.000 0.000     15.440 15.330 15.44 15.860 15.730 15.330 100.000 100.000 0.000 15.47 15.900 15.760 15.360 15.39 15.810 15.690 15.290 15.470 15.360 15.390 15.290 17.541 17.541 0.000 17.418 17.418 0.000
PRIMET_226 2021-06-13 01:20:00 226 3904.0 0.00 357 0.000 0.000     15.390 15.310 15.39 15.820 15.690 15.310 100.000 100.000 0.000 15.41 15.830 15.690 15.320 15.38 15.810 15.680 15.290 15.410 15.320 15.380 15.290 17.485 17.485 0.000 17.395 17.395 0.000
PRIMET_226 2021-06-13 01:15:00 226 3904.0 0.00 324 0.000 0.000     15.370 15.300 15.37 15.800 15.680 15.300 100.000 100.000 0.000 15.39 15.830 15.710 15.320 15.35 15.770 15.650 15.280 15.390 15.320 15.350 15.280 17.462 17.462 0.000 17.384 17.384 0.000
PRIMET_226 2021-06-13 01:10:00 226 3904.0 0.00 0 0.000 0.000     15.350 15.300 15.35 15.760 15.650 15.300 100.000 100.000 0.000 15.39 15.770 15.670 15.310 15.34 15.760 15.640 15.280 15.390 15.310 15.340 15.280 17.440 17.440 0.000 17.384 17.384 0.000
PRIMET_226 2021-06-13 01:05:00 226 3904.0 0.00 344 0.000 0.000     15.410 15.330 15.41 15.820 15.690 15.330 100.000 100.000 0.000 15.42 15.860 15.710 15.340 15.38 15.780 15.670 15.310 15.420 15.340 15.380 15.310 17.507 17.507 0.000 17.418 17.418 0.000
PRIMET_226 2021-06-13 01:00:00 226 3904.0 0.00 380 0.000 0.000     15.390 15.320 15.39 15.820 15.690 15.320 100.000 100.000 0.000 15.41 15.840 15.710 15.330 15.38 15.800 15.670 15.300 15.410 15.330 15.380 15.300 17.485 17.485 0.000 17.406 17.406 0.000
PRIMET_226 2021-06-13 00:55:00 226 3904.0 0.00 355 0.000 0.000     15.400 15.340 15.40 15.830 15.700 15.340 100.000 100.000 0.000 15.42 15.850 15.720 15.360 15.38 15.810 15.680 15.320 15.420 15.360 15.380 15.320 17.496 17.496 0.000 17.429 17.429 0.000
PRIMET_226 2021-06-13 00:50:00 226 3904.0 0.00 292 0.000 0.000     15.430 15.360 15.43 15.840 15.710 15.360 100.000 100.000 0.000 15.45 15.860 15.730 15.390 15.40 15.810 15.680 15.330 15.450 15.390 15.400 15.330 17.530 17.530 0.000 17.451 17.451 0.000
PRIMET_226 2021-06-13 00:45:00 226 3904.0 0.00 351 0.000 0.000     15.440 15.360 15.44 15.850 15.720 15.360 100.000 100.000 0.000 15.46 15.870 15.740 15.380 15.42 15.810 15.700 15.350 15.460 15.380 15.420 15.350 17.541 17.541 0.000 17.451 17.451 0.000
PRIMET_226 2021-06-13 00:40:00 226 3904.0 0.00 340 0.000 0.000     15.460 15.360 15.46 15.870 15.740 15.360 100.000 100.000 0.000 15.49 15.890 15.750 15.370 15.44 15.840 15.720 15.350 15.490 15.370 15.440 15.350 17.563 17.563 0.000 17.451 17.451 0.000
PRIMET_226 2021-06-13 00:35:00 226 3904.0 0.00 196 0.000 0.000     15.440 15.360 15.44 15.850 15.720 15.360 100.000 100.000 0.000 15.45 15.860 15.730 15.370 15.42 15.840 15.710 15.340 15.450 15.370 15.420 15.340 17.541 17.541 0.000 17.451 17.451 0.000
PRIMET_226 2021-06-13 00:30:00 226 3904.0 0.00 328 0.000 0.000     15.440 15.380 15.44 15.860 15.730 15.380 100.000 100.000 0.000 15.47 15.880 15.750 15.400 15.41 15.850 15.710 15.360 15.470 15.400 15.410 15.360 17.541 17.541 0.000 17.474 17.474 0.000
PRIMET_226 2021-06-13 00:25:00 226 3904.0 0.00 324 0.000 0.000     15.490 15.430 15.49 15.900 15.780 15.430 100.000 100.000 0.000 15.51 15.930 15.810 15.450 15.46 15.870 15.730 15.400 15.510 15.450 15.460 15.400 17.597 17.597 0.000 17.530 17.530 0.000
PRIMET_226 2021-06-13 00:20:00 226 3904.0 0.00 195 0.000 0.000     15.530 15.450 15.53 15.930 15.800 15.450 100.000 100.000 0.000 15.56 15.990 15.840 15.470 15.50 15.910 15.780 15.430 15.560 15.470 15.500 15.430 17.642 17.642 0.000 17.552 17.552 0.000
PRIMET_226 2021-06-13 00:15:00 226 3904.0 0.00 393 0.000 0.000     15.560 15.470 15.56 15.980 15.840 15.470 100.000 100.000 0.000 15.57 16.000 15.860 15.490 15.54 15.940 15.810 15.440 15.570 15.490 15.540 15.440 17.676 17.676 0.000 17.575 17.575 0.000
PRIMET_226 2021-06-13 00:10:00 226 3904.0 0.00 525 0.000 0.000     15.510 15.420 15.51 15.910 15.770 15.420 100.000 100.000 0.000 15.53 15.950 15.810 15.440 15.49 15.890 15.740 15.400 15.530 15.440 15.490 15.400 17.620 17.620 0.000 17.518 17.518 0.000
PRIMET_226 2021-06-13 00:05:00 226 3904.0 0.00 195 0.000 0.000     15.520 15.440 15.52 15.930 15.790 15.440 100.000 100.000 0.000 15.54 15.940 15.810 15.450 15.50 15.900 15.760 15.430 15.540 15.450 15.500 15.430 17.631 17.631 0.000 17.541 17.541 0.000
PRIMET_226 2021-06-13 00:00:00 226 3904.0 0.00 451 0.000 0.000     15.520 15.440 15.53 15.930 15.800 15.450 99.900 99.900 0.000 15.55 15.930 15.810 15.470 15.51 15.920 15.780 15.440 15.540 15.450 15.500 15.420 17.642 17.631 0.018 17.552 17.541 0.018
PRIMET_226 2021-06-12 23:55:00 226 3904.0 0.00 194 0.000 0.000     15.560 15.470 15.57 15.960 15.830 15.490 99.900 99.900 0.000 15.60 15.990 15.850 15.520 15.54 15.940 15.810 15.470 15.590 15.500 15.530 15.450 17.688 17.676 0.018 17.597 17.575 0.018
PRIMET_226 2021-06-12 23:50:00 226 3904.0 0.00 322 0.000 0.000     15.580 15.480 15.60 15.990 15.860 15.510 99.900 99.800 0.000 15.61 16.000 15.870 15.520 15.57 15.980 15.840 15.490 15.590 15.490 15.550 15.470 17.722 17.699 0.018 17.620 17.586 0.035
PRIMET_226 2021-06-12 23:45:00 226 3904.0 0.00 316 0.000 0.000     15.600 15.500 15.62 16.010 15.880 15.530 99.800 99.800 0.000 15.66 16.030 15.910 15.550 15.60 15.990 15.860 15.510 15.640 15.520 15.570 15.480 17.745 17.722 0.035 17.642 17.609 0.035
PRIMET_226 2021-06-12 23:40:00 226 3904.0 0.00 295 0.000 0.000     15.690 15.560 15.71 16.080 15.950 15.590 99.800 99.800 0.000 15.78 16.170 16.010 15.630 15.65 16.030 15.900 15.550 15.750 15.610 15.630 15.520 17.847 17.824 0.036 17.710 17.676 0.035
PRIMET_226 2021-06-12 23:35:00 226 3904.0 0.00 336 0.000 0.000     15.740 15.600 15.77 16.180 16.030 15.630 99.800 99.800 0.000 15.79 16.200 16.050 15.650 15.71 16.150 16.010 15.600 15.770 15.630 15.670 15.570 17.916 17.881 0.036 17.756 17.722 0.036
PRIMET_226 2021-06-12 23:30:00 226 3904.0 0.00 320 0.000 0.000     15.620 15.540 15.68 16.090 15.950 15.590 99.600 99.700 0.000 15.72 16.140 16.000 15.610 15.66 16.060 15.930 15.580 15.680 15.570 15.600 15.520 17.813 17.745 0.071 17.710 17.654 0.053
PRIMET_226 2021-06-12 23:25:00 226 3904.0 0.00 195 0.000 0.000     15.660 15.570 15.72 16.100 15.960 15.620 99.600 99.600 0.000 15.77 16.160 16.010 15.660 15.67 16.060 15.930 15.590 15.710 15.610 15.600 15.530 17.859 17.790 0.071 17.745 17.688 0.071
PRIMET_226 2021-06-12 23:20:00 226 3904.0 0.00 194 0.000 0.000     15.750 15.620 15.81 16.190 16.040 15.670 99.600 99.600 0.000 15.83 16.220 16.060 15.700 15.77 16.160 16.010 15.660 15.760 15.640 15.710 15.600 17.962 17.893 0.072 17.801 17.745 0.071
PRIMET_226 2021-06-12 23:15:00 226 3904.0 0.00 194 0.000 0.000     15.750 15.630 15.82 16.210 16.060 15.700 99.500 99.600 0.000 15.83 16.230 16.070 15.720 15.81 16.200 16.050 15.680 15.760 15.660 15.730 15.610 17.973 17.893 0.090 17.836 17.756 0.071
PRIMET_226 2021-06-12 23:10:00 226 3904.0 0.00 294 0.000 0.000     15.730 15.620 15.82 16.210 16.060 15.700 99.500 99.500 0.000 15.83 16.220 16.070 15.720 15.81 16.200 16.050 15.680 15.750 15.650 15.720 15.590 17.973 17.870 0.090 17.836 17.745 0.089
PRIMET_226 2021-06-12 23:05:00 226 3904.0 0.00 0 0.000 0.000     15.700 15.600 15.80 16.200 16.050 15.700 99.400 99.400 0.000 15.83 16.210 16.060 15.720 15.78 16.190 16.040 15.680 15.720 15.620 15.680 15.580 17.950 17.836 0.108 17.836 17.722 0.107
PRIMET_226 2021-06-12 23:00:00 226 3904.0 0.00 271 0.000 0.000     15.740 15.660 15.85 16.230 16.100 15.760 99.300 99.300 0.000 15.90 16.280 16.140 15.800 15.82 16.210 16.060 15.710 15.780 15.690 15.710 15.610 18.008 17.881 0.126 17.904 17.790 0.125
PRIMET_226 2021-06-12 22:55:00 226 3904.0 0.00 190 0.004 0.004 14.220 0.020 15.830 15.720 15.95 16.330 16.190 15.830 99.200 99.300 0.059 15.98 16.380 16.240 15.850 15.91 16.290 16.140 15.800 15.860 15.750 15.790 15.690 18.123 17.985 0.145 17.985 17.859 0.126
PRIMET_226 2021-06-12 22:50:00 226 3904.0 0.00 364 0.174 0.174 13.890 0.340 15.800 15.740 15.95 16.370 16.240 15.860 99.000 99.300 0.359 15.98 16.400 16.270 15.880 15.91 16.340 16.210 15.830 15.850 15.770 15.750 15.690 18.123 17.950 0.181 18.019 17.881 0.126
PRIMET_226 2021-06-12 22:45:00 226 3904.0 0.00 197 0.000 0.000     15.700 15.660 15.91 16.320 16.180 15.810 98.600 99.000 0.000 15.94 16.350 16.210 15.830 15.89 16.290 16.150 15.790 15.740 15.690 15.660 15.620 18.077 17.836 0.253 17.962 17.790 0.180
PRIMET_226 2021-06-12 22:40:00 226 3904.0 0.00 195 0.000 0.000     15.680 15.680 15.93 16.330 16.200 15.870 98.400 98.800 0.000 15.96 16.370 16.240 15.900 15.89 16.280 16.150 15.810 15.700 15.720 15.650 15.630 18.100 17.813 0.290 18.031 17.813 0.216
PRIMET_226 2021-06-12 22:35:00 226 3904.0 0.00 178 0.000 0.000     15.640 15.680 15.95 16.360 16.240 15.900 98.100 98.600 0.000 15.97 16.370 16.250 15.920 15.92 16.350 16.230 15.880 15.660 15.710 15.630 15.660 18.123 17.767 0.344 18.065 17.813 0.253
PRIMET_226 2021-06-12 22:30:00 226 3904.0 0.00 192 0.000 0.000     15.610 15.650 15.99 16.390 16.250 15.930 97.600 98.300 0.000 16.03 16.420 16.280 15.970 15.96 16.380 16.240 15.900 15.640 15.680 15.590 15.630 18.170 17.733 0.436 18.100 17.779 0.308
PRIMET_226 2021-06-12 22:25:00 226 3904.0 0.00 0 0.000 0.000     15.680 15.690 16.10 16.480 16.330 16.010 97.400 98.000 0.000 16.13 16.520 16.380 16.050 16.04 16.410 16.260 15.960 15.720 15.700 15.630 15.670 18.298 17.813 0.476 18.193 17.824 0.364
PRIMET_226 2021-06-12 22:20:00 226 3904.0 0.00 379 0.000 0.000     15.650 15.620 16.12 16.540 16.390 16.050 97.000 97.300 0.000 16.14 16.550 16.410 16.060 16.11 16.530 16.380 16.020 15.690 15.690 15.610 15.550 18.321 17.779 0.550 18.239 17.745 0.492
PRIMET_226 2021-06-12 22:15:00 226 3904.0 0.00 190 0.000 0.000     15.620 15.550 16.15 16.570 16.440 16.120 96.700 96.400 0.000 16.19 16.610 16.500 16.200 16.12 16.550 16.400 16.060 15.640 15.580 15.610 15.530 18.356 17.745 0.606 18.321 17.665 0.660
PRIMET_226 2021-06-12 22:10:00 226 3904.0 0.00 0 0.000 0.000     15.680 15.630 16.21 16.670 16.570 16.220 96.700 96.300 0.000 16.23 16.700 16.590 16.230 16.17 16.620 16.510 16.190 15.720 15.660 15.640 15.570 18.426 17.813 0.608 18.438 17.756 0.682
PRIMET_226 2021-06-12 22:05:00 226 3904.0 0.00 209 0.000 0.000     15.610 15.580 16.17 16.610 16.540 16.230 96.500 96.000 0.000 16.21 16.640 16.570 16.260 16.15 16.590 16.510 16.190 15.640 15.600 15.600 15.540 18.379 17.733 0.643 18.450 17.699 0.738
PRIMET_226 2021-06-12 22:00:00 226 3904.0 0.00 209 0.000 0.000     15.660 15.630 16.22 16.690 16.620 16.270 96.400 96.000 0.000 16.24 16.710 16.640 16.290 16.21 16.640 16.570 16.250 15.680 15.680 15.640 15.590 18.438 17.790 0.664 18.497 17.756 0.740
PRIMET_226 2021-06-12 21:55:00 226 3904.0 0.00 200 0.000 0.000     15.660 15.610 16.24 16.690 16.610 16.260 96.400 95.900 0.000 16.25 16.710 16.620 16.280 16.21 16.680 16.590 16.240 15.690 15.670 15.630 15.550 18.462 17.790 0.665 18.485 17.733 0.758
PRIMET_226 2021-06-12 21:50:00 226 3904.0 0.00 206 0.000 0.000     15.690 15.630 16.27 16.710 16.610 16.290 96.300 95.900 0.000 16.30 16.750 16.640 16.310 16.25 16.680 16.570 16.250 15.710 15.660 15.670 15.580 18.497 17.824 0.684 18.521 17.756 0.759
PRIMET_226 2021-06-12 21:45:00 226 3904.0 0.00 199 0.000 0.000     15.690 15.610 16.29 16.740 16.640 16.320 96.300 95.600 0.000 16.30 16.750 16.650 16.330 16.28 16.730 16.630 16.300 15.700 15.680 15.670 15.550 18.521 17.824 0.685 18.556 17.733 0.816
PRIMET_226 2021-06-12 21:40:00 226 3904.0 0.00 201 0.000 0.000     15.670 15.570 16.31 16.770 16.680 16.360 96.000 95.100 0.000 16.34 16.790 16.730 16.390 16.28 16.740 16.650 16.330 15.700 15.590 15.650 15.560 18.544 17.801 0.742 18.603 17.688 0.912
PRIMET_226 2021-06-12 21:35:00 226 3904.0 0.00 228 0.000 0.000     15.680 15.570 16.36 16.810 16.740 16.410 95.800 94.800 0.000 16.38 16.850 16.750 16.440 16.33 16.790 16.720 16.380 15.700 15.600 15.670 15.550 18.603 17.813 0.781 18.663 17.688 0.970
PRIMET_226 2021-06-12 21:30:00 226 3904.0 0.00 197 0.000 0.000     15.690 15.620 16.39 16.860 16.780 16.450 95.600 94.800 0.000 16.40 16.870 16.790 16.470 16.37 16.850 16.760 16.430 15.710 15.660 15.670 15.590 18.639 17.824 0.820 18.710 17.745 0.973
PRIMET_226 2021-06-12 21:25:00 226 3904.0 0.00 197 0.000 0.000     15.740 15.660 16.43 16.880 16.810 16.500 95.600 94.800 0.000 16.46 16.910 16.840 16.550 16.40 16.850 16.780 16.470 15.770 15.720 15.700 15.610 18.686 17.881 0.822 18.770 17.790 0.976
PRIMET_226 2021-06-12 21:20:00 226 3904.0 0.00 197 0.000 0.000     15.780 15.770 16.50 16.940 16.880 16.580 95.500 94.900 0.000 16.53 16.980 16.930 16.600 16.47 16.900 16.840 16.540 15.800 15.850 15.760 15.700 18.770 17.927 0.845 18.866 17.916 0.962
PRIMET_226 2021-06-12 21:15:00 226 3904.0 0.00 197 0.000 0.000     15.820 15.800 16.53 16.990 16.930 16.600 95.600 95.000 0.000 16.56 17.000 16.950 16.620 16.52 16.970 16.910 16.580 15.850 15.850 15.800 15.750 18.806 17.973 0.827 18.890 17.950 0.944
PRIMET_226 2021-06-12 21:10:00 226 3904.0 0.00 196 0.000 0.000     15.830 15.790 16.56 17.010 16.940 16.620 95.400 94.800 0.000 16.59 17.030 16.970 16.640 16.53 16.990 16.920 16.600 15.840 15.820 15.820 15.760 18.842 17.985 0.867 18.914 17.939 0.984
PRIMET_226 2021-06-12 21:05:00 226 3904.0 0.00 208 0.000 0.000     15.900 15.860 16.65 17.080 16.990 16.700 95.300 94.800 0.000 16.71 17.160 17.040 16.740 16.59 17.030 16.950 16.650 15.960 15.970 15.830 15.780 18.950 18.065 0.891 19.010 18.019 0.989
PRIMET_226 2021-06-12 21:00:00 226 3904.0 0.00 212 0.000 0.000     16.000 15.970 16.73 17.170 17.070 16.750 95.400 95.100 0.000 16.76 17.200 17.090 16.780 16.71 17.140 17.040 16.740 16.040 16.010 15.960 15.930 19.046 18.181 0.876 19.071 18.146 0.934
PRIMET_226 2021-06-12 20:55:00 226 3904.0 0.00 204 0.000 0.000     15.950 15.870 16.74 17.150 17.040 16.730 95.100 94.600 0.000 16.77 17.180 17.060 16.760 16.71 17.140 17.030 16.710 15.970 15.930 15.930 15.840 19.058 18.123 0.934 19.046 18.031 1.029
PRIMET_226 2021-06-12 20:50:00 226 3904.0 0.00 211 0.000 0.000     16.000 16.020 16.81 17.230 17.120 16.800 95.000 95.100 0.000 16.84 17.260 17.160 16.830 16.77 17.180 17.060 16.760 16.040 16.100 15.970 15.900 19.143 18.181 0.957 19.131 18.204 0.937
PRIMET_226 2021-06-12 20:45:00 226 3904.0 0.00 201 0.000 0.000     16.060 16.020 16.86 17.280 17.160 16.830 95.000 95.000 0.000 16.88 17.310 17.190 16.850 16.83 17.260 17.130 16.800 16.080 16.070 16.040 15.970 19.204 18.251 0.960 19.168 18.204 0.958
PRIMET_226 2021-06-12 20:40:00 226 3904.0 0.00 234 0.000 0.000     16.060 16.010 16.90 17.310 17.190 16.870 94.800 94.700 0.000 16.93 17.340 17.200 16.880 16.87 17.290 17.170 16.850 16.080 16.090 16.040 15.940 19.253 18.251 1.001 19.216 18.193 1.018
PRIMET_226 2021-06-12 20:35:00 226 3904.0 0.00 216 0.000 0.000     16.100 16.040 16.99 17.380 17.260 16.940 94.500 94.500 0.000 17.05 17.450 17.310 16.990 16.93 17.330 17.200 16.880 16.170 16.100 16.050 15.990 19.363 18.298 1.065 19.302 18.228 1.062
PRIMET_226 2021-06-12 20:30:00 226 3904.0 0.00 209 0.000 0.000     16.210 16.180 17.06 17.510 17.380 17.020 94.700 94.800 0.000 17.09 17.540 17.410 17.040 17.02 17.460 17.310 17.000 16.270 16.220 16.150 16.120 19.449 18.426 1.031 19.400 18.391 1.009
PRIMET_226 2021-06-12 20:25:00 226 3904.0 0.00 197 0.011 0.011 14.350 0.020 16.140 16.060 17.07 17.470 17.350 17.040 94.300 94.000 0.137 17.12 17.550 17.430 17.080 17.01 17.420 17.290 16.990 16.170 16.160 16.110 16.000 19.461 18.344 1.109 19.425 18.251 1.165
PRIMET_226 2021-06-12 20:20:00 226 3904.0 0.00 208 0.005 0.005 14.350 0.013 16.240 16.170 17.17 17.580 17.440 17.110 94.300 94.200 0.098 17.23 17.630 17.490 17.150 17.11 17.550 17.410 17.080 16.360 16.260 16.130 16.100 19.585 18.462 1.116 19.511 18.379 1.132
PRIMET_226 2021-06-12 20:15:00 226 3904.0 0.00 201 0.000 0.000     16.360 16.310 17.20 17.640 17.510 17.160 94.800 94.800 0.000 17.22 17.660 17.520 17.180 17.18 17.600 17.490 17.140 16.390 16.340 16.280 16.250 19.622 18.603 1.020 19.573 18.544 1.018
PRIMET_226 2021-06-12 20:10:00 226 3904.0 0.00 195 0.000 0.000     16.260 16.170 17.22 17.630 17.510 17.210 94.100 93.600 0.000 17.28 17.690 17.590 17.280 17.17 17.570 17.460 17.140 16.300 16.260 16.220 16.090 19.647 18.485 1.159 19.635 18.379 1.257
PRIMET_226 2021-06-12 20:05:00 226 3904.0 0.00 198 0.000 0.000     16.340 16.280 17.30 17.730 17.630 17.290 94.100 93.800 0.000 17.33 17.750 17.660 17.310 17.27 17.700 17.600 17.260 16.430 16.360 16.270 16.230 19.747 18.580 1.165 19.734 18.509 1.224
PRIMET_226 2021-06-12 20:00:00 226 3904.0 0.00 208 0.000 0.000     16.310 16.220 17.33 17.730 17.620 17.300 93.700 93.400 0.000 17.37 17.760 17.650 17.340 17.31 17.710 17.590 17.280 16.420 16.360 16.220 16.100 19.784 18.544 1.246 19.747 18.438 1.303
PRIMET_226 2021-06-12 19:55:00 226 3904.0 0.00 197 0.000 0.000     16.340 16.240 17.46 17.830 17.700 17.420 93.100 92.800 0.000 17.52 17.910 17.780 17.450 17.38 17.740 17.610 17.360 16.400 16.330 16.260 16.130 19.947 18.580 1.376 19.897 18.462 1.433
PRIMET_226 2021-06-12 19:50:00 226 3904.0 0.00 217 0.048 0.048 14.190 0.052 16.410 16.300 17.54 17.960 17.820 17.490 93.000 92.800 0.353 17.57 18.000 17.860 17.510 17.51 17.910 17.770 17.450 16.470 16.380 16.340 16.210 20.048 18.663 1.403 19.985 18.532 1.439
PRIMET_226 2021-06-12 19:45:00 226 3904.0 0.00 204 0.002 0.002 14.250 0.014 16.390 16.300 17.54 17.940 17.810 17.500 93.000 92.700 0.039 17.56 17.980 17.840 17.510 17.53 17.900 17.770 17.480 16.480 16.390 16.310 16.080 20.048 18.639 1.403 19.998 18.532 1.460
PRIMET_226 2021-06-12 19:40:00 226 3904.0 0.00 200 0.000 0.000     16.350 16.150 17.62 17.980 17.850 17.590 92.300 91.300 0.000 17.69 18.050 17.930 17.650 17.55 17.920 17.770 17.520 16.420 16.240 16.280 16.080 20.150 18.592 1.552 20.112 18.356 1.750
PRIMET_226 2021-06-12 19:35:00 226 3904.0 0.00 195 0.000 0.000     16.400 16.280 17.78 18.120 18.000 17.710 91.600 91.300 0.000 17.85 18.240 18.090 17.760 17.70 18.050 17.940 17.650 16.550 16.460 16.270 16.110 20.354 18.651 1.710 20.264 18.509 1.763
PRIMET_226 2021-06-12 19:30:00 226 3904.0 0.00 196 0.000 0.000     16.580 16.480 17.87 18.260 18.110 17.790 92.200 92.100 0.000 17.89 18.280 18.130 17.820 17.84 18.240 18.080 17.750 16.650 16.530 16.480 16.420 20.470 18.866 1.597 20.367 18.746 1.609
PRIMET_226 2021-06-12 19:25:00 226 3904.0 0.00 190 0.000 0.000     16.570 16.390 17.94 18.310 18.170 17.870 91.700 91.100 0.000 18.01 18.350 18.210 17.900 17.89 18.270 18.120 17.800 16.650 16.510 16.490 16.310 20.560 18.854 1.706 20.470 18.639 1.822
PRIMET_226 2021-06-12 19:20:00 226 3904.0 0.00 202 0.126 0.126 14.290 0.040 16.650 16.510 18.04 18.410 18.260 17.950 91.600 91.300 0.497 18.08 18.430 18.290 18.000 18.00 18.370 18.240 17.900 16.710 16.570 16.590 16.440 20.690 18.950 1.738 20.573 18.782 1.790
PRIMET_226 2021-06-12 19:15:00 226 3904.0 0.00 196 0.118 0.118 14.510 0.041 16.590 16.410 18.16 18.460 18.320 18.060 90.600 90.100 0.510 18.27 18.550 18.390 18.140 18.08 18.400 18.280 17.990 16.640 16.480 16.530 16.360 20.846 18.878 1.960 20.716 18.663 2.051
PRIMET_226 2021-06-12 19:10:00 226 3904.0 0.00 206 0.028 0.028 14.470 0.024 16.700 16.690 18.33 18.680 18.510 18.220 90.200 90.800 0.327 18.38 18.770 18.610 18.270 18.26 18.540 18.390 18.160 16.840 16.780 16.570 16.460 21.070 19.010 2.065 20.925 18.998 1.925
PRIMET_226 2021-06-12 19:05:00 226 3904.0 0.00 195 0.294 0.294 14.310 0.084 16.770 16.600 18.43 18.800 18.630 18.300 90.100 89.800 0.555 18.46 18.860 18.690 18.330 18.37 18.750 18.590 18.270 16.900 16.770 16.700 16.450 21.202 19.095 2.099 21.030 18.890 2.145
PRIMET_226 2021-06-12 19:00:00 226 3904.0 0.00 203 0.000 0.000     16.870 16.700 18.48 18.830 18.630 18.330 90.300 90.200 0.000 18.50 18.850 18.650 18.360 18.43 18.800 18.610 18.300 16.970 16.800 16.700 16.540 21.269 19.216 2.063 21.070 19.010 2.065
PRIMET_226 2021-06-12 18:55:00 226 3904.0 0.00 197 0.031 0.031 14.300 0.022 17.010 16.870 18.60 18.910 18.710 18.440 90.500 90.600 0.385 18.68 18.980 18.780 18.510 18.52 18.850 18.650 18.350 17.120 16.970 16.870 16.760 21.429 19.388 2.036 21.216 19.216 1.994
PRIMET_226 2021-06-12 18:50:00 226 3904.0 0.00 201 0.027 0.027 14.350 0.024 16.930 16.690 18.75 19.030 18.840 18.570 89.200 88.800 0.307 18.83 19.120 18.930 18.640 18.68 18.990 18.780 18.510 17.060 16.880 16.760 16.410 21.631 19.290 2.336 21.389 18.998 2.396
PRIMET_226 2021-06-12 18:45:00 226 3904.0 0.00 198 0.183 0.183 14.200 0.046 16.970 16.790 18.84 19.140 18.950 18.630 88.900 89.100 0.490 18.86 19.160 18.960 18.640 18.82 19.120 18.930 18.610 17.100 16.910 16.870 16.680 21.753 19.339 2.415 21.470 19.119 2.340
PRIMET_226 2021-06-12 18:40:00 226 3904.0 0.00 181 0.000 0.000     16.850 16.650 18.88 19.170 18.970 18.670 88.000 88.000 0.000 18.94 19.200 19.000 18.700 18.85 19.130 18.940 18.620 16.940 16.760 16.740 16.370 21.808 19.192 2.617 21.523 18.950 2.583
PRIMET_226 2021-06-12 18:35:00 226 3904.0 0.00 205 0.000 0.000     17.030 16.770 19.09 19.340 19.130 18.880 87.900 87.500 0.000 19.22 19.490 19.290 19.010 18.93 19.210 19.000 18.730 17.180 16.950 16.850 16.430 22.095 19.412 2.674 21.808 19.095 2.726
PRIMET_226 2021-06-12 18:30:00 226 3904.0 0.00 0 0.000 0.000     16.910 16.650 19.22 19.520 19.310 19.000 86.500 86.200 0.000 19.26 19.560 19.340 19.020 19.19 19.480 19.280 18.970 17.280 16.880 16.660 16.510 22.275 19.265 3.007 21.972 18.950 3.032
PRIMET_226 2021-06-12 18:25:00 226 3904.0 0.00 379 0.000 0.000     17.110 16.770 19.33 19.540 19.340 19.090 87.000 86.400 0.000 19.43 19.660 19.440 19.140 19.25 19.490 19.300 19.010 17.450 17.040 16.950 16.540 22.428 19.511 2.916 22.095 19.095 3.005
PRIMET_226 2021-06-12 18:20:00 226 3904.0 0.00 298 0.000 0.000     17.070 16.790 19.34 19.640 19.430 19.110 86.700 86.500 0.000 19.41 19.700 19.490 19.140 19.27 19.610 19.400 19.090 17.410 17.110 16.800 16.320 22.442 19.461 2.985 22.123 19.119 2.987
PRIMET_226 2021-06-12 18:15:00 226 3904.0 0.00 190 0.650 0.637 30.340 9.490 17.020 16.930 19.23 19.570 19.360 19.080 87.100 87.400 1.424 19.27 19.620 19.410 19.110 19.20 19.520 19.330 19.060 17.230 17.080 16.820 16.680 22.289 19.400 2.875 22.081 19.290 2.782
PRIMET_226 2021-06-12 18:10:00 226 3904.0 0.00 196 0.134 0.132 31.970 6.199 16.920 16.740 19.17 19.500 19.340 19.090 86.800 86.300 0.640 19.21 19.530 19.370 19.110 19.12 19.470 19.310 19.070 17.210 17.160 16.480 16.140 22.206 19.277 2.931 22.095 19.058 3.027
PRIMET_226 2021-06-12 18:05:00 226 3904.0 0.00 195 0.000 0.000     16.640 16.260 19.18 19.520 19.370 19.130 85.200 83.400 0.000 19.24 19.590 19.430 19.180 19.13 19.470 19.310 19.090 16.830 16.510 16.480 16.050 22.220 18.938 3.288 22.150 18.485 3.677
PRIMET_226 2021-06-12 18:00:00 226 3904.0 0.00 190 0.098 0.082 173.100 20.890 16.790 16.480 19.24 19.600 19.440 19.190 85.700 84.400 0.464 19.28 19.640 19.500 19.230 19.20 19.560 19.380 19.150 17.050 16.790 16.440 16.150 22.303 19.119 3.189 22.233 18.746 3.468
PRIMET_226 2021-06-12 17:55:00 226 3904.0 0.00 198 0.429 0.377 110.000 21.750 16.840 16.630 19.22 19.570 19.430 19.260 86.100 84.700 1.104 19.30 19.670 19.570 19.430 19.18 19.540 19.380 19.150 17.150 16.910 16.630 16.290 22.275 19.180 3.096 22.330 18.926 3.417
PRIMET_226 2021-06-12 17:50:00 226 3904.0 0.00 199 0.841 0.401 173.000 58.630 16.650 16.070 19.18 19.590 19.500 19.200 85.400 82.100 1.352 19.33 19.870 19.810 19.460 19.03 19.330 19.190 18.980 17.100 16.890 14.980 14.630 22.220 18.950 3.244 22.247 18.263 3.982
PRIMET_226 2021-06-12 17:45:00 226 3904.0 0.00 212 0.204 0.125 156.800 38.880 17.190 16.920 19.27 19.520 19.330 19.070 87.800 87.300 0.549 19.35 19.570 19.370 19.130 19.18 19.450 19.270 19.040 17.350 17.090 16.850 16.760 22.344 19.610 2.726 22.068 19.277 2.803
PRIMET_226 2021-06-12 17:40:00 226 3904.0 0.00 199 0.076 0.076 90.400 1.740 17.160 16.530 19.31 19.570 19.340 19.070 87.400 85.300 0.804 19.37 19.640 19.420 19.130 19.25 19.490 19.240 19.000 17.340 17.020 16.900 15.870 22.400 19.573 2.822 22.068 18.806 3.244
PRIMET_226 2021-06-12 17:35:00 226 3904.0 0.00 190 0.000 0.000     17.170 17.010 19.22 19.430 19.240 19.080 87.900 87.800 0.000 19.29 19.540 19.330 19.150 19.18 19.370 19.170 19.050 17.450 17.320 16.900 16.740 22.275 19.585 2.695 22.081 19.388 2.694
PRIMET_226 2021-06-12 17:30:00 226 3904.0 0.00 192 0.345 0.313 136.700 20.610 17.110 16.660 19.43 19.540 19.370 19.350 86.500 84.500 0.941 19.56 19.740 19.590 19.460 19.30 19.380 19.210 19.170 17.370 17.120 16.330 15.470 22.568 19.511 3.047 22.456 18.962 3.481
PRIMET_226 2021-06-12 17:25:00 226 3904.0 0.00 194 0.077 0.076 328.100 6.291 16.910 16.340 19.71 19.870 19.700 19.680 83.900 81.100 0.385 19.89 20.090 19.940 19.910 19.55 19.710 19.540 19.450 17.450 17.240 16.540 15.470 22.964 19.265 3.697 22.921 18.580 4.332
PRIMET_226 2021-06-12 17:20:00 226 3904.0 0.00 218 0.078 0.078 0.983 0.046 17.070 16.500 20.01 20.190 20.070 20.080 83.200 79.920 0.523 20.16 20.330 20.240 20.230 19.90 20.070 19.930 19.920 17.570 17.130 16.670 15.830 23.395 19.461 3.930 23.496 18.770 4.718
PRIMET_226 2021-06-12 17:15:00 226 3904.0 0.00 205 0.255 0.254 317.400 3.662 16.640 15.720 20.37 20.590 20.490 20.470 79.150 74.240 0.849 20.54 20.810 20.710 20.680 20.16 20.340 20.250 20.240 17.250 16.720 16.070 14.830 23.921 18.938 4.988 24.069 17.859 6.200
PRIMET_226 2021-06-12 17:10:00 226 3904.0 0.00 195 0.197 0.162 320.000 22.820 16.670 15.960 20.80 21.020 20.910 20.940 77.260 73.210 1.013 21.03 21.230 21.120 21.180 20.56 20.820 20.710 20.700 17.290 16.610 16.110 15.430 24.563 18.974 5.586 24.776 18.135 6.637
PRIMET_226 2021-06-12 17:05:00 226 3904.0 0.00 195 0.287 0.138 293.700 48.810 15.950 15.340 21.30 21.580 21.470 21.480 71.610 68.180 1.169 21.43 21.730 21.640 21.670 21.05 21.270 21.170 21.220 16.850 16.640 14.410 14.170 25.329 18.123 7.191 25.610 17.429 8.149
PRIMET_226 2021-06-12 17:00:00 226 3904.0 0.00 207 0.224 0.086 354.700 42.700 15.500 14.460 21.59 21.910 21.830 21.870 68.320 62.830 0.830 21.75 22.060 22.010 22.120 21.45 21.750 21.650 21.700 16.060 15.400 14.670 13.330 25.783 17.609 8.168 26.227 16.468 9.749
PRIMET_226 2021-06-12 16:55:00 226 3904.0 0.00 200 0.138 0.101 181.800 22.910 16.650 15.730 22.03 22.260 22.270 22.490 71.600 65.650 0.673 22.41 22.590 22.580 22.890 21.76 22.060 22.010 22.150 17.710 16.800 15.490 14.820 26.485 18.950 7.522 27.236 17.870 9.356
PRIMET_226 2021-06-12 16:50:00 226 3904.0 0.00 201 0.499 0.333 190.000 44.330 14.570 13.340 22.27 22.680 22.690 22.780 61.780 55.400 1.235 22.45 23.110 23.130 22.970 22.13 22.490 22.450 22.590 16.310 15.450 11.760 11.060 26.874 16.586 10.271 27.719 15.313 12.363
PRIMET_226 2021-06-12 16:45:00 226 3904.0 0.00 213 0.426 0.383 258.000 19.160 15.160 13.750 22.41 22.730 22.810 23.160 63.600 55.590 1.810 22.61 22.990 23.110 23.320 22.33 22.560 22.640 22.990 16.180 14.990 13.230 10.840 27.104 17.228 9.866 28.364 15.727 12.596
PRIMET_226 2021-06-12 16:40:00 226 3904.0 0.00 196 0.706 0.365 268.700 54.890 14.920 13.410 22.94 23.390 23.500 23.730 60.790 52.640 1.457 23.08 23.880 24.070 24.080 22.66 22.990 23.050 23.320 17.210 16.310 12.310 10.920 27.989 16.964 10.975 29.355 15.383 13.903
PRIMET_226 2021-06-12 16:35:00 226 3904.0 0.00 211 0.938 0.623 279.500 46.940 14.170 11.910 23.06 23.600 23.670 23.800 57.390 47.420 2.032 23.29 23.820 23.990 24.030 22.97 23.440 23.410 23.610 15.830 14.410 11.780 10.390 28.193 16.162 12.013 29.479 13.941 15.500
PRIMET_226 2021-06-12 16:30:00 226 3904.0 0.00 196 0.230 0.034 262.200 52.820 14.690 12.960 23.22 23.630 23.550 23.630 58.790 51.360 0.653 23.35 23.810 23.680 23.770 23.01 23.190 23.130 23.340 15.910 15.160 12.330 10.220 28.467 16.715 11.731 29.179 14.937 14.193
PRIMET_226 2021-06-12 16:25:00 226 3904.0 0.00 209 0.394 0.298 251.000 37.870 14.660 13.420 23.54 23.770 23.760 23.930 57.520 51.890 0.758 23.82 24.080 24.170 24.360 23.21 23.370 23.320 23.460 15.540 14.900 13.200 12.040 29.022 16.682 12.328 29.710 15.393 14.294
PRIMET_226 2021-06-12 16:20:00 226 3904.0 0.00 213 0.669 0.433 231.300 48.150 13.720 11.880 24.13 24.360 24.400 24.610 52.330 45.040 1.542 24.29 24.660 24.690 24.830 23.86 24.070 24.120 24.390 15.230 14.510 10.780 10.020 30.069 15.697 14.334 30.945 13.914 17.008
PRIMET_226 2021-06-12 16:15:00 226 3904.0 0.00 191 1.177 0.650 223.100 54.170 13.770 11.970 24.79 24.890 24.870 25.110 50.500 44.010 2.169 25.36 25.580 25.480 25.560 24.30 24.350 24.420 24.760 15.480 13.690 10.810 9.800 31.280 15.748 15.483 31.882 13.997 17.851
PRIMET_226 2021-06-12 16:10:00 226 3904.0 0.00 211 1.277 0.920 237.500 42.840 12.530 11.040 25.43 25.650 25.510 25.530 44.840 40.430 2.626 25.59 26.020 25.900 25.750 25.31 25.150 25.040 25.300 15.100 13.210 10.220 9.380 32.494 14.522 17.924 32.687 13.161 19.472
PRIMET_226 2021-06-12 16:05:00 226 3904.0 0.00 193 0.980 0.676 265.100 45.120 13.740 12.340 25.40 25.530 25.470 25.580 48.650 44.020 2.319 25.58 25.970 25.890 25.790 25.22 25.130 25.030 25.400 16.080 15.780 9.990 9.270 32.436 15.717 16.656 32.785 14.342 18.353
PRIMET_226 2021-06-12 16:00:00 226 3904.0 0.00 235 0.750 0.514 224.000 43.090 13.600 11.500 25.08 25.360 25.260 25.020 49.140 42.990 1.973 25.55 25.930 25.900 25.620 24.54 24.460 24.310 24.300 15.350 13.950 10.680 9.750 31.825 15.574 16.186 31.711 13.569 18.079
PRIMET_226 2021-06-12 15:55:00 226 3904.0 0.00 252 0.510 0.356 307.900 43.340 15.240 13.290 24.21 24.290 24.060 23.940 57.430 51.520 1.117 24.58 24.680 24.500 24.340 23.82 23.780 23.510 23.550 17.320 15.830 13.340 11.750 30.214 17.317 12.862 29.728 15.263 14.412
PRIMET_226 2021-06-12 15:50:00 226 3904.0 0.00 210 0.149 0.067 238.300 42.420 15.470 14.710 23.33 23.430 23.240 23.150 61.340 59.090 0.902 23.82 23.860 23.590 23.550 23.10 23.210 23.080 22.950 16.320 15.660 14.520 14.060 28.657 17.575 11.079 28.347 16.736 11.597
PRIMET_226 2021-06-12 15:45:00 226 3904.0 0.00 206 0.420 0.371 265.600 26.770 15.090 13.620 23.43 23.350 23.220 23.180 59.530 55.020 0.830 23.57 23.420 23.310 23.310 23.19 23.220 23.100 23.040 16.430 15.610 14.140 11.530 28.830 17.151 11.667 28.398 15.595 12.774
PRIMET_226 2021-06-12 15:40:00 226 3904.0 0.00 236 0.599 0.540 272.400 25.420 15.280 13.370 23.59 23.440 23.220 23.180 59.700 54.080 1.013 23.84 23.660 23.420 23.300 23.42 23.290 23.080 23.070 16.420 14.600 14.100 11.930 29.109 17.362 11.731 28.398 15.343 13.040
PRIMET_226 2021-06-12 15:35:00 226 3904.0 0.00 216 0.602 0.448 296.900 40.980 15.190 13.110 24.33 24.040 23.690 23.600 56.760 51.850 0.895 24.57 24.360 24.050 23.980 23.91 23.680 23.440 23.320 16.110 14.970 14.100 11.920 30.432 17.262 13.159 29.127 15.085 14.024
PRIMET_226 2021-06-12 15:30:00 226 3904.0 0.00 203 0.696 0.589 243.100 31.690 14.620 12.750 25.10 24.770 24.510 24.400 52.320 48.250 1.019 25.82 25.370 25.030 24.820 24.63 24.370 24.050 24.010 15.640 13.980 13.140 11.740 31.863 16.639 15.192 30.559 14.733 15.814
PRIMET_226 2021-06-12 15:25:00 226 3904.0 0.00 204 0.529 0.082 179.700 72.590 13.800 12.440 25.81 25.810 25.400 24.900 47.790 46.090 1.385 26.16 26.410 25.940 25.290 25.36 25.260 24.810 24.420 15.730 15.060 10.450 10.150 33.234 15.778 17.352 31.486 14.437 16.974
PRIMET_226 2021-06-12 15:20:00 226 3904.0 0.00 188 0.164 0.144 244.400 22.570 14.940 13.380 25.32 25.040 24.470 24.030 52.700 51.410 0.523 25.41 25.230 24.750 24.350 25.20 24.950 24.350 23.920 16.710 14.830 13.540 11.550 32.282 16.986 15.270 29.889 15.353 14.523
PRIMET_226 2021-06-12 15:15:00 226 3904.0 0.00 257 0.050 0.050 244.100 0.046 15.890 14.820 24.78 24.930 24.310 23.870 57.810 57.010 0.470 25.16 25.210 24.430 23.970 24.40 24.490 24.010 23.610 16.940 15.970 13.490 12.800 31.261 18.054 13.189 29.603 16.855 12.727
PRIMET_226 2021-06-12 15:10:00 226 3904.0 0.00 205 0.124 0.124 315.700 0.000 15.780 13.680 24.03 24.260 23.730 23.380 60.010 54.540 0.634 24.35 24.530 24.050 23.520 23.86 23.990 23.460 23.230 16.460 15.910 14.680 12.680 29.889 17.927 11.953 28.743 15.656 13.067
PRIMET_226 2021-06-12 15:05:00 226 3904.0 0.00 317 0.000 0.000     15.410 13.280 23.84 24.200 23.870 23.490 59.260 52.760 0.000 24.07 24.600 24.170 23.650 23.51 23.790 23.540 23.270 16.010 15.060 14.400 12.380 29.550 17.507 12.039 28.934 15.253 13.669
PRIMET_226 2021-06-12 15:00:00 226 3904.0 0.00 198 0.000 0.000     15.070 13.300 23.29 23.490 23.260 23.020 59.950 54.380 0.000 23.46 23.730 23.500 23.250 23.01 23.180 22.890 22.650 15.760 14.740 14.350 12.580 28.587 17.129 11.449 28.125 15.273 12.831
PRIMET_226 2021-06-12 14:55:00 226 3904.0 0.00 190 0.050 0.050 10.090 0.565 15.500 13.980 22.80 22.930 22.610 22.460 63.510 58.720 0.542 23.00 23.160 22.840 22.610 22.67 22.790 22.460 22.340 16.600 15.100 14.570 13.240 27.753 17.609 10.127 27.187 15.964 11.223
PRIMET_226 2021-06-12 14:50:00 226 3904.0 0.00 329 0.000 0.000     15.620 13.960 22.76 22.920 22.580 22.440 64.100 58.720 0.000 22.86 23.070 22.710 22.530 22.65 22.780 22.460 22.360 16.180 14.610 14.990 13.170 27.686 17.745 9.939 27.154 15.943 11.209
PRIMET_226 2021-06-12 14:45:00 226 3904.0 0.00 198 0.000 0.000     15.660 14.390 22.90 23.100 22.780 22.500 63.730 60.240 0.000 22.94 23.190 22.910 22.550 22.85 23.040 22.670 22.430 16.410 15.800 15.110 13.120 27.922 17.790 10.127 27.253 16.394 10.836
PRIMET_226 2021-06-12 14:40:00 226 3904.0 0.00 200 0.000 0.000     15.920 15.060 22.98 23.250 22.920 22.590 64.480 62.490 0.000 23.10 23.420 23.090 22.690 22.88 23.110 22.770 22.500 16.650 15.740 15.180 14.210 28.057 18.088 9.966 27.402 17.118 10.278
PRIMET_226 2021-06-12 14:35:00 226 3904.0 0.00 195 0.000 0.000     15.710 15.120 23.30 23.540 23.220 22.850 62.410 61.760 0.000 23.54 23.770 23.380 23.010 23.09 23.410 23.050 22.700 16.230 16.110 14.770 13.510 28.605 17.847 10.753 27.837 17.184 10.645
PRIMET_226 2021-06-12 14:30:00 226 3904.0 0.00 185 0.000 0.000     16.250 15.340 23.61 23.720 23.380 23.090 63.410 61.710 0.000 23.74 23.780 23.460 23.280 23.52 23.610 23.330 23.000 17.440 15.920 15.370 14.260 29.144 18.473 10.664 28.244 17.429 10.815
PRIMET_226 2021-06-12 14:25:00 226 3904.0 0.00 222 0.197 0.181 298.800 16.450 15.990 15.090 23.82 23.810 23.530 23.500 61.610 59.310 1.085 23.97 23.930 23.720 23.780 23.72 23.720 23.410 23.280 17.290 16.380 14.940 13.080 29.515 18.170 11.331 28.952 17.151 11.780
PRIMET_226 2021-06-12 14:20:00 226 3904.0 0.00 271 0.474 0.437 247.500 22.230 15.850 13.970 24.40 24.420 24.240 24.220 58.990 52.980 0.921 24.95 25.180 24.950 24.640 23.99 23.970 23.770 23.840 17.610 16.120 15.010 9.550 30.559 18.008 12.532 30.232 15.954 14.215
PRIMET_226 2021-06-12 14:15:00 226 3904.0 0.00 197 0.384 0.263 245.200 44.320 14.340 12.910 25.17 25.330 25.050 24.770 51.600 48.390 0.960 25.30 25.610 25.380 25.060 24.93 24.990 24.740 24.510 17.750 16.300 9.550 8.420 31.996 16.341 15.486 31.242 14.889 16.124
PRIMET_226 2021-06-12 14:10:00 226 3904.0 0.00 218 0.578 0.418 206.900 39.320 14.840 13.300 25.23 25.350 25.080 24.920 52.840 48.960 1.450 25.41 25.600 25.280 25.120 25.01 25.160 24.890 24.740 16.690 16.720 9.640 8.380 32.110 16.877 15.143 31.523 15.273 16.089
PRIMET_226 2021-06-12 14:05:00 226 3904.0 0.00 238 0.267 0.219 229.600 29.510 15.560 14.260 25.06 25.100 24.850 24.760 55.760 52.230 0.889 25.22 25.270 25.010 24.970 24.97 24.950 24.690 24.590 16.990 16.180 11.040 10.060 31.787 17.676 14.063 31.224 16.256 14.916
PRIMET_226 2021-06-12 14:00:00 226 3904.0 0.00 210 0.160 0.143 229.100 17.650 15.990 14.620 25.27 25.470 25.120 24.860 56.560 53.140 0.738 25.35 25.620 25.250 24.990 25.11 25.330 25.020 24.770 17.640 16.320 13.470 10.950 32.187 18.170 13.982 31.411 16.639 14.719
PRIMET_226 2021-06-12 13:55:00 226 3904.0 0.00 199 0.137 0.096 212.600 32.730 16.620 15.880 24.88 25.250 24.810 24.500 60.290 58.780 0.457 25.06 25.540 25.070 24.740 24.65 25.000 24.550 24.340 18.450 17.570 14.580 13.820 31.448 18.914 12.488 30.743 18.042 12.672
PRIMET_226 2021-06-12 13:50:00 226 3904.0 0.00 203 0.199 0.135 228.900 39.740 16.200 15.150 24.22 24.530 24.210 23.980 61.070 57.990 0.555 24.59 25.050 24.690 24.360 23.87 24.100 23.830 23.520 18.430 17.460 13.240 12.300 30.232 18.415 11.769 29.800 17.217 12.519
PRIMET_226 2021-06-12 13:45:00 226 3904.0 0.00 210 0.396 0.368 231.700 20.090 15.780 14.760 23.94 23.950 23.600 23.420 60.370 58.390 1.006 24.01 24.110 23.760 23.500 23.80 23.830 23.520 23.340 16.850 16.430 14.100 12.270 29.728 17.927 11.781 28.812 16.790 11.989
PRIMET_226 2021-06-12 13:40:00 226 3904.0 0.00 196 0.394 0.261 238.900 42.080 15.800 14.770 24.27 24.180 23.820 23.740 59.290 57.280 0.928 24.54 24.400 24.030 24.080 24.03 23.970 23.550 23.450 17.180 16.400 14.190 12.570 30.322 17.950 12.344 29.373 16.801 12.548
PRIMET_226 2021-06-12 13:35:00 226 3904.0 0.00 220 0.473 0.350 269.500 41.390 15.850 13.620 24.80 24.870 24.520 24.300 57.830 51.800 1.111 25.15 25.200 24.890 24.660 24.56 24.500 24.130 24.040 18.140 16.500 11.760 9.970 31.298 18.008 13.199 30.377 15.595 14.642
PRIMET_226 2021-06-12 13:30:00 226 3904.0 0.00 226 0.428 0.391 209.800 19.990 12.960 11.670 25.47 25.620 25.360 25.150 46.340 43.380 1.215 25.82 26.160 25.870 25.510 25.14 25.220 24.900 24.710 16.540 15.340 9.100 8.600 32.571 14.937 17.478 31.958 13.722 18.095
PRIMET_226 2021-06-12 13:25:00 226 3904.0 0.00 228 0.791 0.546 191.700 45.070 14.980 14.150 25.35 25.380 25.110 24.970 53.160 51.500 1.196 25.62 25.970 25.590 25.240 25.10 24.970 24.760 24.730 17.680 16.610 9.940 9.400 32.340 17.030 15.148 31.617 16.141 15.334
PRIMET_226 2021-06-12 13:20:00 226 3904.0 0.00 242 0.518 0.279 101.700 53.690 14.510 13.610 25.58 25.930 25.570 25.200 51.380 49.450 0.856 25.86 26.140 25.760 25.400 25.00 25.570 25.260 24.720 19.660 18.430 9.710 9.440 32.785 16.521 15.940 32.053 15.585 16.203
PRIMET_226 2021-06-12 13:15:00 226 3904.0 0.00 198 0.394 0.332 169.700 29.710 15.250 14.370 24.58 24.910 24.590 24.290 56.870 54.800 1.058 24.89 25.460 25.140 24.640 24.18 24.550 24.230 23.920 19.070 19.020 11.570 10.770 30.890 17.328 13.323 30.359 16.372 13.722
PRIMET_226 2021-06-12 13:10:00 226 3904.0 0.00 192 0.365 0.332 190.000 20.500 16.960 16.740 23.92 24.170 23.870 23.750 65.570 65.290 1.267 24.19 24.420 24.140 23.950 23.39 23.730 23.510 23.350 19.610 19.070 12.580 11.490 29.693 19.326 10.223 29.391 19.058 10.202
PRIMET_226 2021-06-12 13:05:00 226 3904.0 0.00 206 0.409 0.379 180.600 21.500 18.160 16.740 23.10 23.240 23.060 23.070 73.980 68.080 0.941 23.36 23.630 23.420 23.280 22.94 22.930 22.750 22.880 19.710 18.910 14.080 11.800 28.261 20.846 7.354 28.210 19.058 9.005
PRIMET_226 2021-06-12 13:00:00 226 3904.0 0.00 224 0.194 0.189 168.400 9.530 18.550 18.260 23.22 22.960 22.750 23.110 75.060 74.230 0.660 23.51 23.120 22.930 23.390 23.09 22.760 22.550 23.020 19.330 19.260 18.050 17.070 28.467 21.362 7.100 28.278 20.978 7.287
PRIMET_226 2021-06-12 12:55:00 226 3904.0 0.00 249 0.054 0.053 168.000 2.382 17.750 16.850 23.97 23.600 23.390 23.870 68.280 64.980 0.470 24.44 24.060 23.890 24.300 23.57 23.170 22.990 23.430 18.570 18.290 16.140 15.050 29.782 20.316 9.447 29.603 19.192 10.367
PRIMET_226 2021-06-12 12:50:00 226 3904.0 0.00 227 0.449 0.294 120.500 45.100 16.160 14.330 24.96 24.720 24.420 24.570 58.330 53.040 1.117 25.23 25.150 24.670 24.660 24.51 24.160 23.930 24.350 18.180 17.260 12.930 12.060 31.598 18.368 13.167 30.872 16.330 14.497
PRIMET_226 2021-06-12 12:45:00 226 3904.0 0.00 202 0.581 0.536 75.820 20.790 15.950 14.830 25.22 25.070 24.610 24.630 56.820 54.930 1.379 25.29 25.260 24.780 24.790 25.18 24.900 24.460 24.550 18.400 18.740 12.510 11.330 32.091 18.123 13.857 30.982 16.866 13.964
PRIMET_226 2021-06-12 12:40:00 226 3904.0 0.00 0 0.058 0.020 153.900 44.300 15.490 14.780 24.91 25.210 24.780 24.460 56.250 55.110 0.281 25.32 25.570 25.150 24.850 24.28 24.710 24.340 23.900 19.330 17.940 12.330 11.850 31.504 17.597 13.783 30.669 16.812 13.767
PRIMET_226 2021-06-12 12:35:00 226 3904.0 0.00 195 0.288 0.217 132.400 38.210 16.220 15.200 23.76 24.010 23.630 23.490 62.960 60.020 0.627 24.22 24.610 24.270 23.880 23.35 23.490 23.170 23.180 18.180 17.510 12.730 11.890 29.408 18.438 10.893 28.934 17.273 11.568
PRIMET_226 2021-06-12 12:30:00 226 3904.0 0.00 384 0.229 0.124 154.900 42.560 18.060 17.120 23.18 23.240 22.920 22.990 73.000 69.670 0.608 23.33 23.360 23.070 23.170 22.73 22.990 22.730 22.550 19.150 18.620 16.700 14.550 28.398 20.716 7.668 28.074 19.523 8.515
PRIMET_226 2021-06-12 12:25:00 226 3904.0 0.00 0 0.316 0.284 83.300 20.090 17.460 15.850 22.39 22.410 22.140 22.170 73.780 67.700 0.849 22.64 22.870 22.630 22.490 22.27 22.240 21.930 21.960 18.620 17.840 14.470 12.410 27.071 19.947 7.098 26.711 18.008 8.628
PRIMET_226 2021-06-12 12:20:00 226 3904.0 0.00 207 0.463 0.394 63.600 26.950 17.740 16.530 22.17 22.010 21.700 21.720 76.020 72.470 1.424 22.28 22.220 21.920 21.930 22.08 21.900 21.590 21.610 18.740 18.130 16.910 12.880 26.711 20.303 6.405 25.988 18.806 7.155
PRIMET_226 2021-06-12 12:15:00 226 3904.0 0.00 0 0.299 0.196 116.700 39.830 18.090 17.540 22.16 22.060 21.730 21.800 77.760 76.800 0.797 22.27 22.160 21.850 21.850 22.08 21.940 21.640 21.720 18.620 18.200 17.540 16.640 26.695 20.755 5.937 26.116 20.048 6.059
PRIMET_226 2021-06-12 12:10:00 226 3904.0 0.00 257 0.562 0.514 121.000 21.730 17.700 16.220 22.06 21.920 21.570 21.650 76.460 71.450 1.143 22.15 22.150 21.810 21.780 21.97 21.730 21.370 21.500 18.800 17.740 14.750 12.740 26.533 20.252 6.246 25.877 18.438 7.388
PRIMET_226 2021-06-12 12:05:00 226 3904.0 0.00 301 0.528 0.464 93.100 26.820 17.560 16.620 22.25 22.160 21.830 21.850 74.920 72.380 1.307 22.34 22.290 22.050 21.920 22.12 21.950 21.620 21.700 18.650 17.960 13.840 12.860 26.842 20.074 6.732 26.195 18.914 7.235
PRIMET_226 2021-06-12 12:00:00 226 3904.0 0.00 191 0.365 0.204 134.700 52.470 17.980 17.220 21.69 21.780 21.510 21.410 79.480 77.070 0.706 22.13 22.340 22.090 21.780 21.30 21.320 21.070 21.200 19.030 18.470 16.760 16.260 25.941 20.612 5.323 25.500 19.647 5.847
PRIMET_226 2021-06-12 11:55:00 226 3904.0 0.00 317 0.355 0.351 54.390 6.213 17.440 16.420 21.04 21.020 20.900 20.930 79.960 75.620 1.143 21.27 21.230 21.110 21.220 20.90 20.750 20.600 20.540 18.080 17.940 16.010 13.660 24.928 19.922 4.996 24.761 18.675 6.037
PRIMET_226 2021-06-12 11:50:00 226 3904.0 0.00 196 0.578 0.570 64.740 8.330 17.400 16.510 21.24 21.120 20.760 20.760 78.780 76.780 1.326 21.35 21.300 20.970 20.870 21.01 20.800 20.470 20.530 18.010 17.690 16.680 13.680 25.236 19.872 5.355 24.503 18.782 5.690
PRIMET_226 2021-06-12 11:45:00 226 3904.0 0.00 199 0.287 0.287 77.030 0.270 17.840 17.240 21.08 21.070 20.690 20.650 81.800 80.800 0.523 21.31 21.360 20.950 20.780 20.88 20.790 20.470 20.540 18.620 17.850 17.420 16.380 24.990 20.431 4.548 24.338 19.672 4.673
PRIMET_226 2021-06-12 11:40:00 226 3904.0 0.00 197 0.105 0.105 77.040 0.086 17.050 16.580 20.76 20.720 20.420 20.390 79.390 78.760 0.640 20.87 20.810 20.500 20.540 20.68 20.660 20.350 20.290 18.130 17.160 16.070 15.620 24.503 19.437 5.050 23.951 18.866 5.087
PRIMET_226 2021-06-12 11:35:00 226 3904.0 0.00 181 0.000 0.000     17.520 16.950 20.69 20.710 20.430 20.400 82.100 80.600 0.000 20.77 20.780 20.520 20.440 20.60 20.660 20.360 20.350 17.850 17.350 16.860 16.200 24.398 20.023 4.367 23.965 19.314 4.649
PRIMET_226 2021-06-12 11:30:00 226 3904.0 0.00 299 0.704 0.687 63.130 12.680 17.200 16.170 20.62 20.490 20.220 20.150 80.800 78.020 1.411 20.65 20.640 20.450 20.330 20.59 20.370 20.080 20.050 17.600 17.170 16.730 13.330 24.293 19.622 4.664 23.598 18.379 5.187
PRIMET_226 2021-06-12 11:25:00 226 3904.0 0.00 266 0.379 0.375 88.300 8.510 17.190 16.790 20.54 20.390 20.060 19.920 81.100 82.200 0.647 20.64 20.480 20.170 20.080 20.35 20.320 19.950 19.790 17.580 17.230 16.710 16.360 24.173 19.610 4.569 23.265 19.119 4.141
PRIMET_226 2021-06-12 11:20:00 226 3904.0 0.00 0 0.204 0.201 86.700 7.880 17.070 16.630 19.93 19.970 19.660 19.470 83.600 83.700 0.634 20.31 20.300 19.920 19.780 19.62 19.670 19.380 19.210 17.640 17.130 16.620 16.260 23.279 19.461 3.818 22.624 18.926 3.688
PRIMET_226 2021-06-12 11:15:00 226 3904.0 0.00 199 0.569 0.568 75.350 2.555 16.640 16.310 19.69 19.570 19.320 19.230 82.600 83.200 0.719 19.79 19.720 19.480 19.320 19.58 19.440 19.210 19.150 17.450 16.820 16.180 15.890 22.935 18.938 3.991 22.289 18.544 3.745
PRIMET_226 2021-06-12 11:10:00 226 3904.0 0.00 200 0.186 0.186 77.440 0.270 17.000 16.800 19.59 19.520 19.250 19.090 85.000 86.600 0.640 19.76 19.700 19.470 19.280 19.42 19.310 19.020 18.930 17.520 17.250 16.540 16.320 22.793 19.375 3.419 22.095 19.131 2.961
PRIMET_226 2021-06-12 11:05:00 226 3904.0 0.00 248 0.082 0.082 77.080 0.067 16.790 16.400 19.35 19.180 18.890 18.820 85.200 85.800 0.510 19.42 19.300 19.010 18.920 19.31 19.090 18.830 18.770 17.190 16.850 16.360 15.970 22.456 19.119 3.323 21.726 18.651 3.085
PRIMET_226 2021-06-12 11:00:00 226 3904.0 0.00 216 0.585 0.585 76.760 1.461 16.620 16.460 19.44 19.270 18.910 18.800 83.800 86.300 0.830 19.50 19.410 19.000 18.820 19.32 19.140 18.820 18.770 17.170 16.770 16.080 16.070 22.582 18.914 3.658 21.699 18.722 2.973
PRIMET_226 2021-06-12 10:55:00 226 3904.0 0.00 199 0.676 0.674 81.200 4.292 16.910 16.500 19.55 19.360 19.020 19.000 84.700 85.500 0.764 19.69 19.540 19.150 19.160 19.46 19.300 18.890 18.840 17.450 16.790 16.520 16.090 22.737 19.265 3.479 21.972 18.770 3.186
PRIMET_226 2021-06-12 10:50:00 226 3904.0 0.00 226 0.378 0.374 70.110 6.846 16.940 16.360 19.82 19.630 19.290 19.260 83.500 83.300 1.137 19.98 19.720 19.400 19.440 19.70 19.510 19.190 19.150 17.630 16.810 16.490 16.040 23.121 19.302 3.815 22.330 18.603 3.729
PRIMET_226 2021-06-12 10:45:00 226 3904.0 0.00 235 0.540 0.531 58.660 9.800 16.840 16.210 19.67 19.590 19.290 19.180 83.800 83.000 1.058 20.00 19.880 19.610 19.480 19.30 19.050 18.790 18.840 17.350 16.880 16.130 15.680 22.907 19.180 3.711 22.220 18.426 3.777
PRIMET_226 2021-06-12 10:40:00 226 3904.0 0.00 256 0.565 0.563 76.430 4.752 16.460 16.200 19.13 18.890 18.630 18.620 84.500 85.800 0.784 19.29 19.050 18.780 18.830 19.06 18.750 18.460 18.480 16.810 16.470 16.110 15.880 22.150 18.722 3.433 21.456 18.415 3.047
PRIMET_226 2021-06-12 10:35:00 226 3904.0 0.00 209 0.683 0.679 69.830 5.874 16.740 16.250 18.97 18.840 18.490 18.370 86.900 87.500 0.928 19.12 19.040 18.640 18.450 18.70 18.640 18.380 18.260 17.420 16.610 16.090 15.880 21.930 19.058 2.873 21.123 18.473 2.640
PRIMET_226 2021-06-12 10:30:00 226 3904.0 0.00 247 0.502 0.502 75.570 2.176 16.280 16.190 18.90 18.650 18.400 18.410 84.800 86.900 0.745 19.23 18.980 18.700 18.670 18.66 18.500 18.270 18.240 16.820 16.310 16.040 15.990 21.835 18.509 3.319 21.176 18.403 2.774
PRIMET_226 2021-06-12 10:25:00 226 3904.0 0.00 293 0.392 0.390 79.230 5.527 16.500 16.180 19.22 18.950 18.730 18.740 84.300 85.100 0.693 19.25 19.010 18.800 18.770 19.19 18.870 18.660 18.690 16.970 16.420 16.030 15.970 22.275 18.770 3.497 21.618 18.391 3.221
PRIMET_226 2021-06-12 10:20:00 226 3904.0 0.00 0 0.598 0.595 82.600 5.789 16.470 16.210 19.14 18.900 18.620 18.660 84.600 85.700 0.745 19.29 19.100 18.780 18.800 19.00 18.690 18.420 18.580 17.260 16.660 15.930 15.870 22.164 18.734 3.413 21.510 18.426 3.076
PRIMET_226 2021-06-12 10:15:00 226 3904.0 0.00 186 0.515 0.513 83.100 4.817 16.470 16.330 19.30 19.120 18.840 18.850 83.700 85.300 0.725 19.33 19.320 18.970 18.920 19.27 18.890 18.670 18.720 17.300 16.810 15.910 15.940 22.386 18.734 3.649 21.767 18.568 3.200
PRIMET_226 2021-06-12 10:10:00 226 3904.0 0.00 0 0.356 0.337 93.000 18.950 16.370 16.150 19.26 18.980 18.700 18.700 83.300 85.100 0.686 19.32 19.110 18.770 18.740 19.20 18.870 18.590 18.630 16.910 16.490 15.940 15.880 22.330 18.615 3.729 21.564 18.356 3.213
PRIMET_226 2021-06-12 10:05:00 226 3904.0 0.00 240 0.104 0.104 110.200 5.048 16.700 16.370 18.70 18.680 18.420 18.280 88.200 88.600 0.274 19.17 19.020 18.740 18.610 18.25 18.220 18.010 17.970 17.470 17.050 16.020 15.770 21.564 19.010 2.545 21.004 18.615 2.394
PRIMET_226 2021-06-12 10:00:00 226 3904.0 0.00 204 0.232 0.231 102.700 2.984 16.100 15.920 17.95 18.050 17.890 17.810 88.900 88.700 0.340 18.24 18.260 18.050 17.960 17.75 17.790 17.680 17.650 16.700 16.230 15.530 15.570 20.573 18.298 2.284 20.393 18.088 2.304
PRIMET_226 2021-06-12 09:55:00 226 3904.0 0.00 232 0.372 0.372 98.100 0.385 15.600 15.670 17.85 17.710 17.530 17.580 86.700 88.500 0.608 18.17 17.830 17.640 17.700 17.72 17.580 17.430 17.520 15.930 15.860 15.360 15.440 20.444 17.722 2.719 20.099 17.801 2.311
PRIMET_226 2021-06-12 09:50:00 226 3904.0 0.00 214 0.000 0.000     15.970 15.760 18.26 18.090 17.780 17.730 86.600 88.200 0.000 18.34 18.290 17.930 17.790 18.08 17.850 17.610 17.560 16.760 16.190 15.490 15.430 20.978 18.146 2.811 20.290 17.904 2.394
PRIMET_226 2021-06-12 09:45:00 226 3904.0 0.00 296 0.242 0.240 81.700 7.108 15.900 15.550 17.76 17.700 17.410 17.240 88.900 89.800 0.425 18.04 17.890 17.660 17.510 17.31 17.190 17.020 16.960 16.350 15.820 15.480 15.340 20.328 18.065 2.256 19.672 17.665 2.007
PRIMET_226 2021-06-12 09:40:00 226 3904.0 0.00 234 0.477 0.475 87.200 5.594 15.110 15.100 17.38 17.070 16.940 16.990 86.500 88.600 0.627 17.71 17.370 17.150 17.070 17.24 16.940 16.830 16.940 15.590 15.320 14.850 14.860 19.847 17.173 2.679 19.363 17.162 2.207
PRIMET_226 2021-06-12 09:35:00 226 3904.0 0.00 198 0.475 0.463 93.900 12.890 15.420 15.230 17.84 17.510 17.220 17.140 85.700 88.500 0.621 17.89 17.630 17.310 17.180 17.75 17.410 17.170 17.100 15.960 15.450 15.090 14.980 20.431 17.518 2.922 19.548 17.306 2.248
PRIMET_226 2021-06-12 09:30:00 226 3904.0 0.00 224 0.491 0.489 104.600 5.566 15.690 15.380 17.80 17.640 17.360 17.200 87.500 89.100 0.640 17.96 17.800 17.510 17.300 17.45 17.350 17.120 17.030 16.270 15.670 15.090 15.070 20.380 17.824 2.547 19.622 17.474 2.139
PRIMET_226 2021-06-12 09:25:00 226 3904.0 0.00 224 0.526 0.525 105.100 3.359 15.210 15.190 17.38 17.090 16.910 16.950 87.000 89.400 0.660 17.43 17.320 17.120 17.010 17.34 16.950 16.790 16.890 15.550 15.680 14.970 14.950 19.847 17.284 2.580 19.314 17.262 2.047
PRIMET_226 2021-06-12 09:20:00 226 3904.0 0.00 0 0.257 0.257 103.100 0.047 15.290 15.180 17.54 17.280 17.070 17.100 86.700 88.500 0.444 17.63 17.440 17.250 17.180 17.44 17.130 16.930 17.000 15.650 15.600 14.950 15.010 20.048 17.373 2.666 19.498 17.250 2.242
PRIMET_226 2021-06-12 09:15:00 226 3904.0 0.00 0 0.117 0.117 102.800 0.071 15.350 15.140 17.54 17.260 17.050 17.000 87.000 88.800 0.359 17.62 17.330 17.160 17.160 17.40 17.140 16.910 16.840 15.660 15.380 15.020 14.920 20.048 17.440 2.606 19.375 17.206 2.170
PRIMET_226 2021-06-12 09:10:00 226 3904.0 0.00 246 0.348 0.340 108.300 12.380 15.210 14.990 17.20 16.970 16.740 16.650 88.100 90.000 0.588 17.39 17.160 16.940 16.810 17.01 16.790 16.560 16.470 15.680 15.340 14.980 14.740 19.622 17.284 2.335 18.950 17.041 1.895
PRIMET_226 2021-06-12 09:05:00 226 3904.0 0.00 349 0.633 0.612 99.000 15.020 15.010 14.510 16.97 16.670 16.460 16.470 88.300 88.200 0.836 17.04 16.850 16.590 16.540 16.89 16.580 16.370 16.410 15.520 14.710 14.750 13.990 19.339 17.063 2.263 18.734 16.521 2.211
PRIMET_226 2021-06-12 09:00:00 226 3904.0 0.00 204 0.662 0.650 88.500 11.090 14.960 14.460 17.01 16.680 16.450 16.390 87.700 88.300 1.013 17.07 16.850 16.560 16.480 16.95 16.580 16.330 16.280 15.430 14.770 14.610 13.750 19.388 17.008 2.385 18.639 16.468 2.181
PRIMET_226 2021-06-12 08:55:00 226 3904.0 0.00 275 0.469 0.413 87.400 25.900 14.950 14.540 16.91 16.480 16.270 16.250 88.200 89.600 0.987 16.99 16.740 16.470 16.280 16.86 16.220 16.060 16.200 15.380 14.760 14.600 14.180 19.265 16.997 2.273 18.473 16.553 1.921
PRIMET_226 2021-06-12 08:50:00 226 3904.0 0.00 0 0.474 0.464 96.200 11.280 14.680 14.320 17.08 16.570 16.330 16.320 85.800 88.000 0.777 17.20 16.740 16.470 16.360 16.97 16.380 16.130 16.240 15.070 14.580 14.390 14.170 19.474 16.704 2.765 18.556 16.320 2.227
PRIMET_226 2021-06-12 08:45:00 226 3904.0 0.00 248 0.468 0.468 101.800 1.238 14.880 14.480 17.30 16.750 16.470 16.440 85.700 88.200 0.653 17.43 16.970 16.660 16.570 17.19 16.650 16.380 16.320 15.530 14.970 14.480 14.240 19.747 16.921 2.824 18.698 16.489 2.206
PRIMET_226 2021-06-12 08:40:00 226 3904.0 0.00 212 0.266 0.266 112.700 1.898 15.020 14.760 17.40 16.830 16.530 16.500 85.900 89.500 0.503 17.46 16.910 16.640 16.560 17.34 16.730 16.410 16.380 15.610 15.030 14.530 14.520 19.872 17.074 2.802 18.770 16.790 1.971
PRIMET_226 2021-06-12 08:35:00 226 3904.0 0.00 281 0.284 0.284 113.000 0.381 15.100 14.620 17.09 16.870 16.470 16.290 88.100 89.900 0.405 17.34 17.050 16.580 16.370 16.82 16.580 16.270 16.160 15.500 14.900 14.670 14.390 19.486 17.162 2.319 18.521 16.639 1.871
PRIMET_226 2021-06-12 08:30:00 226 3904.0 0.00 294 0.149 0.149 113.100 0.042 14.860 14.440 16.68 16.450 16.220 16.100 89.000 89.900 0.431 16.80 16.560 16.340 16.150 16.64 16.370 16.130 16.070 15.060 14.730 14.640 14.250 18.986 16.899 2.088 18.298 16.447 1.848
PRIMET_226 2021-06-12 08:25:00 226 3904.0 0.00 234 0.000 0.000     14.810 14.460 16.42 16.340 16.140 15.860 90.200 91.400 0.000 16.65 16.510 16.340 16.090 15.98 16.060 15.810 15.470 15.020 14.790 14.490 14.070 18.675 16.844 1.830 18.019 16.468 1.550
PRIMET_226 2021-06-12 08:20:00 226 3904.0 0.00 232 0.017 0.017 106.900 0.034 14.460 14.120 15.53 15.590 15.400 15.150 93.300 93.600 0.268 15.96 16.030 15.780 15.460 15.11 15.200 15.020 14.710 14.850 14.280 14.130 13.900 17.642 16.468 1.182 17.217 16.110 1.102
PRIMET_226 2021-06-12 08:15:00 226 3904.0 0.00 190 0.111 0.111 111.200 0.082 13.900 13.660 15.04 15.080 14.900 14.710 92.900 93.400 0.405 15.20 15.160 15.040 14.990 14.96 14.990 14.830 14.590 14.070 13.880 13.720 13.500 17.096 15.881 1.214 16.736 15.635 1.105
PRIMET_226 2021-06-12 08:10:00 226 3904.0 0.00 242 0.380 0.376 104.300 8.250 13.840 13.760 15.52 15.280 15.190 15.160 89.700 91.300 0.673 15.94 15.700 15.490 15.410 15.25 15.100 15.030 15.000 14.280 13.970 13.700 13.460 17.631 15.819 1.816 17.228 15.737 1.499
PRIMET_226 2021-06-12 08:05:00 226 3904.0 0.00 250 0.191 0.191 83.000 1.503 14.400 13.890 15.78 15.660 15.460 15.270 91.600 91.500 0.405 15.97 15.780 15.560 15.480 15.33 15.430 15.250 14.900 14.680 14.120 14.080 13.490 17.927 16.404 1.506 17.351 15.871 1.475
PRIMET_226 2021-06-12 08:00:00 226 3904.0 0.00 222 0.019 0.019 81.400 0.000 13.940 13.690 14.89 14.980 14.810 14.520 94.000 94.800 0.372 15.28 15.340 15.190 14.870 14.60 14.700 14.530 14.230 14.250 13.860 13.610 13.500 16.932 15.923 1.016 16.532 15.666 0.860
PRIMET_226 2021-06-12 07:55:00 226 3904.0 0.00 190 0.000 0.000     13.720 13.550 14.67 14.760 14.600 14.320 94.000 95.100 0.000 14.73 14.860 14.650 14.380 14.59 14.700 14.540 14.230 13.850 13.600 13.590 13.500 16.693 15.697 1.002 16.320 15.524 0.800
PRIMET_226 2021-06-12 07:50:00 226 3904.0 0.00 184 0.090 0.090 81.500 0.015 13.560 13.390 14.53 14.570 14.410 14.150 93.900 95.200 0.431 14.63 14.750 14.570 14.280 14.38 14.400 14.250 13.950 13.730 13.470 13.390 13.260 16.543 15.534 1.009 16.141 15.363 0.775
PRIMET_226 2021-06-12 07:45:00 226 3904.0 0.00 187 0.362 0.360 78.530 5.331 13.410 13.210 14.55 14.560 14.350 14.090 92.900 94.400 0.516 14.68 14.670 14.450 14.210 14.35 14.370 14.220 13.960 13.640 13.340 13.200 13.050 16.564 15.383 1.176 16.078 15.183 0.900
PRIMET_226 2021-06-12 07:40:00 226 3904.0 0.00 209 0.166 0.166 83.800 0.020 13.690 13.320 14.64 14.640 14.450 14.190 94.000 94.500 0.477 14.74 14.740 14.590 14.300 14.38 14.470 14.280 13.950 13.970 13.480 13.460 13.170 16.661 15.666 1.000 16.183 15.293 0.890
PRIMET_226 2021-06-12 07:35:00 226 3904.0 0.00 226 0.048 0.048 83.800 0.024 13.390 13.140 14.23 14.330 14.130 13.800 94.700 95.800 0.301 14.33 14.440 14.250 13.910 14.19 14.270 14.060 13.730 13.580 13.280 13.310 13.010 16.225 15.363 0.860 15.778 15.114 0.663
PRIMET_226 2021-06-12 07:30:00 226 3904.0 0.00 331 0.311 0.311 83.900 0.170 13.350 13.010 14.30 14.310 14.090 13.830 94.000 94.800 0.516 14.37 14.450 14.210 13.880 14.24 14.260 14.020 13.790 13.470 13.090 13.270 12.970 16.298 15.323 0.978 15.809 14.986 0.822
PRIMET_226 2021-06-12 07:25:00 226 3904.0 0.00 278 0.578 0.569 62.290 10.260 13.350 12.930 14.15 14.220 14.010 13.680 94.900 95.200 0.810 14.38 14.360 14.100 13.860 14.01 14.150 13.930 13.590 13.600 13.080 13.180 12.840 16.141 15.323 0.823 15.656 14.908 0.751
PRIMET_226 2021-06-12 07:20:00 226 3904.0 0.00 244 0.603 0.598 48.560 7.183 13.030 12.750 13.75 13.920 13.750 13.420 95.400 95.700 0.725 13.98 14.140 13.950 13.590 13.63 13.750 13.620 13.350 13.330 12.910 12.780 12.610 15.727 15.006 0.723 15.393 14.733 0.662
PRIMET_226 2021-06-12 07:15:00 226 3904.0 0.00 193 0.000 0.000     12.800 12.650 13.79 13.780 13.710 13.630 93.700 93.800 0.000 13.99 13.860 13.790 13.930 13.63 13.730 13.630 13.380 12.930 12.770 12.700 12.550 15.768 14.782 0.993 15.605 14.637 0.968
PRIMET_226 2021-06-12 07:10:00 226 3904.0 0.00 224 0.000 0.000     12.810 12.680 13.99 13.740 13.640 13.820 92.600 92.800 0.000 14.10 13.810 13.760 14.020 13.82 13.620 13.460 13.530 12.930 12.750 12.670 12.600 15.974 14.791 1.182 15.799 14.666 1.138
PRIMET_226 2021-06-12 07:05:00 226 3904.0 0.00 190 0.326 0.326 49.510 0.071 12.690 12.360 13.64 13.500 13.310 13.330 94.000 93.800 0.627 13.80 13.580 13.420 13.500 13.57 13.420 13.260 13.260 12.830 12.580 12.630 12.260 15.615 14.675 0.937 15.303 14.361 0.949
PRIMET_226 2021-06-12 07:00:00 226 3904.0 0.00 272 0.000 0.000     12.990 12.280 13.60 13.430 13.300 13.380 96.100 93.100 0.000 13.63 13.470 13.330 13.410 13.58 13.370 13.260 13.340 13.600 12.370 12.670 12.220 15.574 14.967 0.607 15.353 14.286 1.059
PRIMET_226 2021-06-12 06:55:00 226 3904.0 0.00 196 0.000 0.000     13.170 12.320 13.17 13.120 12.970 13.150 100.000 94.700 0.000 13.58 13.480 13.320 13.410 12.76 12.720 12.640 12.810 13.580 12.400 12.760 12.220 15.144 15.144 0.000 15.124 14.323 0.802
PRIMET_226 2021-06-12 06:50:00 226 3904.0 0.00 240 0.212 0.212 49.410 0.026 12.460 12.290 12.46 12.540 12.470 12.540 100.000 98.400 0.438 12.73 12.700 12.600 12.780 12.09 12.410 12.320 12.220 12.730 12.440 12.090 12.180 14.456 14.456 0.000 14.532 14.295 0.233
PRIMET_226 2021-06-12 06:45:00 226 3904.0 0.00 419 0.134 0.134 49.270 0.000 11.900 11.860 11.90 12.200 12.100 11.860 100.000 100.000 0.399 12.03 12.390 12.290 12.170 11.82 12.110 12.010 11.700 12.030 12.170 11.820 11.700 13.932 13.932 -0.000 13.896 13.896 0.000
PRIMET_226 2021-06-12 06:40:00 226 3904.0 0.00 231 0.256 0.256 49.310 0.000 11.820 11.740 11.82 12.080 11.980 11.740 100.000 100.000 0.608 11.84 12.110 12.000 11.770 11.80 12.030 11.950 11.690 11.840 11.770 11.800 11.690 13.859 13.859 -0.000 13.786 13.786 0.000
PRIMET_226 2021-06-12 06:35:00 226 3904.0 0.00 320 0.335 0.335 48.930 0.077 11.710 11.600 11.71 12.010 11.910 11.600 100.000 100.000 0.732 11.80 12.070 11.960 11.670 11.67 11.940 11.870 11.570 11.800 11.670 11.670 11.570 13.759 13.759 0.000 13.659 13.659 -0.000
PRIMET_226 2021-06-12 06:30:00 226 3904.0 0.00 209 0.000 0.000     11.640 11.600 11.64 11.910 11.840 11.600 100.000 100.000 0.000 11.67 11.960 11.880 11.650 11.59 11.850 11.790 11.540 11.670 11.650 11.590 11.540 13.695 13.695 0.000 13.659 13.659 -0.000
PRIMET_226 2021-06-12 06:25:00 226 3904.0 0.00 297 0.000 0.000     11.490 11.400 11.49 11.790 11.720 11.400 100.000 100.000 0.000 11.60 11.860 11.790 11.550 11.39 11.690 11.600 11.290 11.600 11.550 11.390 11.290 13.560 13.560 0.000 13.479 13.479 -0.000
PRIMET_226 2021-06-12 06:20:00 226 3904.0 0.00 307 0.000 0.000     11.360 11.230 11.36 11.650 11.560 11.230 100.000 100.000 0.000 11.39 11.690 11.600 11.290 11.32 11.620 11.540 11.190 11.390 11.290 11.320 11.190 13.444 13.444 0.000 13.328 13.328 0.000
PRIMET_226 2021-06-12 06:15:00 226 3904.0 0.00 275 0.000 0.000     11.330 11.180 11.33 11.630 11.550 11.180 100.000 100.000 0.000 11.34 11.640 11.570 11.190 11.31 11.610 11.530 11.170 11.340 11.190 11.310 11.170 13.417 13.417 0.000 13.284 13.284 0.000
PRIMET_226 2021-06-12 06:10:00 226 3904.0 0.00 342 0.000 0.000     11.360 11.210 11.36 11.650 11.580 11.210 100.000 100.000 0.000 11.38 11.690 11.620 11.230 11.31 11.620 11.550 11.180 11.380 11.230 11.310 11.180 13.444 13.444 0.000 13.310 13.310 0.000
PRIMET_226 2021-06-12 06:05:00 226 3904.0 0.00 437 0.000 0.000     11.360 11.200 11.36 11.680 11.610 11.200 100.000 100.000 0.000 11.38 11.690 11.620 11.220 11.36 11.660 11.590 11.180 11.380 11.220 11.360 11.180 13.444 13.444 0.000 13.302 13.302 0.000
PRIMET_226 2021-06-12 06:00:00 226 3904.0 0.00 221 0.000 0.000     11.350 11.180 11.35 11.640 11.580 11.180 100.000 100.000 0.000 11.36 11.670 11.590 11.190 11.34 11.630 11.550 11.170 11.360 11.190 11.340 11.170 13.435 13.435 0.000 13.284 13.284 0.000
PRIMET_226 2021-06-12 05:55:00 226 3904.0 0.00 238 0.000 0.000     11.330 11.160 11.33 11.620 11.550 11.160 100.000 100.000 0.000 11.35 11.630 11.560 11.190 11.30 11.610 11.540 11.140 11.350 11.190 11.300 11.140 13.417 13.417 0.000 13.266 13.266 0.000
PRIMET_226 2021-06-12 05:50:00 226 3904.0 0.00 264 0.000 0.000     11.280 11.120 11.28 11.590 11.520 11.120 100.000 100.000 0.000 11.31 11.610 11.540 11.150 11.26 11.570 11.500 11.100 11.310 11.150 11.260 11.100 13.372 13.372 0.000 13.231 13.231 0.000
PRIMET_226 2021-06-12 05:45:00 226 3904.0 0.00 305 0.000 0.000     11.230 11.080 11.23 11.550 11.490 11.080 100.000 100.000 0.000 11.27 11.570 11.520 11.120 11.20 11.520 11.460 11.040 11.270 11.120 11.200 11.040 13.328 13.328 0.000 13.196 13.196 0.000
PRIMET_226 2021-06-12 05:40:00 226 3904.0 0.00 386 0.000 0.000     11.210 11.050 11.21 11.510 11.450 11.050 100.000 100.000 0.000 11.23 11.530 11.460 11.080 11.19 11.500 11.430 11.040 11.230 11.080 11.190 11.040 13.310 13.310 0.000 13.170 13.170 -0.000
PRIMET_226 2021-06-12 05:35:00 226 3904.0 0.00 336 0.000 0.000     11.240 11.080 11.24 11.530 11.460 11.080 100.000 100.000 0.000 11.26 11.550 11.490 11.090 11.22 11.510 11.450 11.070 11.260 11.090 11.220 11.070 13.337 13.337 -0.000 13.196 13.196 0.000
PRIMET_226 2021-06-12 05:30:00 226 3904.0 0.00 345 0.000 0.000     11.260 11.080 11.26 11.570 11.500 11.080 100.000 100.000 0.000 11.27 11.580 11.500 11.090 11.25 11.550 11.490 11.060 11.270 11.090 11.250 11.060 13.355 13.355 0.000 13.196 13.196 0.000
PRIMET_226 2021-06-12 05:25:00 226 3904.0 0.00 308 0.000 0.000     11.220 11.040 11.22 11.540 11.460 11.040 100.000 100.000 0.000 11.25 11.580 11.500 11.080 11.20 11.510 11.430 11.020 11.250 11.080 11.200 11.020 13.319 13.319 0.000 13.161 13.161 0.000
PRIMET_226 2021-06-12 05:20:00 226 3904.0 0.00 284 0.000 0.000     11.190 11.020 11.19 11.490 11.420 11.020 100.000 100.000 0.000 11.20 11.510 11.430 11.040 11.17 11.480 11.420 11.000 11.200 11.040 11.170 11.000 13.293 13.293 0.000 13.144 13.144 0.000
PRIMET_226 2021-06-12 05:15:00 226 3904.0 0.00 264 0.000 0.000     11.180 11.020 11.18 11.490 11.420 11.020 100.000 100.000 0.000 11.18 11.500 11.440 11.030 11.17 11.480 11.400 11.000 11.180 11.030 11.170 11.000 13.284 13.284 0.000 13.144 13.144 0.000
PRIMET_226 2021-06-12 05:10:00 226 3904.0 0.00 263 0.000 0.000     11.210 11.040 11.21 11.520 11.450 11.040 100.000 100.000 0.000 11.24 11.540 11.470 11.060 11.19 11.500 11.430 11.020 11.240 11.060 11.190 11.020 13.310 13.310 0.000 13.161 13.161 0.000
PRIMET_226 2021-06-12 05:05:00 226 3904.0 0.00 265 0.000 0.000     11.220 11.050 11.22 11.540 11.470 11.050 100.000 100.000 0.000 11.24 11.550 11.490 11.070 11.20 11.520 11.460 11.040 11.240 11.070 11.200 11.040 13.319 13.319 0.000 13.170 13.170 -0.000
PRIMET_226 2021-06-12 05:00:00 226 3904.0 0.00 278 0.000 0.000     11.220 11.060 11.22 11.530 11.470 11.060 100.000 100.000 0.000 11.25 11.560 11.490 11.080 11.20 11.510 11.460 11.040 11.250 11.080 11.200 11.040 13.319 13.319 0.000 13.179 13.179 -0.000
PRIMET_226 2021-06-12 04:55:00 226 3904.0 0.00 284 0.000 0.000     11.210 11.040 11.21 11.550 11.480 11.040 100.000 100.000 0.000 11.24 11.560 11.490 11.060 11.18 11.530 11.460 11.020 11.240 11.060 11.180 11.020 13.310 13.310 0.000 13.161 13.161 0.000
PRIMET_226 2021-06-12 04:50:00 226 3904.0 0.00 313 0.000 0.000     11.160 11.000 11.16 11.490 11.420 11.000 100.000 100.000 0.000 11.18 11.520 11.460 11.020 11.14 11.470 11.400 10.980 11.180 11.020 11.140 10.980 13.266 13.266 0.000 13.126 13.126 0.000
PRIMET_226 2021-06-12 04:45:00 226 3904.0 0.00 286 0.000 0.000     11.130 10.980 11.13 11.470 11.400 10.980 100.000 100.000 0.000 11.16 11.480 11.410 11.000 11.11 11.450 11.390 10.960 11.160 11.000 11.110 10.960 13.240 13.240 0.000 13.109 13.109 -0.000
PRIMET_226 2021-06-12 04:40:00 226 3904.0 0.00 288 0.000 0.000     11.120 11.010 11.12 11.470 11.420 11.010 100.000 100.000 0.000 11.13 11.490 11.440 11.030 11.11 11.450 11.400 10.990 11.130 11.030 11.110 10.990 13.231 13.231 0.000 13.135 13.135 0.000
PRIMET_226 2021-06-12 04:35:00 226 3904.0 0.00 290 0.000 0.000     11.120 11.000 11.12 11.450 11.400 11.000 100.000 100.000 0.000 11.15 11.470 11.420 11.020 11.10 11.430 11.380 10.980 11.150 11.020 11.100 10.980 13.231 13.231 0.000 13.126 13.126 0.000
PRIMET_226 2021-06-12 04:30:00 226 3904.0 0.00 283 0.000 0.000     11.140 11.010 11.14 11.470 11.420 11.010 100.000 100.000 0.000 11.16 11.480 11.430 11.030 11.12 11.450 11.390 10.990 11.160 11.030 11.120 10.990 13.249 13.249 0.000 13.135 13.135 0.000
PRIMET_226 2021-06-12 04:25:00 226 3904.0 0.00 201 0.000 0.000     11.160 11.010 11.16 11.470 11.420 11.010 100.000 100.000 0.000 11.17 11.490 11.440 11.030 11.14 11.460 11.410 10.980 11.170 11.030 11.140 10.980 13.266 13.266 0.000 13.135 13.135 0.000
PRIMET_226 2021-06-12 04:20:00 226 3904.0 0.00 0 0.000 0.000     11.200 11.040 11.20 11.510 11.460 11.040 100.000 100.000 0.000 11.22 11.530 11.470 11.070 11.18 11.490 11.440 11.020 11.220 11.070 11.180 11.020 13.302 13.302 0.000 13.161 13.161 0.000
PRIMET_226 2021-06-12 04:15:00 226 3904.0 0.00 206 0.000 0.000     11.240 11.070 11.24 11.550 11.480 11.070 100.000 100.000 0.000 11.26 11.570 11.510 11.100 11.21 11.530 11.450 11.040 11.260 11.100 11.210 11.040 13.337 13.337 -0.000 13.187 13.187 0.000
PRIMET_226 2021-06-12 04:10:00 226 3904.0 0.00 194 0.000 0.000     11.260 11.100 11.26 11.590 11.520 11.100 100.000 100.000 0.000 11.28 11.610 11.540 11.110 11.23 11.580 11.510 11.080 11.280 11.110 11.230 11.080 13.355 13.355 0.000 13.214 13.214 0.000
PRIMET_226 2021-06-12 04:05:00 226 3904.0 0.00 464 0.000 0.000     11.210 11.060 11.21 11.550 11.480 11.060 100.000 100.000 0.000 11.24 11.580 11.520 11.090 11.19 11.540 11.460 11.040 11.240 11.090 11.190 11.040 13.310 13.310 0.000 13.179 13.179 -0.000
PRIMET_226 2021-06-12 04:00:00 226 3904.0 0.00 203 0.000 0.000     11.180 11.030 11.18 11.510 11.440 11.030 100.000 100.000 0.000 11.19 11.540 11.460 11.050 11.16 11.490 11.420 11.010 11.190 11.050 11.160 11.010 13.284 13.284 0.000 13.152 13.152 0.000
PRIMET_226 2021-06-12 03:55:00 226 3904.0 0.00 358 0.008 0.008 73.680 0.015 11.220 11.060 11.22 11.520 11.460 11.060 100.000 100.000 0.163 11.24 11.570 11.500 11.090 11.18 11.490 11.430 11.030 11.240 11.090 11.180 11.030 13.319 13.319 0.000 13.179 13.179 -0.000
PRIMET_226 2021-06-12 03:50:00 226 3904.0 0.00 390 0.100 0.100 73.590 0.046 11.250 11.090 11.25 11.590 11.520 11.090 100.000 100.000 0.555 11.27 11.610 11.540 11.110 11.23 11.570 11.500 11.070 11.270 11.110 11.230 11.070 13.346 13.346 0.000 13.205 13.205 0.000
PRIMET_226 2021-06-12 03:45:00 226 3904.0 0.00 290 0.000 0.000     11.180 11.050 11.18 11.520 11.460 11.050 100.000 100.000 0.000 11.22 11.570 11.500 11.070 11.17 11.500 11.450 11.040 11.220 11.070 11.170 11.040 13.284 13.284 0.000 13.170 13.170 -0.000
PRIMET_226 2021-06-12 03:40:00 226 3904.0 0.00 366 0.000 0.000     11.210 11.080 11.21 11.530 11.480 11.080 100.000 100.000 0.000 11.24 11.560 11.500 11.110 11.18 11.510 11.460 11.050 11.240 11.110 11.180 11.050 13.310 13.310 0.000 13.196 13.196 0.000
PRIMET_226 2021-06-12 03:35:00 226 3904.0 0.00 344 0.000 0.000     11.230 11.100 11.23 11.570 11.510 11.100 100.000 100.000 0.000 11.25 11.580 11.520 11.120 11.21 11.560 11.500 11.090 11.250 11.120 11.210 11.090 13.328 13.328 0.000 13.214 13.214 0.000
PRIMET_226 2021-06-12 03:30:00 226 3904.0 0.00 388 0.000 0.000     11.240 11.100 11.24 11.570 11.510 11.100 100.000 100.000 0.000 11.25 11.590 11.540 11.120 11.22 11.560 11.490 11.080 11.250 11.120 11.220 11.080 13.337 13.337 -0.000 13.214 13.214 0.000
PRIMET_226 2021-06-12 03:25:00 226 3904.0 0.00 321 0.000 0.000     11.250 11.120 11.25 11.590 11.530 11.120 100.000 100.000 0.000 11.26 11.610 11.550 11.140 11.23 11.580 11.510 11.090 11.260 11.140 11.230 11.090 13.346 13.346 0.000 13.231 13.231 0.000
PRIMET_226 2021-06-12 03:20:00 226 3904.0 0.00 349 0.000 0.000     11.250 11.100 11.25 11.590 11.510 11.100 100.000 100.000 0.000 11.27 11.600 11.530 11.120 11.22 11.580 11.500 11.080 11.270 11.120 11.220 11.080 13.346 13.346 0.000 13.214 13.214 0.000
PRIMET_226 2021-06-12 03:15:00 226 3904.0 0.00 318 0.000 0.000     11.210 11.080 11.21 11.560 11.490 11.080 100.000 100.000 0.000 11.24 11.580 11.500 11.100 11.19 11.530 11.470 11.070 11.240 11.100 11.190 11.070 13.310 13.310 0.000 13.196 13.196 0.000
PRIMET_226 2021-06-12 03:10:00 226 3904.0 0.00 294 0.000 0.000     11.210 11.090 11.21 11.510 11.470 11.090 100.000 100.000 0.000 11.26 11.530 11.470 11.110 11.20 11.510 11.450 11.070 11.260 11.110 11.200 11.070 13.310 13.310 0.000 13.205 13.205 0.000
PRIMET_226 2021-06-12 03:05:00 226 3904.0 0.00 323 0.000 0.000     11.270 11.130 11.27 11.560 11.500 11.130 100.000 100.000 0.000 11.30 11.590 11.530 11.150 11.25 11.520 11.470 11.090 11.300 11.150 11.250 11.090 13.364 13.364 0.000 13.240 13.240 0.000
PRIMET_226 2021-06-12 03:00:00 226 3904.0 0.00 282 0.000 0.000     11.320 11.170 11.32 11.620 11.560 11.170 100.000 100.000 0.000 11.33 11.650 11.590 11.190 11.29 11.600 11.530 11.150 11.330 11.190 11.290 11.150 13.408 13.408 0.000 13.275 13.275 0.000
PRIMET_226 2021-06-12 02:55:00 226 3904.0 0.00 308 0.000 0.000     11.340 11.190 11.34 11.660 11.610 11.190 100.000 100.000 0.000 11.35 11.670 11.620 11.210 11.32 11.650 11.590 11.180 11.350 11.210 11.320 11.170 13.426 13.426 0.000 13.293 13.293 0.000
PRIMET_226 2021-06-12 02:50:00 226 3904.0 0.00 354 0.000 0.000     11.360 11.210 11.36 11.670 11.600 11.210 100.000 100.000 0.000 11.37 11.680 11.610 11.220 11.33 11.660 11.600 11.190 11.370 11.220 11.330 11.190 13.444 13.444 0.000 13.310 13.310 0.000
PRIMET_226 2021-06-12 02:45:00 226 3904.0 0.00 347 0.000 0.000     11.380 11.230 11.38 11.690 11.620 11.230 100.000 100.000 0.000 11.39 11.710 11.630 11.250 11.36 11.680 11.600 11.210 11.390 11.250 11.360 11.210 13.461 13.461 -0.000 13.328 13.328 0.000
PRIMET_226 2021-06-12 02:40:00 226 3904.0 0.00 354 0.000 0.000     11.410 11.250 11.41 11.720 11.640 11.250 100.000 100.000 0.000 11.42 11.730 11.660 11.270 11.39 11.700 11.620 11.230 11.420 11.270 11.390 11.230 13.488 13.488 0.000 13.346 13.346 0.000
PRIMET_226 2021-06-12 02:35:00 226 3904.0 0.00 339 0.000 0.000     11.440 11.290 11.44 11.750 11.680 11.290 100.000 100.000 0.000 11.47 11.780 11.710 11.330 11.42 11.730 11.660 11.260 11.470 11.330 11.420 11.260 13.515 13.515 0.000 13.381 13.381 0.000
PRIMET_226 2021-06-12 02:30:00 226 3904.0 0.00 385 0.000 0.000     11.480 11.330 11.48 11.810 11.730 11.330 100.000 100.000 0.000 11.50 11.820 11.750 11.350 11.47 11.780 11.700 11.320 11.500 11.350 11.470 11.320 13.551 13.551 0.000 13.417 13.417 0.000
PRIMET_226 2021-06-12 02:25:00 226 3904.0 0.00 313 0.000 0.000     11.490 11.340 11.49 11.820 11.750 11.340 100.000 100.000 0.000 11.50 11.840 11.760 11.350 11.47 11.810 11.740 11.330 11.500 11.350 11.470 11.330 13.560 13.560 0.000 13.426 13.426 0.000
PRIMET_226 2021-06-12 02:20:00 226 3904.0 0.00 305 0.000 0.000     11.480 11.330 11.48 11.830 11.760 11.330 100.000 100.000 0.000 11.49 11.840 11.780 11.350 11.45 11.800 11.750 11.310 11.490 11.350 11.450 11.310 13.551 13.551 0.000 13.417 13.417 0.000
PRIMET_226 2021-06-12 02:15:00 226 3904.0 0.00 302 0.000 0.000     11.430 11.300 11.43 11.770 11.710 11.300 100.000 100.000 0.000 11.46 11.800 11.740 11.310 11.41 11.760 11.690 11.290 11.460 11.310 11.410 11.290 13.506 13.506 0.000 13.390 13.390 0.000
PRIMET_226 2021-06-12 02:10:00 226 3904.0 0.00 300 0.000 0.000     11.430 11.320 11.43 11.780 11.720 11.320 100.000 100.000 0.000 11.45 11.790 11.730 11.330 11.42 11.760 11.700 11.300 11.450 11.330 11.420 11.300 13.506 13.506 0.000 13.408 13.408 0.000
PRIMET_226 2021-06-12 02:05:00 226 3904.0 0.00 305 0.000 0.000     11.460 11.340 11.46 11.780 11.720 11.340 100.000 100.000 0.000 11.49 11.800 11.740 11.370 11.44 11.770 11.710 11.320 11.490 11.370 11.440 11.320 13.533 13.533 0.000 13.426 13.426 0.000
PRIMET_226 2021-06-12 02:00:00 226 3904.0 0.00 304 0.000 0.000     11.540 11.400 11.54 11.830 11.760 11.400 100.000 100.000 0.000 11.58 11.890 11.820 11.430 11.49 11.780 11.720 11.360 11.580 11.430 11.490 11.360 13.605 13.605 0.000 13.479 13.479 -0.000
PRIMET_226 2021-06-12 01:55:00 226 3904.0 0.00 297 0.000 0.000     11.610 11.460 11.61 11.920 11.850 11.460 100.000 100.000 0.000 11.63 11.940 11.880 11.480 11.59 11.900 11.820 11.430 11.630 11.480 11.590 11.430 13.668 13.668 0.000 13.533 13.533 0.000
PRIMET_226 2021-06-12 01:50:00 226 3904.0 0.00 334 0.000 0.000     11.660 11.520 11.66 11.970 11.910 11.520 100.000 100.000 0.000 11.68 11.990 11.930 11.540 11.64 11.940 11.880 11.480 11.680 11.540 11.640 11.480 13.713 13.713 0.000 13.587 13.587 0.000
PRIMET_226 2021-06-12 01:45:00 226 3904.0 0.00 352 0.101 0.101 42.940 0.000 11.690 11.570 11.69 12.020 11.950 11.570 100.000 100.000 0.542 11.72 12.040 11.970 11.600 11.67 12.000 11.930 11.530 11.720 11.600 11.670 11.530 13.740 13.740 0.000 13.632 13.632 0.000
PRIMET_226 2021-06-12 01:40:00 226 3904.0 0.00 346 0.074 0.074 43.240 0.088 11.780 11.640 11.78 12.090 12.020 11.640 100.000 100.000 0.568 11.84 12.140 12.060 11.670 11.72 12.050 11.980 11.600 11.840 11.670 11.720 11.600 13.822 13.822 0.000 13.695 13.695 0.000
PRIMET_226 2021-06-12 01:35:00 226 3904.0 0.00 338 0.000 0.000     11.850 11.680 11.85 12.170 12.090 11.680 100.000 100.000 0.000 11.87 12.180 12.100 11.700 11.83 12.150 12.070 11.660 11.870 11.700 11.830 11.660 13.886 13.886 0.000 13.731 13.731 0.000
PRIMET_226 2021-06-12 01:30:00 226 3904.0 0.00 338 0.000 0.000     11.880 11.710 11.88 12.190 12.110 11.710 100.000 100.000 0.000 11.90 12.210 12.130 11.740 11.86 12.170 12.090 11.690 11.900 11.740 11.860 11.690 13.914 13.914 0.000 13.759 13.759 0.000
PRIMET_226 2021-06-12 01:25:00 226 3904.0 0.00 298 0.000 0.000     11.920 11.750 11.92 12.230 12.150 11.750 100.000 100.000 0.000 11.96 12.250 12.180 11.770 11.90 12.210 12.130 11.720 11.960 11.770 11.900 11.720 13.951 13.951 0.000 13.795 13.795 0.000
PRIMET_226 2021-06-12 01:20:00 226 3904.0 0.00 320 0.000 0.000     11.970 11.780 11.97 12.290 12.210 11.780 100.000 100.000 0.000 11.99 12.320 12.220 11.800 11.94 12.260 12.190 11.760 11.990 11.800 11.940 11.760 13.997 13.997 0.000 13.822 13.822 0.000
PRIMET_226 2021-06-12 01:15:00 226 3904.0 0.00 374 0.000 0.000     11.930 11.760 11.93 12.270 12.180 11.760 100.000 100.000 0.000 11.97 12.310 12.220 11.790 11.90 12.230 12.150 11.740 11.970 11.790 11.900 11.740 13.960 13.960 0.000 13.804 13.804 0.000
PRIMET_226 2021-06-12 01:10:00 226 3904.0 0.00 343 0.000 0.000     11.910 11.760 11.91 12.230 12.160 11.760 100.000 100.000 0.000 11.92 12.250 12.170 11.770 11.90 12.220 12.140 11.740 11.920 11.770 11.900 11.740 13.941 13.941 0.000 13.804 13.804 0.000
PRIMET_226 2021-06-12 01:05:00 226 3904.0 0.00 337 0.000 0.000     11.940 11.790 11.94 12.260 12.180 11.790 100.000 100.000 0.000 11.96 12.290 12.210 11.810 11.91 12.240 12.170 11.770 11.960 11.810 11.910 11.770 13.969 13.969 0.000 13.831 13.831 0.000
PRIMET_226 2021-06-12 01:00:00 226 3904.0 0.00 352 0.000 0.000     11.970 11.810 11.97 12.300 12.220 11.810 100.000 100.000 0.000 11.99 12.310 12.230 11.840 11.95 12.280 12.210 11.800 11.990 11.840 11.950 11.800 13.997 13.997 0.000 13.850 13.850 0.000
PRIMET_226 2021-06-12 00:55:00 226 3904.0 0.00 283 0.000 0.000     11.990 11.840 11.99 12.300 12.220 11.840 100.000 100.000 0.000 12.03 12.330 12.250 11.880 11.96 12.280 12.210 11.810 12.030 11.880 11.960 11.810 14.015 14.015 0.000 13.877 13.877 0.000
PRIMET_226 2021-06-12 00:50:00 226 3904.0 0.00 336 0.000 0.000     12.080 11.910 12.08 12.380 12.310 11.910 100.000 100.000 0.000 12.12 12.430 12.350 11.930 12.04 12.330 12.260 11.870 12.120 11.930 12.040 11.870 14.099 14.099 -0.000 13.941 13.941 0.000
PRIMET_226 2021-06-12 00:45:00 226 3904.0 0.00 310 0.000 0.000     12.110 11.930 12.11 12.450 12.360 11.930 100.000 100.000 0.000 12.12 12.470 12.370 11.940 12.10 12.430 12.350 11.910 12.120 11.940 12.100 11.910 14.127 14.127 0.000 13.960 13.960 0.000
PRIMET_226 2021-06-12 00:40:00 226 3904.0 0.00 279 0.071 0.070 25.440 3.289 12.090 11.910 12.09 12.430 12.340 11.910 100.000 100.000 0.627 12.11 12.440 12.350 11.920 12.08 12.410 12.330 11.900 12.110 11.920 12.080 11.900 14.108 14.108 0.000 13.941 13.941 0.000
PRIMET_226 2021-06-12 00:35:00 226 3904.0 0.00 206 0.000 0.000     12.070 11.900 12.07 12.410 12.320 11.900 100.000 100.000 0.000 12.08 12.430 12.340 11.920 12.05 12.390 12.310 11.890 12.080 11.920 12.050 11.890 14.089 14.089 0.000 13.932 13.932 -0.000
PRIMET_226 2021-06-12 00:30:00 226 3904.0 0.00 198 0.000 0.000     12.090 11.920 12.09 12.410 12.330 11.920 100.000 100.000 0.000 12.11 12.430 12.350 11.950 12.06 12.390 12.310 11.900 12.110 11.950 12.060 11.900 14.108 14.108 0.000 13.951 13.951 0.000
PRIMET_226 2021-06-12 00:25:00 226 3904.0 0.00 222 0.000 0.000     12.120 11.940 12.12 12.460 12.370 11.940 100.000 100.000 0.000 12.14 12.480 12.380 11.960 12.10 12.440 12.350 11.920 12.140 11.960 12.100 11.920 14.136 14.136 0.000 13.969 13.969 0.000
PRIMET_226 2021-06-12 00:20:00 226 3904.0 0.00 205 0.000 0.000     12.100 11.920 12.10 12.420 12.340 11.920 100.000 100.000 0.000 12.12 12.440 12.360 11.940 12.08 12.410 12.320 11.900 12.120 11.940 12.080 11.900 14.117 14.117 0.000 13.951 13.951 0.000
PRIMET_226 2021-06-12 00:15:00 226 3904.0 0.00 281 0.000 0.000     12.110 11.930 12.11 12.450 12.360 11.930 100.000 100.000 0.000 12.12 12.460 12.370 11.950 12.11 12.430 12.350 11.920 12.120 11.950 12.110 11.920 14.127 14.127 0.000 13.960 13.960 0.000
PRIMET_226 2021-06-12 00:10:00 226 3904.0 0.00 345 0.135 0.133 44.550 5.396 12.140 11.950 12.14 12.460 12.380 11.950 100.000 100.000 0.510 12.16 12.490 12.400 11.970 12.11 12.430 12.350 11.930 12.160 11.970 12.110 11.930 14.154 14.154 0.000 13.978 13.978 0.000
PRIMET_226 2021-06-12 00:05:00 226 3904.0 0.00 285 0.190 0.190 46.420 3.013 12.150 11.960 12.15 12.490 12.400 11.960 100.000 100.000 0.568 12.17 12.510 12.410 11.970 12.14 12.470 12.370 11.930 12.170 11.970 12.140 11.930 14.164 14.164 0.000 13.988 13.988 0.000
PRIMET_226 2021-06-12 00:00:00 226 3904.0 0.00 253 0.000 0.000     12.120 11.920 12.12 12.450 12.350 11.920 100.000 100.000 0.000 12.14 12.470 12.380 11.940 12.11 12.440 12.340 11.910 12.140 11.940 12.110 11.910 14.136 14.136 0.000 13.951 13.951 0.000
PRIMET_226 2021-06-11 23:55:00 226 3904.0 0.00 208 0.000 0.000     12.110 11.920 12.11 12.440 12.350 11.920 100.000 100.000 0.000 12.13 12.450 12.350 11.930 12.09 12.430 12.330 11.910 12.130 11.930 12.090 11.910 14.127 14.127 0.000 13.951 13.951 0.000
PRIMET_226 2021-06-11 23:50:00 226 3904.0 0.00 347 0.118 0.117 205.400 1.630 12.100 11.920 12.10 12.420 12.330 11.920 100.000 100.000 0.549 12.11 12.440 12.360 11.930 12.08 12.400 12.310 11.900 12.110 11.930 12.080 11.900 14.117 14.117 0.000 13.951 13.951 0.000
PRIMET_226 2021-06-11 23:45:00 226 3904.0 0.00 190 0.000 0.000     12.160 11.960 12.16 12.450 12.370 11.960 100.000 100.000 0.000 12.19 12.520 12.430 11.990 12.11 12.400 12.320 11.910 12.190 11.990 12.110 11.910 14.173 14.173 0.000 13.988 13.988 0.000
PRIMET_226 2021-06-11 23:40:00 226 3904.0 0.00 200 0.000 0.000     12.180 11.980 12.18 12.520 12.420 11.980 100.000 100.000 0.000 12.19 12.530 12.430 12.000 12.16 12.500 12.410 11.950 12.190 12.000 12.160 11.950 14.192 14.192 0.000 14.006 14.006 0.000
PRIMET_226 2021-06-11 23:35:00 226 3904.0 0.00 209 0.000 0.000     12.120 11.930 12.12 12.460 12.370 11.930 100.000 100.000 0.000 12.16 12.510 12.400 11.960 12.09 12.430 12.350 11.910 12.160 11.960 12.090 11.910 14.136 14.136 0.000 13.960 13.960 0.000
PRIMET_226 2021-06-11 23:30:00 226 3904.0 0.00 216 0.000 0.000     12.110 11.920 12.11 12.440 12.360 11.920 100.000 100.000 0.000 12.11 12.450 12.380 11.940 12.10 12.430 12.350 11.900 12.110 11.940 12.100 11.900 14.127 14.127 0.000 13.951 13.951 0.000
PRIMET_226 2021-06-11 23:25:00 226 3904.0 0.00 190 0.000 0.000     12.110 11.920 12.11 12.450 12.350 11.920 100.000 100.000 0.000 12.12 12.460 12.360 11.940 12.10 12.430 12.340 11.910 12.120 11.940 12.100 11.910 14.127 14.127 0.000 13.951 13.951 0.000
PRIMET_226 2021-06-11 23:20:00 226 3904.0 0.00 230 0.000 0.000     12.120 11.930 12.12 12.450 12.360 11.930 100.000 100.000 0.000 12.14 12.460 12.370 11.950 12.11 12.440 12.350 11.920 12.140 11.950 12.110 11.920 14.136 14.136 0.000 13.960 13.960 0.000
PRIMET_226 2021-06-11 23:15:00 226 3904.0 0.00 290 0.101 0.101 26.440 0.192 12.130 11.940 12.13 12.460 12.370 11.940 100.000 100.000 0.686 12.14 12.480 12.380 11.950 12.11 12.450 12.360 11.920 12.140 11.950 12.110 11.920 14.145 14.145 0.000 13.969 13.969 0.000
PRIMET_226 2021-06-11 23:10:00 226 3904.0 0.00 314 0.000 0.000     12.120 11.940 12.12 12.450 12.360 11.940 100.000 100.000 0.000 12.13 12.470 12.370 11.950 12.10 12.430 12.340 11.910 12.130 11.950 12.100 11.910 14.136 14.136 0.000 13.969 13.969 0.000
PRIMET_226 2021-06-11 23:05:00 226 3904.0 0.00 287 0.000 0.000     12.140 11.940 12.14 12.470 12.380 11.940 100.000 100.000 0.000 12.15 12.480 12.390 11.950 12.11 12.450 12.360 11.920 12.150 11.950 12.110 11.920 14.154 14.154 0.000 13.969 13.969 0.000
PRIMET_226 2021-06-11 23:00:00 226 3904.0 0.00 198 0.000 0.000     12.120 11.930 12.12 12.440 12.360 11.930 100.000 100.000 0.000 12.14 12.460 12.370 11.940 12.10 12.430 12.340 11.920 12.140 11.940 12.100 11.920 14.136 14.136 0.000 13.960 13.960 0.000
PRIMET_226 2021-06-11 22:55:00 226 3904.0 0.00 256 0.000 0.000     12.140 11.950 12.14 12.470 12.380 11.950 100.000 100.000 0.000 12.15 12.480 12.390 11.960 12.13 12.460 12.370 11.930 12.150 11.960 12.130 11.930 14.154 14.154 0.000 13.978 13.978 0.000
PRIMET_226 2021-06-11 22:50:00 226 3904.0 0.00 246 0.000 0.000     12.150 11.950 12.15 12.490 12.390 11.950 100.000 100.000 0.000 12.16 12.490 12.400 11.970 12.14 12.470 12.380 11.940 12.160 11.970 12.140 11.940 14.164 14.164 0.000 13.978 13.978 0.000
PRIMET_226 2021-06-11 22:45:00 226 3904.0 0.00 374 0.000 0.000     12.170 11.980 12.17 12.490 12.400 11.980 100.000 100.000 0.000 12.19 12.520 12.430 12.000 12.15 12.470 12.370 11.960 12.190 12.000 12.150 11.960 14.182 14.182 0.000 14.006 14.006 0.000
PRIMET_226 2021-06-11 22:40:00 226 3904.0 0.00 232 0.000 0.000     12.200 12.010 12.20 12.540 12.450 12.010 100.000 100.000 0.000 12.21 12.550 12.450 12.020 12.18 12.520 12.430 11.980 12.210 12.020 12.180 11.980 14.211 14.211 0.000 14.034 14.034 0.000
PRIMET_226 2021-06-11 22:35:00 226 3904.0 0.00 226 0.047 0.047 29.190 2.054 12.180 11.990 12.18 12.520 12.430 11.990 100.000 100.000 0.268 12.19 12.530 12.450 12.010 12.16 12.510 12.410 11.980 12.190 12.010 12.160 11.980 14.192 14.192 0.000 14.015 14.015 0.000
PRIMET_226 2021-06-11 22:30:00 226 3904.0 0.00 227 0.000 0.000     12.160 11.980 12.16 12.500 12.420 11.980 100.000 100.000 0.000 12.17 12.510 12.430 11.990 12.14 12.480 12.400 11.960 12.170 11.990 12.140 11.960 14.173 14.173 0.000 14.006 14.006 0.000
PRIMET_226 2021-06-11 22:25:00 226 3904.0 0.00 222 0.000 0.000     12.150 11.960 12.15 12.480 12.400 11.960 100.000 100.000 0.000 12.17 12.490 12.410 11.970 12.14 12.470 12.390 11.940 12.170 11.970 12.140 11.940 14.164 14.164 0.000 13.988 13.988 0.000
PRIMET_226 2021-06-11 22:20:00 226 3904.0 0.00 247 0.000 0.000     12.160 11.980 12.16 12.490 12.410 11.980 100.000 100.000 0.000 12.18 12.500 12.430 12.000 12.15 12.470 12.400 11.960 12.180 12.000 12.150 11.960 14.173 14.173 0.000 14.006 14.006 0.000
PRIMET_226 2021-06-11 22:15:00 226 3904.0 0.00 226 0.000 0.000     12.190 12.010 12.19 12.500 12.430 12.010 100.000 100.000 0.000 12.22 12.520 12.440 12.030 12.17 12.490 12.420 11.990 12.220 12.030 12.170 11.990 14.201 14.201 0.000 14.034 14.034 0.000
PRIMET_226 2021-06-11 22:10:00 226 3904.0 0.00 231 0.000 0.000     12.270 12.060 12.27 12.570 12.480 12.060 100.000 100.000 0.000 12.30 12.640 12.540 12.090 12.22 12.520 12.440 12.030 12.300 12.090 12.220 12.030 14.276 14.276 0.000 14.080 14.080 0.000
PRIMET_226 2021-06-11 22:05:00 226 3904.0 0.00 334 0.000 0.000     12.270 12.070 12.27 12.610 12.510 12.070 100.000 100.000 0.000 12.30 12.640 12.540 12.080 12.24 12.570 12.480 12.050 12.300 12.080 12.240 12.050 14.276 14.276 0.000 14.089 14.089 0.000
PRIMET_226 2021-06-11 22:00:00 226 3904.0 0.00 225 0.000 0.000     12.250 12.060 12.25 12.580 12.490 12.060 100.000 100.000 0.000 12.27 12.600 12.500 12.070 12.24 12.560 12.470 12.040 12.270 12.070 12.240 12.040 14.257 14.257 -0.000 14.080 14.080 0.000
PRIMET_226 2021-06-11 21:55:00 226 3904.0 0.00 224 0.000 0.000     12.240 12.050 12.24 12.590 12.490 12.050 100.000 100.000 0.000 12.27 12.610 12.510 12.070 12.21 12.560 12.460 12.030 12.270 12.070 12.210 12.030 14.248 14.248 -0.000 14.071 14.071 0.000
PRIMET_226 2021-06-11 21:50:00 226 3904.0 0.00 241 0.000 0.000     12.210 12.030 12.21 12.540 12.440 12.030 100.000 100.000 0.000 12.22 12.560 12.460 12.040 12.19 12.530 12.430 12.010 12.220 12.040 12.190 12.010 14.220 14.220 0.000 14.052 14.052 0.000
PRIMET_226 2021-06-11 21:45:00 226 3904.0 0.00 213 0.000 0.000     12.250 12.060 12.25 12.560 12.470 12.060 100.000 100.000 0.000 12.29 12.600 12.500 12.090 12.21 12.530 12.450 12.030 12.290 12.090 12.210 12.030 14.257 14.257 -0.000 14.080 14.080 0.000
PRIMET_226 2021-06-11 21:40:00 226 3904.0 0.00 333 0.000 0.000     12.280 12.080 12.28 12.620 12.520 12.080 100.000 100.000 0.000 12.29 12.630 12.530 12.100 12.27 12.600 12.510 12.060 12.290 12.100 12.270 12.060 14.286 14.286 0.000 14.099 14.099 -0.000
PRIMET_226 2021-06-11 21:35:00 226 3904.0 0.00 202 0.132 0.131 28.110 4.040 12.250 12.060 12.25 12.580 12.490 12.060 100.000 100.000 0.608 12.27 12.610 12.520 12.080 12.22 12.560 12.460 12.030 12.270 12.080 12.220 12.030 14.257 14.257 -0.000 14.080 14.080 0.000
PRIMET_226 2021-06-11 21:30:00 226 3904.0 0.00 216 0.000 0.000     12.260 12.080 12.26 12.590 12.500 12.080 100.000 100.000 0.000 12.29 12.600 12.510 12.090 12.23 12.570 12.490 12.050 12.290 12.090 12.230 12.050 14.267 14.267 0.000 14.099 14.099 -0.000
PRIMET_226 2021-06-11 21:25:00 226 3904.0 0.00 221 0.000 0.000     12.290 12.090 12.29 12.610 12.520 12.090 100.000 100.000 0.000 12.30 12.620 12.540 12.110 12.27 12.590 12.510 12.070 12.300 12.110 12.270 12.070 14.295 14.295 0.000 14.108 14.108 0.000
PRIMET_226 2021-06-11 21:20:00 226 3904.0 0.00 204 0.000 0.000     12.280 12.090 12.28 12.620 12.530 12.090 100.000 100.000 0.000 12.30 12.640 12.550 12.110 12.27 12.610 12.500 12.060 12.300 12.110 12.270 12.060 14.286 14.286 0.000 14.108 14.108 0.000
PRIMET_226 2021-06-11 21:15:00 226 3904.0 0.00 237 0.000 0.000     12.270 12.060 12.27 12.590 12.500 12.060 100.000 100.000 0.000 12.28 12.600 12.520 12.080 12.25 12.580 12.480 12.040 12.280 12.080 12.250 12.040 14.276 14.276 0.000 14.080 14.080 0.000
PRIMET_226 2021-06-11 21:10:00 226 3904.0 0.00 229 0.000 0.000     12.270 12.060 12.27 12.590 12.490 12.060 100.000 100.000 0.000 12.28 12.600 12.520 12.080 12.25 12.570 12.480 12.050 12.280 12.080 12.250 12.050 14.276 14.276 0.000 14.080 14.080 0.000
PRIMET_226 2021-06-11 21:05:00 226 3904.0 0.00 235 0.000 0.000     12.260 12.060 12.26 12.580 12.490 12.060 100.000 100.000 0.000 12.27 12.600 12.500 12.080 12.24 12.570 12.480 12.050 12.270 12.080 12.240 12.050 14.267 14.267 0.000 14.080 14.080 0.000
PRIMET_226 2021-06-11 21:00:00 226 3904.0 0.00 215 0.000 0.000     12.250 12.050 12.25 12.570 12.470 12.050 100.000 100.000 0.000 12.26 12.580 12.490 12.060 12.23 12.560 12.460 12.030 12.260 12.060 12.230 12.030 14.257 14.257 -0.000 14.071 14.071 0.000
PRIMET_226 2021-06-11 20:55:00 226 3904.0 0.00 235 0.000 0.000     12.240 12.060 12.24 12.550 12.460 12.060 100.000 100.000 0.000 12.27 12.570 12.490 12.090 12.22 12.540 12.450 12.030 12.270 12.090 12.220 12.030 14.248 14.248 -0.000 14.080 14.080 0.000
PRIMET_226 2021-06-11 20:50:00 226 3904.0 0.00 230 0.000 0.000     12.280 12.100 12.28 12.610 12.520 12.100 100.000 100.000 0.000 12.30 12.630 12.540 12.120 12.27 12.570 12.490 12.090 12.300 12.120 12.270 12.090 14.286 14.286 0.000 14.117 14.117 0.000
PRIMET_226 2021-06-11 20:45:00 226 3904.0 0.00 229 0.000 0.000     12.280 12.090 12.28 12.620 12.520 12.090 100.000 100.000 0.000 12.30 12.630 12.540 12.120 12.27 12.590 12.490 12.080 12.300 12.120 12.270 12.080 14.286 14.286 0.000 14.108 14.108 0.000
PRIMET_226 2021-06-11 20:40:00 226 3904.0 0.00 237 0.000 0.000     12.300 12.120 12.30 12.600 12.520 12.120 100.000 100.000 0.000 12.33 12.640 12.560 12.140 12.27 12.590 12.490 12.090 12.330 12.140 12.270 12.090 14.304 14.304 0.000 14.136 14.136 0.000
PRIMET_226 2021-06-11 20:35:00 226 3904.0 0.00 242 0.000 0.000     12.320 12.130 12.32 12.650 12.560 12.130 100.000 100.000 0.000 12.35 12.670 12.570 12.150 12.29 12.630 12.530 12.110 12.350 12.150 12.290 12.110 14.323 14.323 -0.000 14.145 14.145 0.000
PRIMET_226 2021-06-11 20:30:00 226 3904.0 0.00 241 0.000 0.000     12.290 12.100 12.29 12.610 12.520 12.100 100.000 100.000 0.000 12.31 12.620 12.530 12.110 12.27 12.600 12.510 12.080 12.310 12.110 12.270 12.080 14.295 14.295 0.000 14.117 14.117 0.000
PRIMET_226 2021-06-11 20:25:00 226 3904.0 0.00 238 0.290 0.289 43.630 2.367 12.320 12.130 12.32 12.640 12.550 12.130 100.000 100.000 0.712 12.33 12.660 12.570 12.150 12.29 12.610 12.510 12.110 12.330 12.150 12.290 12.110 14.323 14.323 -0.000 14.145 14.145 0.000
PRIMET_226 2021-06-11 20:20:00 226 3904.0 0.00 219 0.001 0.001 40.710 0.000 12.330 12.140 12.33 12.650 12.560 12.140 100.000 100.000 0.013 12.33 12.660 12.570 12.150 12.31 12.650 12.550 12.130 12.330 12.150 12.310 12.130 14.333 14.333 0.000 14.154 14.154 0.000
PRIMET_226 2021-06-11 20:15:00 226 3904.0 0.00 357 0.000 0.000     12.350 12.150 12.35 12.670 12.570 12.150 100.000 100.000 0.000 12.38 12.690 12.580 12.170 12.33 12.650 12.550 12.140 12.380 12.170 12.330 12.140 14.351 14.351 0.000 14.164 14.164 0.000
PRIMET_226 2021-06-11 20:10:00 226 3904.0 0.00 227 0.000 0.000     12.370 12.170 12.37 12.690 12.590 12.170 100.000 100.000 0.000 12.38 12.700 12.600 12.190 12.36 12.670 12.580 12.160 12.380 12.190 12.360 12.160 14.370 14.370 0.000 14.182 14.182 0.000
PRIMET_226 2021-06-11 20:05:00 226 3904.0 0.00 274 0.180 0.180 41.720 2.569 12.390 12.190 12.39 12.700 12.610 12.190 100.000 100.000 0.660 12.42 12.730 12.630 12.220 12.37 12.680 12.590 12.170 12.420 12.220 12.370 12.170 14.389 14.389 0.000 14.201 14.201 0.000
PRIMET_226 2021-06-11 20:00:00 226 3904.0 0.00 268 0.081 0.081 39.990 0.762 12.410 12.210 12.41 12.740 12.640 12.210 100.000 100.000 0.614 12.42 12.740 12.650 12.230 12.40 12.730 12.630 12.190 12.420 12.230 12.400 12.190 14.408 14.408 0.000 14.220 14.220 0.000
PRIMET_226 2021-06-11 19:55:00 226 3904.0 0.00 216 0.115 0.115 29.880 1.215 12.440 12.220 12.44 12.750 12.650 12.220 100.000 100.000 0.621 12.46 12.770 12.660 12.230 12.42 12.740 12.640 12.200 12.460 12.230 12.420 12.200 14.437 14.437 0.000 14.229 14.229 0.000
PRIMET_226 2021-06-11 19:50:00 226 3904.0 0.00 326 0.000 0.000     12.440 12.210 12.44 12.760 12.660 12.210 100.000 100.000 0.000 12.45 12.770 12.660 12.230 12.41 12.750 12.640 12.200 12.450 12.230 12.410 12.200 14.437 14.437 0.000 14.220 14.220 0.000
PRIMET_226 2021-06-11 19:45:00 226 3904.0 0.00 250 0.000 0.000     12.410 12.200 12.41 12.730 12.630 12.200 100.000 100.000 0.000 12.43 12.750 12.640 12.200 12.39 12.720 12.610 12.180 12.430 12.200 12.380 12.180 14.408 14.408 0.000 14.211 14.211 0.000
PRIMET_226 2021-06-11 19:40:00 226 3904.0 0.00 249 0.000 0.000     12.410 12.210 12.42 12.720 12.620 12.210 99.900 100.000 0.000 12.45 12.750 12.640 12.240 12.38 12.700 12.610 12.190 12.440 12.240 12.370 12.190 14.418 14.408 0.014 14.220 14.220 0.000
PRIMET_226 2021-06-11 19:35:00 226 3904.0 0.00 262 0.000 0.000     12.460 12.260 12.47 12.780 12.670 12.260 99.900 100.000 0.000 12.50 12.810 12.710 12.310 12.44 12.750 12.650 12.230 12.490 12.310 12.430 12.230 14.465 14.456 0.014 14.267 14.267 0.000
PRIMET_226 2021-06-11 19:30:00 226 3904.0 0.00 257 0.000 0.000     12.480 12.270 12.50 12.820 12.720 12.270 99.900 100.000 0.000 12.52 12.830 12.730 12.290 12.49 12.800 12.710 12.250 12.510 12.290 12.470 12.250 14.494 14.475 0.014 14.276 14.276 0.000
PRIMET_226 2021-06-11 19:25:00 226 3904.0 0.00 330 0.000 0.000     12.460 12.250 12.49 12.800 12.700 12.250 99.800 100.000 0.000 12.50 12.820 12.710 12.260 12.47 12.790 12.680 12.230 12.470 12.260 12.440 12.230 14.484 14.456 0.029 14.257 14.257 -0.000
PRIMET_226 2021-06-11 19:20:00 226 3904.0 0.00 238 0.000 0.000     12.470 12.270 12.51 12.820 12.720 12.270 99.800 100.000 0.000 12.54 12.850 12.740 12.310 12.48 12.800 12.710 12.250 12.500 12.310 12.450 12.250 14.503 14.465 0.029 14.276 14.276 0.000
PRIMET_226 2021-06-11 19:15:00 226 3904.0 0.00 281 0.000 0.000     12.500 12.320 12.54 12.860 12.750 12.320 99.700 100.000 0.000 12.56 12.890 12.770 12.340 12.53 12.840 12.740 12.290 12.520 12.340 12.480 12.290 14.532 14.494 0.044 14.323 14.323 -0.000
PRIMET_226 2021-06-11 19:10:00 226 3904.0 0.00 260 0.000 0.000     12.500 12.320 12.55 12.870 12.760 12.320 99.700 100.000 0.000 12.57 12.880 12.770 12.330 12.54 12.860 12.740 12.310 12.520 12.330 12.480 12.310 14.541 14.494 0.044 14.323 14.323 -0.000
PRIMET_226 2021-06-11 19:05:00 226 3904.0 0.00 246 0.000 0.000     12.540 12.350 12.60 12.900 12.780 12.350 99.600 100.000 0.000 12.62 12.920 12.800 12.380 12.57 12.880 12.760 12.320 12.560 12.380 12.520 12.320 14.589 14.532 0.058 14.351 14.351 0.000
PRIMET_226 2021-06-11 19:00:00 226 3904.0 0.00 240 0.000 0.000     12.560 12.380 12.63 12.930 12.810 12.380 99.600 100.000 0.000 12.65 12.940 12.820 12.420 12.61 12.910 12.800 12.350 12.590 12.420 12.550 12.350 14.618 14.551 0.058 14.380 14.380 0.000
PRIMET_226 2021-06-11 18:55:00 226 3904.0 0.00 269 0.000 0.000     12.630 12.440 12.69 12.980 12.860 12.440 99.600 100.000 0.000 12.73 13.020 12.890 12.460 12.64 12.940 12.820 12.410 12.670 12.460 12.570 12.410 14.675 14.618 0.059 14.437 14.437 0.000
PRIMET_226 2021-06-11 18:50:00 226 3904.0 0.00 250 0.000 0.000     12.610 12.420 12.68 13.000 12.870 12.420 99.500 100.000 0.000 12.72 13.020 12.890 12.440 12.65 12.960 12.830 12.380 12.660 12.440 12.570 12.380 14.666 14.599 0.073 14.418 14.418 0.000
PRIMET_226 2021-06-11 18:45:00 226 3904.0 0.00 237 0.000 0.000     12.570 12.390 12.66 12.960 12.830 12.390 99.400 100.000 0.000 12.68 12.970 12.850 12.410 12.64 12.950 12.810 12.360 12.590 12.410 12.560 12.360 14.647 14.560 0.088 14.389 14.389 0.000
PRIMET_226 2021-06-11 18:40:00 226 3904.0 0.00 230 0.000 0.000     12.600 12.440 12.69 12.970 12.850 12.440 99.400 100.000 0.000 12.72 13.010 12.880 12.470 12.66 12.950 12.830 12.420 12.620 12.470 12.560 12.420 14.675 14.589 0.088 14.437 14.437 0.000
PRIMET_226 2021-06-11 18:35:00 226 3904.0 0.00 287 0.000 0.000     12.650 12.480 12.75 13.030 12.910 12.480 99.400 100.000 0.000 12.77 13.060 12.940 12.510 12.72 12.990 12.870 12.450 12.670 12.510 12.620 12.450 14.733 14.637 0.088 14.475 14.475 0.000
PRIMET_226 2021-06-11 18:30:00 226 3904.0 0.00 265 0.000 0.000     12.660 12.490 12.76 13.070 12.940 12.490 99.300 100.000 0.000 12.77 13.080 12.960 12.510 12.75 13.060 12.930 12.470 12.670 12.510 12.640 12.470 14.743 14.647 0.103 14.484 14.484 0.000
PRIMET_226 2021-06-11 18:25:00 226 3904.0 0.00 226 0.000 0.000     12.640 12.470 12.76 13.060 12.930 12.480 99.200 100.000 0.000 12.78 13.070 12.930 12.500 12.74 13.050 12.920 12.460 12.660 12.490 12.620 12.450 14.743 14.627 0.118 14.475 14.465 0.000
PRIMET_226 2021-06-11 18:20:00 226 3904.0 0.00 210 0.000 0.000     12.660 12.480 12.78 13.070 12.950 12.490 99.200 99.900 0.000 12.80 13.090 12.960 12.510 12.76 13.050 12.930 12.480 12.670 12.500 12.640 12.460 14.762 14.647 0.118 14.484 14.475 0.014
PRIMET_226 2021-06-11 18:15:00 226 3904.0 0.00 216 0.000 0.000     12.720 12.550 12.84 13.110 12.990 12.560 99.200 99.900 0.000 12.88 13.180 13.060 12.600 12.79 13.050 12.930 12.500 12.770 12.590 12.660 12.480 14.820 14.704 0.119 14.551 14.541 0.015
PRIMET_226 2021-06-11 18:10:00 226 3904.0 0.00 209 0.000 0.000     12.710 12.540 12.84 13.140 13.010 12.550 99.100 99.900 0.000 12.87 13.170 13.040 12.580 12.82 13.110 13.000 12.540 12.750 12.570 12.670 12.520 14.820 14.695 0.133 14.541 14.532 0.015
PRIMET_226 2021-06-11 18:05:00 226 3904.0 0.00 208 0.000 0.000     12.630 12.470 12.79 13.070 12.950 12.490 99.000 99.800 0.000 12.81 13.120 13.000 12.520 12.78 13.050 12.920 12.480 12.670 12.500 12.620 12.450 14.772 14.618 0.148 14.484 14.465 0.029
PRIMET_226 2021-06-11 18:00:00 226 3904.0 0.00 212 0.000 0.000     12.650 12.510 12.81 13.080 12.960 12.530 98.900 99.900 0.000 12.83 13.110 12.980 12.560 12.79 13.050 12.940 12.510 12.670 12.530 12.630 12.490 14.791 14.637 0.163 14.522 14.503 0.015
PRIMET_226 2021-06-11 17:55:00 226 3904.0 0.00 234 0.000 0.000     12.600 12.500 12.78 13.100 12.970 12.520 98.800 99.900 0.000 12.82 13.130 13.000 12.550 12.72 13.060 12.920 12.480 12.660 12.540 12.530 12.450 14.762 14.589 0.177 14.513 14.494 0.015
PRIMET_226 2021-06-11 17:50:00 226 3904.0 0.00 200 0.253 0.253 48.230 0.000 12.540 12.450 12.75 13.060 12.930 12.490 98.700 99.800 0.640 12.77 13.090 12.960 12.510 12.72 13.030 12.910 12.450 12.570 12.480 12.520 12.410 14.733 14.532 0.192 14.484 14.446 0.029
PRIMET_226 2021-06-11 17:45:00 226 3904.0 0.00 355 0.176 0.176 48.200 0.065 12.560 12.480 12.78 13.080 12.960 12.510 98.600 99.800 0.738 12.79 13.090 12.990 12.530 12.75 13.050 12.930 12.500 12.580 12.490 12.540 12.460 14.762 14.551 0.207 14.503 14.475 0.029
PRIMET_226 2021-06-11 17:40:00 226 3904.0 0.00 199 0.000 0.000     12.510 12.450 12.77 13.050 12.940 12.510 98.300 99.600 0.000 12.79 13.080 12.970 12.520 12.76 13.040 12.920 12.480 12.550 12.480 12.490 12.410 14.753 14.503 0.251 14.503 14.446 0.058
PRIMET_226 2021-06-11 17:35:00 226 3904.0 0.00 282 0.000 0.000     12.530 12.440 12.82 13.070 12.950 12.530 98.100 99.500 0.000 12.86 13.120 13.000 12.560 12.78 13.040 12.920 12.500 12.560 12.470 12.500 12.420 14.801 14.522 0.281 14.522 14.437 0.073
PRIMET_226 2021-06-11 17:30:00 226 3904.0 0.00 203 0.000 0.000     12.620 12.540 12.92 13.160 13.040 12.620 98.000 99.400 0.000 12.97 13.250 13.120 12.670 12.87 13.110 12.990 12.570 12.670 12.590 12.570 12.470 14.898 14.608 0.298 14.608 14.532 0.088
PRIMET_226 2021-06-11 17:25:00 226 3904.0 0.00 270 0.000 0.000     12.620 12.530 12.96 13.230 13.100 12.640 97.800 99.300 0.000 12.98 13.250 13.120 12.670 12.94 13.210 13.080 12.620 12.650 12.580 12.580 12.500 14.937 14.608 0.329 14.627 14.522 0.102
PRIMET_226 2021-06-11 17:20:00 226 3904.0 0.00 211 0.000 0.000     12.700 12.580 13.07 13.280 13.140 12.710 97.600 99.100 0.000 13.17 13.400 13.260 12.810 12.99 13.210 13.080 12.640 12.860 12.720 12.610 12.510 15.045 14.685 0.361 14.695 14.570 0.132
PRIMET_226 2021-06-11 17:15:00 226 3904.0 0.00 453 0.000 0.000     12.820 12.670 13.16 13.410 13.280 12.780 97.800 99.300 0.000 13.19 13.460 13.320 12.820 13.13 13.350 13.230 12.740 12.880 12.730 12.780 12.610 15.134 14.801 0.333 14.762 14.656 0.103
PRIMET_226 2021-06-11 17:10:00 226 3904.0 0.00 180 0.000 0.000     12.730 12.570 13.13 13.330 13.190 12.730 97.400 99.000 0.000 13.14 13.350 13.220 12.760 13.11 13.310 13.170 12.710 12.770 12.600 12.700 12.540 15.104 14.714 0.393 14.714 14.560 0.147
PRIMET_226 2021-06-11 17:05:00 226 3904.0 0.00 200 0.000 0.000     12.790 12.630 13.19 13.390 13.250 12.790 97.500 98.900 0.000 13.21 13.410 13.280 12.810 13.15 13.330 13.190 12.760 12.820 12.660 12.730 12.590 15.164 14.772 0.379 14.772 14.618 0.162
PRIMET_226 2021-06-11 17:00:00 226 3904.0 0.00 199 0.000 0.000     12.780 12.620 13.19 13.390 13.280 12.800 97.300 98.800 0.000 13.21 13.420 13.290 12.820 13.17 13.370 13.260 12.770 12.800 12.650 12.760 12.600 15.164 14.762 0.409 14.782 14.608 0.177
PRIMET_226 2021-06-11 16:55:00 226 3904.0 0.00 204 0.000 0.000     12.820 12.660 13.22 13.430 13.320 12.850 97.400 98.800 0.000 13.25 13.510 13.380 12.900 13.18 13.380 13.270 12.800 12.860 12.720 12.770 12.600 15.193 14.801 0.395 14.830 14.647 0.178
PRIMET_226 2021-06-11 16:50:00 226 3904.0 0.00 196 0.000 0.000     12.810 12.740 13.23 13.500 13.380 12.920 97.300 98.800 0.000 13.25 13.540 13.410 12.950 13.21 13.460 13.360 12.900 12.840 12.770 12.790 12.710 15.203 14.791 0.410 14.898 14.724 0.179
PRIMET_226 2021-06-11 16:45:00 226 3904.0 0.00 273 0.000 0.000     12.780 12.680 13.27 13.510 13.370 12.920 96.900 98.500 0.000 13.28 13.520 13.390 12.940 13.24 13.480 13.350 12.910 12.820 12.720 12.710 12.650 15.243 14.762 0.473 14.898 14.666 0.223
PRIMET_226 2021-06-11 16:40:00 226 3904.0 0.00 442 0.000 0.000     12.790 12.620 13.39 13.550 13.410 12.970 96.100 97.800 0.000 13.52 13.680 13.520 13.040 13.28 13.480 13.360 12.920 12.890 12.660 12.710 12.600 15.363 14.772 0.599 14.947 14.608 0.329
PRIMET_226 2021-06-11 16:35:00 226 3904.0 0.00 334 0.000 0.000     12.930 12.770 13.59 13.780 13.630 13.130 95.800 97.600 0.000 13.63 13.830 13.680 13.180 13.52 13.680 13.530 13.040 12.970 12.810 12.890 12.670 15.564 14.908 0.654 15.104 14.753 0.363
PRIMET_226 2021-06-11 16:30:00 226 3904.0 0.00 199 0.004 0.004 287.000 0.013 12.980 12.770 13.67 13.830 13.680 13.180 95.600 97.400 0.085 13.72 13.860 13.700 13.200 13.62 13.810 13.660 13.160 13.040 12.790 12.940 12.760 15.646 14.957 0.688 15.154 14.753 0.394
PRIMET_226 2021-06-11 16:25:00 226 3904.0 0.00 190 0.084 0.084 286.800 0.137 13.050 12.770 13.74 13.900 13.750 13.260 95.600 96.800 0.353 13.76 13.920 13.790 13.340 13.72 13.870 13.720 13.200 13.110 12.820 13.000 12.730 15.717 15.025 0.692 15.233 14.753 0.487
PRIMET_226 2021-06-11 16:20:00 226 3904.0 0.00 200 0.002 0.002 16.740 0.015 13.030 12.870 13.72 13.970 13.840 13.340 95.600 97.000 0.039 13.77 14.020 13.860 13.380 13.65 13.920 13.790 13.290 13.110 12.910 12.890 12.800 15.697 15.006 0.691 15.313 14.850 0.459
PRIMET_226 2021-06-11 16:15:00 226 3904.0 0.00 192 0.108 0.107 344.000 5.108 12.930 12.840 13.66 13.890 13.760 13.270 95.300 97.200 0.673 13.70 13.930 13.810 13.300 13.63 13.850 13.730 13.250 13.060 12.930 12.840 12.780 15.635 14.908 0.735 15.243 14.820 0.427
PRIMET_226 2021-06-11 16:10:00 226 3904.0 0.00 185 0.186 0.186 322.400 0.000 13.030 12.800 13.63 13.810 13.660 13.190 96.200 97.500 0.562 13.70 13.910 13.790 13.270 13.58 13.740 13.580 13.120 13.070 12.920 12.970 12.730 15.605 15.006 0.593 15.164 14.782 0.379
PRIMET_226 2021-06-11 16:05:00 226 3904.0 0.00 189 0.154 0.151 327.600 6.944 13.010 12.800 13.55 13.740 13.600 13.110 96.600 98.000 0.647 13.59 13.780 13.630 13.140 13.50 13.700 13.570 13.090 13.080 12.870 12.900 12.710 15.524 14.986 0.528 15.085 14.782 0.302
PRIMET_226 2021-06-11 16:00:00 226 3904.0 0.00 202 0.037 0.037 350.200 0.000 12.880 12.690 13.51 13.710 13.570 13.110 96.000 97.300 0.385 13.54 13.750 13.610 13.150 13.49 13.680 13.550 13.070 12.920 12.780 12.850 12.630 15.483 14.859 0.619 15.085 14.675 0.407
PRIMET_226 2021-06-11 15:55:00 226 3904.0 0.00 216 0.083 0.082 358.200 4.640 12.940 12.760 13.51 13.750 13.600 13.130 96.300 97.600 0.490 13.53 13.790 13.630 13.150 13.49 13.730 13.570 13.110 12.980 12.820 12.920 12.720 15.483 14.918 0.573 15.104 14.743 0.363
PRIMET_226 2021-06-11 15:50:00 226 3904.0 0.00 215 0.106 0.106 13.050 1.102 13.000 12.930 13.52 13.840 13.680 13.200 96.700 98.300 0.451 13.54 13.880 13.720 13.240 13.50 13.790 13.630 13.140 13.030 13.000 12.970 12.810 15.494 14.976 0.511 15.173 14.908 0.258
PRIMET_226 2021-06-11 15:45:00 226 3904.0 0.00 209 0.452 0.438 65.790 14.010 13.070 13.000 13.58 13.890 13.730 13.230 96.700 98.500 0.666 13.62 13.920 13.770 13.240 13.53 13.860 13.690 13.210 13.170 13.030 12.980 12.970 15.554 15.045 0.513 15.203 14.976 0.228
PRIMET_226 2021-06-11 15:40:00 226 3904.0 0.00 0 0.000 0.000     13.040 12.900 13.50 13.790 13.640 13.110 97.000 98.600 0.000 13.61 13.910 13.730 13.200 13.41 13.650 13.500 13.000 13.170 12.990 12.910 12.750 15.473 15.016 0.464 15.085 14.879 0.211
PRIMET_226 2021-06-11 15:35:00 226 3904.0 0.00 210 0.000 0.000     12.760 12.590 13.32 13.530 13.390 12.900 96.400 98.000 0.000 13.41 13.650 13.500 12.990 13.24 13.420 13.290 12.840 12.910 12.740 12.600 12.470 15.293 14.743 0.551 14.879 14.579 0.298
PRIMET_226 2021-06-11 15:30:00 226 3904.0 0.00 202 0.000 0.000     12.670 12.530 13.29 13.500 13.360 12.890 96.000 97.700 0.000 13.32 13.560 13.420 12.950 13.24 13.410 13.290 12.850 12.700 12.620 12.590 12.480 15.263 14.656 0.611 14.869 14.522 0.342
PRIMET_226 2021-06-11 15:25:00 226 3904.0 0.00 204 0.000 0.000     12.740 12.640 13.34 13.590 13.450 12.950 96.100 98.000 0.000 13.38 13.630 13.490 12.980 13.30 13.520 13.390 12.900 12.810 12.690 12.650 12.560 15.313 14.724 0.597 14.928 14.627 0.299
PRIMET_226 2021-06-11 15:20:00 226 3904.0 0.00 211 0.000 0.000     12.670 12.590 13.33 13.530 13.390 12.920 95.800 97.900 0.000 13.36 13.570 13.430 12.950 13.29 13.490 13.350 12.890 12.690 12.630 12.630 12.540 15.303 14.656 0.643 14.898 14.579 0.313
PRIMET_226 2021-06-11 15:15:00 226 3904.0 0.00 209 0.000 0.000     12.710 12.630 13.38 13.590 13.450 12.940 95.700 98.000 0.000 13.41 13.620 13.490 12.970 13.36 13.560 13.410 12.920 12.750 12.680 12.700 12.590 15.353 14.695 0.660 14.918 14.618 0.298
PRIMET_226 2021-06-11 15:10:00 226 3904.0 0.00 229 0.000 0.000     12.710 12.600 13.42 13.600 13.470 12.930 95.500 97.800 0.000 13.45 13.630 13.490 12.980 13.39 13.570 13.440 12.890 12.790 12.690 12.630 12.500 15.393 14.695 0.693 14.908 14.589 0.328
PRIMET_226 2021-06-11 15:05:00 226 3904.0 0.00 203 0.000 0.000     12.670 12.490 13.44 13.580 13.440 12.900 95.000 97.400 0.000 13.49 13.610 13.470 12.920 13.40 13.560 13.410 12.870 12.760 12.530 12.610 12.460 15.413 14.656 0.771 14.879 14.484 0.387
PRIMET_226 2021-06-11 15:00:00 226 3904.0 0.00 201 0.000 0.000     12.710 12.460 13.45 13.580 13.430 12.900 95.300 97.200 0.000 13.48 13.600 13.450 12.930 13.40 13.560 13.410 12.870 12.770 12.490 12.630 12.420 15.423 14.695 0.725 14.879 14.456 0.417
PRIMET_226 2021-06-11 14:55:00 226 3904.0 0.00 273 0.000 0.000     12.570 12.430 13.42 13.560 13.400 12.910 94.600 96.900 0.000 13.47 13.630 13.440 12.940 13.38 13.530 13.380 12.880 12.640 12.510 12.500 12.390 15.393 14.560 0.831 14.889 14.427 0.462
PRIMET_226 2021-06-11 14:50:00 226 3904.0 0.00 198 0.000 0.000     12.670 12.500 13.49 13.640 13.480 12.900 94.800 97.400 0.000 13.52 13.680 13.510 12.950 13.46 13.590 13.450 12.870 12.720 12.560 12.620 12.410 15.463 14.656 0.804 14.879 14.494 0.387
PRIMET_226 2021-06-11 14:45:00 226 3904.0 0.00 279 0.000 0.000     12.670 12.410 13.40 13.570 13.400 12.840 95.300 97.200 0.000 13.47 13.610 13.460 12.890 13.35 13.520 13.320 12.780 12.710 12.460 12.620 12.370 15.373 14.656 0.723 14.820 14.408 0.415
PRIMET_226 2021-06-11 14:40:00 226 3904.0 0.00 232 0.151 0.151 241.300 0.684 12.620 12.370 13.30 13.470 13.300 12.750 95.700 97.500 0.555 13.34 13.510 13.330 12.780 13.26 13.410 13.260 12.700 12.730 12.410 12.550 12.280 15.273 14.608 0.657 14.733 14.370 0.368